     2              OBSERVATION DATA    GPS                 RINEX VERSION / TYPE
ASRINEXO V2.8.2 VM                                          PGM / RUN BY / DATE
                                                            COMMENT
Original Marker Name: 0615                                  COMMENT
Campaign Name: HPGN 1991                                    COMMENT
4-Character Station Name: 0615                              COMMENT
6-Character Antenna Code: ASHL12                            COMMENT
Vertical Measurement Point: BAS                             COMMENT
Vertical Offset to Rinex Ref. Point: 0.0000                 COMMENT
Radial Measurement Point: RRP                               COMMENT
Radial Offset to Rinex Ref. Point: 0.0000                   COMMENT
Antenna Height from Field Measurement: 2.2200 m             COMMENT
Original XYZ: 6378137.0000 0.0000 0.0000                    COMMENT
New XYZ position is based on association with SCEC monument COMMENT
E1F1F5A3+0011. Position of that monument is believed to be  COMMENT
valid to within 1 m horizontally; vertical accuracy         COMMENT
should be no worse than 3-times this value.                 COMMENT
                                                            COMMENT
Revised Rinex header created by UCSD GPS archive for        COMMENT
GSAC on 19-Apr-1999 (1999:109) 06:21:09 GMT                 COMMENT
For assistance contact dagnew@ucsd.edu or hjohnson@ucsd.edu COMMENT
                                                            COMMENT
LOST 2 1969 1979                                            MARKER NAME
PTD CALIF DEPT TRANSPORTATION                               OBSERVER / AGENCY
572 ASHTECH L-XII3 6A                                       REC # / TYPE / VERS
642 ASHTECH GEODETIC L                                      ANT # / TYPE
 -2569466.0000 -4506633.0000  3698251.0000                  APPROX POSITION XYZ
        2.2200        0.0000        0.0000                  ANTENNA: DELTA H/E/N
     1     2     0                                          WAVELENGTH FACT L1/2
     3    C1    L1    L2                                    # / TYPES OF OBSERV
     0                                                      INTERVAL
  1991     5     2    19    19   45.000000                  TIME OF FIRST OBS
  1991     5     3     1    22    0.000000                  TIME OF LAST OBS
     0                                                      # OF SATELLITES
                                                            END OF HEADER
 91  5  2 19 19 45.0000000  0  1 19
  29587356.795           0.058 3         0.452 3
 91  5  2 19 20  0.0000000  0  1 19
  29586484.110       -4590.698 3     -3576.759 3
 91  5  2 19 20 15.0000000  0  1 19
  29585616.799       -9142.160 3     -7123.357 3
 91  5  2 19 20 30.0000000  0  1 19
  29584772.592      -13580.425 3    -10581.740 3
 91  5  2 19 20 45.0000000  0  2 19 02
  29883749.913      -17856.442 3    -13913.702 3
  32778656.210           0.695 2         0.042
 91  5  2 19 21  0.0000000  0  2 19 02
  29882979.137      -21939.576 3    -17095.378 3
  32769089.530      -50267.572 2    -39170.021 1
 91  5  2 19 21 15.0000000  0  2 19 02
  29582446.793      -25811.008 3    -20112.070 3
  32459775.067     -100327.411 2    -78177.633 1
 91  5  2 19 21 30.0000000  0  2 19 02
  29581751.279      -29460.275 3    -22955.665 3
  32450293.526     -150162.175 2   -117009.834 1
 91  5  2 19 21 45.0000000  0  2 19 02
  29880895.895      -32886.648 3    -25625.561 3
  32740642.830     -199770.712 2   -155665.797 1
 91  5  2 19 22  0.0000000  0  2 19 02
  29880288.505      -36084.624 3    -28117.502 3
  32731247.022     -249153.537 2   -194145.852 2
 91  5  2 19 22 15.0000000  0  2 19 02
  29579927.644      -39045.363 3    -30424.575 3
  32422100.152     -298301.563 2   -232442.927 1
 91  5  2 19 22 30.0000000  0  2 19 02
  29579409.006      -41765.922 3    -32544.487 3
  32412793.985     -347205.463 2   -270549.780 1
 91  5  2 19 22 45.0000000  0  3 19 18 02
  29279145.570      -44240.632 3    -34472.838 3
  29260508.371           0.250 4         0.004 3
  32103741.538     -395865.430 2   -308466.532 1
 91  5  2 19 23  0.0000000  0  3 19 18 02
  29278722.263      -46476.587 3    -36215.137 3
  29264321.436       20050.034 4     15623.184 3
  32094528.329     -444282.340 2   -346193.896 1
 91  5  2 19 23 15.0000000  0  3 19 18 02
  28978548.172      -48474.395 3    -37771.875 3
  28968404.098       40401.492 4     31481.440 3
  31785571.508     -492462.831 2   -383737.092 1
 91  5  2 19 23 30.0000000  0  3 19 18 02
  28978212.098      -50238.560 3    -39146.540 3
  28972331.375       61046.749 4     47568.629 3
  31776447.330     -540405.021 2   -421094.587 1
 91  5  2 19 23 45.0000000  0  5 19 16 18 11 02
  29277711.668      -51778.438 3    -40346.464 3
  32780174.065           0.605 2         0.094 1
  29276107.470       81976.776 4     63877.722 3
  32230156.831           0.838 2         0.231 1
  32067158.168     -588118.279 2   -458273.701 1
 91  5  2 19 24  0.0000000  0  5 19 16 18 11 02
  29277464.940      -53092.897 3    -41370.723 3
  32774157.823      -31634.597 2    -24650.774 1
  29280145.974      103195.617 4     80411.865 3
  32224191.561      -31382.371 2    -24454.158 1
  32058125.429     -635607.456 2   -495278.240 1
 91  5  2 19 24 15.0000000  0  5 19 16 18 11 02
  20883067.745        3231.632 3      2518.613 3
  24373992.634      130019.275 2    101313.097 1
  20890055.912      -66262.466 4    -51633.301 3
  23824065.041      115673.469 2     90134.749 1
  23654923.344      122973.292 2     95823.871 1
 91  5  2 19 24 30.0000000  0  5 19 16 18 11 02
  20882900.171        2357.457 3      1837.425 3
  24368079.523       98955.840 2     77107.880 1
  20894201.752      -44479.419 4    -34659.525 3
  23818206.200       84837.259 2     66106.585 1
  23645970.632       75929.047 2     59166.075 1
 91  5  2 19 24 45.0000000  0  5 19 16 18 11 02
  20882772.453        1687.111 3      1315.079 3
  24362220.979       68162.011 2     53112.640 1
  20898398.233      -22430.807 4    -17478.813 3
  23812380.340       54258.617 2     42279.129 1
  23637056.903       29091.145 2     22669.096 1
 91  5  2 19 25  0.0000000  0  5 19 16 18 11 02
  20882682.811        1219.891 3       951.004 3
  24356403.216       37637.261 2     29327.202
  20902642.108        -117.255 4       -91.648 3
  23806613.532       23937.221 2     18652.104 1
  23628181.548      -17540.975 2    -13667.543 1
 91  5  2 19 25 15.0000000  0  5 19 16 18 11 02
  20882631.263         948.837 3       739.784 3
  24350651.101        7375.159 2      5746.288 1
  20906937.532       22454.103 4     17496.407 3
  23800888.081       -6133.599 2     -4779.662 1
  23619346.363      -63973.957 2    -49848.993 1
 91  5  2 19 25 30.0000000  0  5 19 16 18 11 02
  20882618.367         870.784 3       678.949 3
  24344940.342      -22627.438 2    -17632.313 1
  20911281.816       45280.116 4     35282.893 3
  23795213.322      -35956.613 2    -28018.308 1
  23610550.459     -110210.778 2    -85877.621 1
 91  5  2 19 25 45.0000000  0  5 19 16 18 11 02
  20882640.546         985.795 3       768.569 3
  24339277.572      -52370.132 2    -40808.465 1
  20915673.180       68361.038 4     53268.004 3
  23789589.815      -65531.137 2    -51063.359 1
  23601788.129     -156251.058 2   -121753.113 1
 91  5  2 19 26  0.0000000  0  5 19 16 18 11 02
  20882695.410        1290.166 3      1005.735 3
  24333674.743      -81856.604 2    -63784.912 1
  20920113.702       91692.905 4     71448.659 3
  23784003.477      -94860.742 2    -73917.570 1
  23593064.765     -202098.648 2   -157478.455 1
 91  5  2 19 26 15.0000000  0  5 19 16 18 11 02
  20882791.945        1785.072 3      1391.375 3
  24328110.009     -111085.431 2    -86560.616 1
  20924600.694      115276.812 4     89825.705 3
  23778468.704     -123943.846 2    -96579.640 1
  23584377.383     -247752.146 2   -193052.586 1
 91  5  2 19 26 30.0000000  0  5 19 16 18 11 02
  20882924.758        2467.883 3      1923.426 3
  24322595.321     -140058.488 2   -109137.007 1
  20929135.954      139110.416 4    108397.316 2
  23772986.107     -152782.488 2   -119051.277 1
  23575723.559     -293213.719 2   -228477.144 1
 91  5  2 19 26 45.0000000  0  5 19 16 18 11 02
  20883088.145        3338.076 3      2601.487 3
  24317128.604     -168776.493 2   -131514.727 1
  20933720.684      163192.842 4    127162.817 2
  23767547.276     -181376.886 2   -141332.593 1
  23567109.922     -338483.985 2   -263752.609 1
 91  5  2 19 27  0.0000000  0  5 19 16 18 11 02
  20883290.497        4388.995 3      3420.382 3
  24311709.858     -197245.616 2   -153698.457 1
  20938349.477      187517.633 4    146117.173 2
  23762142.315     -209733.400 2   -163428.510 1
  23558537.956     -383569.096 2   -298883.810 1
 91  5  2 19 27 15.0000000  0  5 19 16 18 11 02
  20883520.439        5618.595 3      4378.504 2
  24306336.971     -225467.655 2   -175689.604 1
  20943024.146      212082.487 4    165258.592 2
  23756795.813     -237853.761 2   -185340.452 1
  23549982.184     -428471.085 2   -333872.301 1
 91  5  2 19 27 30.0000000  0  5 19 16 18 11 02
  20883789.957        7023.544 3      5473.262 3
  24301017.464     -253445.873 2   -197490.839 1
  20947744.377      236884.054 4    184584.458 3
  23751488.591     -265740.928 2   -207070.676 1
  23541477.070     -473193.104 2   -368720.543 1
 91  5  2 19 27 45.0000000  0  5 19 16 18 11 02
  20884087.955        8599.266 3      6701.088 3
  24295739.907     -281184.563 2   -219105.372 1
  20952506.873      261917.840 4    204091.285 3
  23746226.024     -293398.930 2   -228622.260 1
  23532999.842     -517739.385 2   -403431.896 2
 91  5  2 19 28  0.0000000  0  5 19 16 18 11 02
  20884423.714       10345.548 3      8061.817 3
  24290501.334     -308683.821 2   -240533.369 1
  20957316.153      287183.197 4    223778.549 3
  23741003.942     -320827.950 2   -249995.509 1
  23524557.095     -562110.244 2   -438006.539 1
 91  5  2 19 28 15.0000000  0  5 19 16 18 11 02
  20884785.859       12256.350 3      9550.746 3
  24285320.330     -335949.318 2   -261779.210 1
  20962167.401      312674.257 4    243641.689 3
  23735831.924     -348033.409 2   -271194.491 1
  23516146.718     -606311.325 2   -472448.875 1
 91  5  2 19 28 30.0000000  0  5 19 16 18 11 02
  20885177.389       14328.755 3     11165.597 3
  24280167.786     -362984.031 2   -282845.194 1
  20967061.210      338387.882 4    263678.262 3
  23730693.481     -375018.028 2   -292221.428 1
  23507760.021     -650345.597 2   -506761.256 1
 91  5  2 19 28 45.0000000  0  5 19 16 18 11 02
  20885602.197       16558.527 3     12903.079 3
  24275068.623     -389791.951 2   -303734.457 1
  20971992.188      364319.953 4    283885.042 3
  23725601.804     -401785.744 2   -313079.349 1
  23499413.495     -694217.144 2   -540946.815 1
 91  5  2 19 29  0.0000000  0  5 19 16 18 11 02
  20886056.392       18943.947 3     14761.837 3
  24270011.114     -416374.298 2   -324447.940 1
  20976972.637      390468.645 4    304260.620 3
  23720547.610     -428337.959 2   -333769.314 1
  23491097.244     -737927.496 2   -575006.792 1
 91  5  2 19 29 15.0000000  0  5 19 16 18 11 02
  20886543.253       21485.828 3     16742.511 3
  24264996.497     -442730.061 2   -344984.885 1
  20981987.568      416834.842 4    324805.690 3
  23715535.977     -454673.359 2   -354290.361 1
  23482814.883     -781475.521 2   -608940.281 1
 91  5  2 19 29 30.0000000  0  5 19 16 18 11 02
  20887052.590       24180.030 3     18841.894 3
  24260024.442     -468863.339 2   -365348.421 1
  20987045.967      443414.197 4    345516.847 3
  23710567.220     -480795.580 2   -374645.309 1
  23474556.201     -824865.253 2   -642750.407 1
 91  5  2 19 29 45.0000000  0  5 19 16 18 11 02
  20887594.314       27025.780 3     21059.357 3
  24255094.040     -494774.597 2   -385539.023 1
  20992142.739      470205.991 4    366393.552 3
  23705636.521     -506705.239 2   -394834.594 2
  23466327.201     -868097.280 2   -676437.655 1
 91  5  2 19 30  0.0000000  0  5 19 16 18 11 02
  20888162.720       30017.252 3     23390.372 3
  24250203.529     -520469.206 2   -405560.834 1
  20997281.776      497204.305 4    387431.173 3
  23700745.120     -532407.645 2   -414862.392 1
  23458129.072     -911177.061 2   -710006.253 1
 91  5  2 19 30 15.0000000  0  5 19 16 18 11 02
  20888761.106       33154.187 3     25834.725 3
  24245351.688     -545947.359 2   -425413.874 1
  21002460.093      524408.843 4    408629.491 3
  23695889.981     -557902.707 2   -434728.619 1
  23449964.219     -954104.767 2   -743456.346 1
 91  5  2 19 30 30.0000000  0  5 19 16 18 11 02
  20889387.673       36433.978 3     28390.398 3
  24240546.317     -571211.778 2   -445100.444 1
  21007672.892      551817.156 4    429986.591 3
  23691080.108     -583192.692 2   -454435.044 1
  23441821.267     -996882.779 2   -776789.782 1
 91  5  2 19 30 45.0000000  0  6 19 16 18 11 06 02
  20890034.326       39851.317 3     31053.261 3
  24235783.524     -596267.197 2   -464624.138 1
  21012927.955      579423.517 4    451498.022 3
  23686304.105     -608282.548 2   -473985.539 1
  24809907.955           0.664 2         0.351 1
  23433707.387    -1039516.460 2   -810010.774 1
 91  5  2 19 31  0.0000000  0  6 19 16 18 11 06 02
  20890709.457       43405.777 3     33822.968 3
  24231044.394     -621113.954 2   -483985.234 1
  21018219.594      607227.299 4    473163.280 3
  23681565.289     -633172.453 2   -493380.199 1
  24803684.562      -32631.165 2    -25427.031 1
  23425621.672    -1082006.034 2   -843119.502 1
 91  5  2 19 31 15.0000000  0  6 19 16 18 11 06 02
  20891412.178       47093.295 3     36696.346 3
  24226357.143     -645756.022 2   -503186.826 1
  21023546.605      635224.603 4    494979.337 2
  23676870.849     -657866.078 2   -512621.952 1
  24797500.746      -65157.627 2    -50772.245 1
  23417562.655    -1124355.257 2   -876118.844 1
 91  5  2 19 31 30.0000000  0  6 19 16 18 11 06 02
  20892142.173       50915.238 3     39674.476 3
  24221705.858     -670191.554 2   -522227.505 1
  21028911.988      663416.904 4    516947.336 3
  23672204.870     -682361.598 2   -531709.334 1
  24791328.324      -97577.177 2    -76034.414 1
  23409533.025    -1166562.504 2   -909007.600 1
 91  5  2 19 31 45.0000000  0  6 19 16 18 11 06 02
  20892893.143       54870.273 3     42756.314 3
  24217108.545     -694421.687 2   -541108.117 1
  21034313.040      691802.591 4    539066.028 3
  23667582.377     -706660.195 2   -550643.253 1
  24785179.880     -129891.328 2   -101214.032 1
  23401525.853    -1208629.270 2   -941786.828 1
 91  5  2 19 32  0.0000000  0  6 19 16 18 11 06 02
  20893673.516       58954.389 3     45938.745 3
  24212526.520     -718450.257 2   -559831.677 1
  21039748.888      720377.444 4    561332.119 3
  23662998.240     -730765.599 2   -569426.639 1
  24779051.817     -162104.133 2   -126314.814 1
  23393549.585    -1250559.180 2   -974459.450 1
 91  5  2 19 32 15.0000000  0  6 19 16 18 11 06 02
  20894471.253       63169.075 3     49222.915 3
  24207998.153     -742275.772 2   -578397.023 1
  21045222.498      749143.100 4    583746.891 3
  23658442.006     -754675.772 2   -588057.879 1
  24772944.154     -194214.109 2   -151335.593 1
  23385591.884    -1292350.569 2  -1007024.120 1
 91  5  2 19 32 30.0000000  0  6 19 16 18 11 06 02
  20895297.189       67515.004 3     52609.350 3
  24203504.268     -765896.971 2   -596803.141 1
  21050736.278      778100.138 4    606310.784 3
  23653935.225     -778389.757 2   -606536.252 1
  24766849.665     -226220.632 2   -176275.599 1
  23377666.571    -1334002.506 2  -1039480.103 1
 91  5  2 19 32 45.0000000  0  6 19 16 18 11 06 02
  20896150.400       71988.045 3     56094.820 3
  24199039.159     -789318.117 2   -615053.382 1
  21056280.648      807244.223 4    629020.437 3
  23649457.517     -801911.331 2   -624864.712 1
  24760776.169     -258127.830 2   -201138.301 1
  23369764.048    -1375518.929 2  -1071830.533 1
 91  5  2 19 33  0.0000000  0  6 19 16 18 11 06 02
  20897029.089       76585.953 3     59677.603 3
  24194626.802     -812541.430 2   -633149.501 1
  21061860.373      836573.183 4    651874.150 3
  23645026.592     -825242.439 2   -643044.739 1
  24754722.462     -289937.939 2   -225925.378 1
  23361895.989    -1416902.232 2  -1104077.185 1
 91  5  2 19 33 15.0000000  0  6 19 16 18 11 06 02
  20897924.267       81304.179 3     63354.148 3
  24190244.145     -835570.955 2   -651094.577 1
  21067477.284      866082.167 4    674868.133 3
  23640612.438     -848387.303 2   -661079.655 1
  24748696.936     -321655.731 2   -250640.446 1
  23354042.938    -1458156.569 2  -1136223.372 1
 91  5  2 19 33 30.0000000  0  6 19 16 18 11 06 02
  20898848.536       86143.680 3     67125.179 3
  24185897.452     -858405.572 2   -668887.759 1
  21073124.174      895772.266 4    698003.250 2
  23636245.660     -871344.583 2   -678968.387 1
  24742670.504     -353280.187 2   -275282.770 1
  23346216.550    -1499280.796 2  -1168268.171 1
 91  5  2 19 33 45.0000000  0  6 19 16 18 11 06 02
  20899789.277       91101.525 3     70988.425 3
  24181584.631     -881047.779 2   -686531.048 1
  21078810.345      925640.548 4    721277.215 3
  23631912.475     -894116.969 2   -696713.037 1
  24736666.564     -384814.348 2   -299854.722
  23338416.547    -1540277.737 2  -1200213.793 1
 91  5  2 19 34  0.0000000  0  6 19 16 18 11 06 02
  20900753.401       96176.125 3     74942.654 3
  24177314.092     -903499.461 2   -704025.821 1
  21084525.588      955685.206 4    744688.605 2
  23627610.752     -916705.752 2   -714314.641 1
  24730693.494     -416259.789 2   -324357.757 1
  23330636.943    -1581148.942 2  -1232061.455 1
 91  5  2 19 34 15.0000000  0  6 19 16 18 11 06 02
  20901742.724      101366.687 3     78987.243 3
  24173082.518     -925761.227 2   -721372.673 1
  21090279.797      985905.465 4    768236.838 2
  23623347.402     -939111.278 2   -731773.449 1
  24724720.128     -447617.340 2   -348792.111 1
  23322882.503    -1621894.817 2  -1263811.449 1
 91  5  2 19 34 30.0000000  0  6 19 16 18 11 06 02
  20902753.929      106669.909 3     83119.633 3
  24168878.534     -947835.970 2   -738573.785 1
  21096062.800     1016297.903 4    791919.223 3
  23619119.423     -961336.664 2   -749091.882 1
  24718766.847     -478890.422 2   -373160.539 1
  23315156.855    -1662518.720 2  -1295466.377 1
 91  5  2 19 34 45.0000000  0  6 19 16 18 11 06 02
  20903782.811      112087.238 3     87340.916 3
  24164715.907     -969721.967 2   -755627.821 1
  21101877.579     1046863.722 4    815736.708 3
  23614925.019     -983380.104 2   -766268.546 1
  24712833.668     -510077.531 2   -397462.286 1
  23307446.494    -1703018.957 2  -1327024.954 1
 91  5  2 19 35  0.0000000  0  6 19 16 18 11 06 02
  20904835.077      117617.524 3     91650.227 3
  24160586.871     -991420.297 2   -772535.559 1
  21107728.026     1077601.548 4    839688.246 2
  23610762.706    -1005242.288 2   -783303.968 1
  24706917.259     -541179.867 2   -421697.816 1
  23299761.610    -1743396.611 2  -1358488.013 1
 91  5  2 19 35 15.0000000  0  6 19 16 18 11 06 02
  20905909.243      123264.509 3     96050.470 3
  24156495.005    -1012927.073 2   -789294.089 1
  21113609.657     1108515.010 4    863776.632 2
  23606641.471    -1026919.363 2   -800195.161 1
  24701014.042     -572193.852 2   -445864.627 1
  23292100.406    -1783647.852 2  -1389852.554 2
 91  5  2 19 35 30.0000000  0  6 19 16 18 11 06 02
  20907001.975      129025.990 3    100539.932 3
  24152438.510    -1034243.907 2   -805904.589 1
  21119525.158     1139602.395 4    888000.536 3
  23602549.290    -1048412.876 2   -816943.267 1
  24695121.016     -603121.484 1   -469964.264 1
  23284468.605    -1823774.373 2  -1421119.910 1
 91  5  2 19 35 45.0000000  0  6 19 16 18 11 06 02
  20908121.703      134900.520 3    105117.484 3
  24148416.496    -1055372.220 2   -822368.202 1
  21125474.531     1170861.977 4    912358.630 3
  23598493.999    -1069723.921 2   -833549.284 1
  24689258.284     -633964.255 2   -493997.688 1
  23276852.667    -1863777.629 2  -1452291.226 1
 91  5  2 19 36  0.0000000  0  6 19 16 18 11 06 02
  20909261.220      140885.610 3    109781.191 3
  24144428.057    -1076314.629 2   -838686.935 1
  21131455.698     1202291.125 4    936848.838 3
  23594472.893    -1090854.773 2   -850014.793 1
  24683398.239     -664724.825 2   -517967.203 1
  23269264.615    -1903659.892 2  -1483368.238 1
 91  5  2 19 36 15.0000000  0  6 19 16 18 11 06 02
  20910424.417      146981.025 3    114530.852 3
  24140478.898    -1097071.020 2   -854860.752 1
  21137467.141     1233889.204 4    961470.692 2
  23590489.549    -1111805.430 2   -866339.927 1
  24677564.282     -695403.460 1   -541872.809 1
  23261696.961    -1943421.344 2  -1514351.149 1
 91  5  2 19 36 30.0000000  0  6 19 16 18 11 06 02
  20911607.402      153181.359 3    119362.275 3
  24136559.701    -1117646.841 2   -870893.820 1
  21143511.844     1265650.989 4    986220.110 3
  23586534.981    -1132581.131 2   -882528.764 1
  24671741.703     -726005.703 1   -565718.606 1
  23254155.379    -1983067.251 2  -1545244.046 1
 91  5  2 19 36 45.0000000  0  6 19 16 18 11 06 02
  20912802.061      159488.048 3    124276.583 3
  24132681.600    -1138040.346 2   -886784.924 1
  21149588.638     1297577.647 4   1011097.995 2
  23582617.302    -1153180.123 2   -898579.902 1
  24665929.926     -756530.039 1   -589504.049
  23246633.288    -2022596.029 2  -1576045.652 1
 91  5  2 19 37  0.0000000  0  5 19 16 18 11 02
  20914023.123      165900.329 3    129273.156 3
  24128834.350    -1158252.017 2   -902534.271 1
  21155694.225     1329668.373 4   1036103.735 2
  23578725.991    -1173602.780 2   -914493.603 1
  23239133.987    -2062008.128 2  -1606756.335 1
 91  5  2 19 37 15.0000000  0  5 19 16 18 11 02
  20915259.471      172413.919 3    134348.671 3
  24125030.883    -1178285.972 2   -918145.169 1
  21161829.163     1361918.660 3   1061233.805 3
  23574870.051    -1193852.970 2   -930272.917 1
  23231655.068    -2101307.847 2  -1637379.453 2
 91  5  2 19 37 30.0000000  0  5 19 16 18 11 02
  20916519.795      179029.494 3    139503.662 3
  24121252.911    -1198141.049 2   -933616.639 1
  21167998.897     1394329.423 3   1086488.920 2
  23571051.001    -1213929.488 2   -945916.882 1
  23224198.625    -2140494.242 2  -1667914.246 2
 91  5  2 19 37 45.0000000  0  5 19 16 18 11 02
  20917798.111      185746.109 3    144737.384 3
  24117506.402    -1217818.398 2   -948949.668 1
  21174196.516     1426899.478 3   1111868.160 3
  23567263.117    -1233833.349 2   -961426.394 1
  23216758.079    -2179568.377 2  -1698361.542 1
 91  5  2 19 38  0.0000000  0  5 19 16 18 11 02
  20919095.308      192562.157 3    150048.584 3
  24113794.060    -1237319.579 2   -964145.380 1
  21180422.597     1459627.226 3   1137370.273 2
  23563509.122    -1253565.627 2   -976802.127 1
  23209348.105    -2218531.373 2  -1728722.304 1
 91  5  2 19 38 15.0000000  0  5 19 16 18 11 02
  20920411.107      199477.845 3    155437.426 3
  24110114.420    -1256643.883 2   -979203.252 1
  21186683.473     1492512.842 3   1162995.405 3
  23559788.700    -1273125.806 2   -992043.777 1
  23201955.827    -2257382.814 3  -1758996.087 1
 91  5  2 19 38 30.0000000  0  5 19 16 18 11 02
  20921744.879      206493.469 3    160904.136 3
  24106464.148    -1275790.853 2   -994123.015 1
  21192972.217     1525556.351 3   1188743.566 3
  23556096.147    -1292513.244 2  -1007150.806
  23194581.522    -2296122.268 3  -1789182.638 1
 91  5  2 19 38 45.0000000  0  5 19 16 18 11 02
  20923098.737      213606.928 3    166447.087 3
  24102863.034    -1294762.715 2  -1008906.228 1
  21199287.032     1558755.591 3   1214613.071 3
  23552441.391    -1311729.958 2  -1022124.853 1
  23187230.007    -2334751.970 2  -1819283.679 1
 91  5  2 19 39  0.0000000  0  5 19 16 18 11 02
  20924473.587      220815.921 3    172064.473 3
  24099282.616    -1313561.736 2  -1023554.852 1
  21205635.736     1592107.997 4   1240601.928 2
  23548815.689    -1330777.985 2  -1036967.434 1
  23179899.781    -2373274.157 2  -1849300.916 2
 91  5  2 19 39 15.0000000  0  5 19 16 18 11 02
  20925860.426      228122.642 3    177758.024 3
  24095742.962    -1332185.317 2  -1038066.717 1
  21212009.323     1625615.446 4   1266711.595 2
  23545225.988    -1349654.712 2  -1051676.523 1
  23172589.047    -2411686.275 2  -1879232.367 1
 91  5  2 19 39 30.0000000  0  5 19 16 18 11 02
  20927271.258      235524.505 3    183525.694 2
  24092226.097    -1350635.683 2  -1052443.577 1
  21218416.502     1659275.795 4   1292940.408 2
  23541666.248    -1368362.305 2  -1066253.823 1
  23165299.899    -2449990.597 2  -1909079.827 1
 91  5  2 19 39 45.0000000  0  5 19 16 18 11 02
  20928699.157      243023.849 3    189369.326 3
  24088752.998    -1368910.321 2  -1066683.573 1
  21224850.345     1693091.129 4   1319289.987 2
  23538139.489    -1386898.062 2  -1080697.242 1
  23158030.226    -2488184.592 2  -1938841.338 1
 91  5  2 19 40  0.0000000  0  5 19 16 18 11 02
  20930143.564      250617.268 3    195286.269 3
  24085303.892    -1387012.750 2  -1080789.302 1
  21231314.167     1727057.678 4   1345757.400 2
  23534640.616    -1405265.238 2  -1095009.246 1
  23150784.250    -2526271.569 2  -1968519.486 2
 91  5  2 19 40 15.0000000  0  5 19 16 18 11 02
  20931603.851      258304.072 3    201275.988 3
  24081895.551    -1404943.529 2  -1094761.410 1
  21237807.376     1761174.712 4   1372342.065 2
  23531181.302    -1423464.379 2  -1109190.409 1
  23143558.342    -2564252.225 3  -1998114.778 1
 91  5  2 19 40 30.0000000  0  5 19 16 18 11 02
  20933087.224      266082.901 3    207337.407 3
  24078512.093    -1422703.625 2  -1108600.430 1
  21244328.749     1795440.985 4   1399043.029 2
  23527748.687    -1441496.187 2  -1123241.132 1
  23136354.630    -2602127.704 2  -2027628.100 1
 91  5  2 19 40 45.0000000  0  5 19 16 18 11 02
  20934584.383      273952.874 3    213469.844 3
  24075168.806    -1440294.018 2  -1122307.199 1
  21250877.729     1829855.166 4   1425859.250 2
  23524347.832    -1459361.471 2  -1137162.079 1
  23129162.313    -2639898.894 2  -2057060.157 1
 91  5  2 19 41  0.0000000  0  5 19 16 18 11 02
  20936099.847      281912.935 3    219672.477 3
  24071851.607    -1457715.378 2  -1135882.273 1
  21257454.873     1864416.367 4   1452790.027 2
  23520982.365    -1477061.050 2  -1150953.944 1
  23121994.584    -2677566.782 2  -2086411.730 1
 91  5  2 19 41 15.0000000  0  5 19 16 18 11 02
  20937631.173      289959.809 3    225942.766 3
  24068568.575    -1474970.951 2  -1149328.167 1
  21264057.791     1899121.119 4   1479832.663 2
  23517644.470    -1494597.895 2  -1164618.981 1
  23114844.828    -2715134.325 2  -2115685.075 1
 91  5  2 19 41 30.0000000  0  5 19 16 18 11 02
  20939178.100      298095.349 3    232282.133 2
  24065324.824    -1492058.829 2  -1162643.368 1
  21270689.816     1933970.808 4   1506988.237 3
  23514336.258    -1511970.058 2  -1178155.699 1
  23107715.455    -2752599.781 2  -2144878.887 2
 91  5  2 19 41 45.0000000  0  5 19 16 18 11 02
  20940743.332      306320.368 3    238691.236 2
  24062099.954    -1508977.806 2  -1175826.993 1
  21277350.302     1968966.438 3   1534257.540 2
  23511062.231    -1529176.262 2  -1191563.052 1
  23100606.184    -2789961.969 2  -2173992.233 2
 91  5  2 19 42  0.0000000  0  5 19 16 18 11 02
  20942327.428      314635.135 3    245170.260 2
  24058912.567    -1525727.424 2  -1188878.660 1
  21284039.861     2004108.305 4   1561640.775 2
  23507821.481    -1546215.772 2  -1204840.564 1
  23093516.387    -2827220.432 3  -2203024.759 1
 91  5  2 19 42 15.0000000  0  5 19 16 18 11 02
  20943925.921      323038.604 3    251718.407 3
  24055753.048    -1542308.759 2  -1201799.143 1
  21290750.726     2039395.140 3   1589136.986 2
  23504606.505    -1563089.465 2  -1217988.872 1
  23086443.988    -2864376.155 3  -2231977.223 1
 91  5  2 19 42 30.0000000  0  5 19 16 18 11 02
  20945540.607      331527.890 3    258333.426 2
  24052630.105    -1558724.795 2  -1214590.922 1
  21297493.054     2074823.604 3   1616743.552 2
  23501428.698    -1579799.962 2  -1231010.001 1
  23079395.863    -2901432.030 2  -2260851.898 1
 91  5  2 19 42 45.0000000  0  5 19 16 18 11 02
  20947172.970      340103.348 3    265015.597 3
  24049539.252    -1574974.816 2  -1227253.231 1
  21304261.470     2110394.352 3   1644460.991 2
  23498279.981    -1596346.664 2  -1243903.492 1
  23072363.931    -2938387.399 2  -2289648.241 1
 91  5  2 19 43  0.0000000  0  5 19 16 18 11 02
  20948824.825      348766.221 3    271765.876 2
  24046477.175    -1591057.295 2  -1239785.067 1
  21311058.068     2146108.342 3   1672290.044 3
  23495160.632    -1612728.010 2  -1256668.160 1
  23065351.195    -2975240.966 2  -2318365.270 1
 91  5  2 19 43 15.0000000  0  6 19 16 18 11 06 02
  20950485.684      357511.910 3    278580.684 3
  24043444.764    -1606976.965 2  -1252190.004 1
  21317879.532     2181961.016 3   1700227.164 2
  23492074.282    -1628948.251 2  -1269307.232 1
  24519462.727      145497.04912    113374.073 1
  23058354.338    -3011997.073 2  -2347006.350 1
 91  5  2 19 43 30.0000000  0  5 19 16 18 11 02
  20952162.127      366340.410 3    285460.029 3
  24040450.446    -1622733.391 2  -1264467.734 1
  21324729.196     2217952.163 4   1728272.176 2
  23489014.893    -1645007.178 2  -1281820.637 1
  23051382.068    -3048655.586 2  -2375571.392 2
 91  5  2 19 43 45.0000000  0  5 19 16 18 11 02
  20953858.951      375250.778 3    292403.165 3
  24037483.996    -1638327.441 2  -1276618.959 1
  21331607.043     2254080.554 4   1756424.146 2
  23485996.284    -1660905.586 2  -1294208.983 1
  23044422.381    -3085217.531 2  -2404061.167 2
 91  5  2 19 44  0.0000000  0  5 19 16 18 11 02
  20955571.952      384240.718 3    299408.306 3
  24034548.137    -1653761.656 2  -1288645.602 1
  21338505.253     2290343.581 4   1784681.019 2
  23482999.262    -1676645.429 2  -1306473.773 1
  23037481.591    -3121685.062 2  -2432477.373 1
 91  5  2 19 44 15.0000000  0  6 19 16 18 11 06 02
  20957297.569      393307.708 3    306473.494 2
  24031627.843    -1669038.457 2  -1300549.595 1
  21345432.257     2326738.873 4   1813040.958 2
  23480034.906    -1692228.869 2  -1318616.709 1
  24497604.270      122609.607 2     95539.536 1
  23030560.277    -3158060.335 2  -2460821.716 1
 91  5  2 19 44 30.0000000  0  5 19 16 18 11 02
  20959038.455      402448.711 3    313596.330 3
  24028759.132    -1684160.406 2  -1312332.964 1
  21352381.457     2363263.395 4   1841501.587 2
  23477099.936    -1707658.637 2  -1330639.849 1
  23023649.764    -3194346.265 2  -2489096.425 1
 91  5  2 19 44 45.0000000  0  6 19 16 18 11 06 02
  20960787.455      411664.989 3    320777.844 2
  24025911.710    -1699125.913 2  -1323994.397 1
  21359356.728     2399918.010 4   1870063.598 3
  23474191.351    -1722933.271 2  -1342542.143 1
  24486731.982      134117.43012    104506.855 1
  23016767.415    -3230541.586 2  -2517300.505 1
 91  5  2 19 45  0.0000000  0  6 19 16 18 11 06 02
  20962557.117      420954.220 3    328016.199 2
  24023089.765    -1713937.402 2  -1335535.790 1
  21366354.789     2436700.198 3   1898725.016 3
  23471318.749    -1738054.787 2  -1354325.100 1
  24481306.046      139841.37812    108966.838
  23009895.275    -3266648.540 2  -2545435.776 1
 91  5  2 19 45 15.0000000  0  6 19 16 18 11 06 02
  20964338.487      430314.664 3    335310.045 3
  24020305.286    -1728596.606 2  -1346958.476 1
  21373378.013     2473608.197 3   1927484.453 2
  23468464.713    -1753024.688 2  -1365989.918 1
  24475879.203      111374.388 2     86784.803 1
  23003039.922    -3302668.710 2  -2573503.427 1
 91  5  2 19 45 30.0000000  0  6 19 16 18 11 06 02
  20966134.848      439745.408 3    342658.673 2
  24017546.896    -1743103.972 2  -1358262.982 1
  21380427.046     2510640.942 3   1956341.108 2
  23465643.973    -1767843.647 2  -1377537.116 1
  24470466.756       82947.475 2     64634.014 1
  22996204.061    -3338602.767 3  -2601503.944 1
 91  5  2 19 45 45.0000000  0  6 19 16 18 11 06 02
  20967942.900      449247.444 3    350062.847 2
  24014808.590    -1757458.513 2  -1369448.333 1
  21387495.850     2547799.514 3   1985295.815 2
  23462855.603    -1782510.357 2  -1388965.718 1
  24465063.889       54561.616 2     42515.139 1
  22989378.984    -3374449.507 3  -2629436.426 1
 91  5  2 19 46  0.0000000  0  6 19 16 18 11 06 02
  20969767.425      458821.063 3    357522.805 3
  24012109.268    -1771659.910 2  -1380514.268 1
  21394594.022     2585083.872 3   2014348.522 2
  23460089.412    -1797024.359 2  -1400275.323 1
  24459679.625       26216.975 2     20428.461 1
  22982574.900    -3410208.843 3  -2657300.793 2
 91  5  2 19 46 15.0000000  0  6 19 16 18 11 06 02
  20971599.767      468465.227 3    365037.732 3
  24009436.314    -1785709.180 2  -1391461.833 1
  21401710.797     2622493.117 3   2043498.556 2
  23457361.000    -1811386.398 2  -1411466.485 1
  24454302.235       -2087.430 2     -1626.914 1
  22975788.493    -3445881.535 3  -2685097.646 1
 91  5  2 19 46 30.0000000  0  6 19 16 18 11 06 02
  20973446.785      478179.527 3    372607.312 2
  24006794.246    -1799606.290 2  -1402290.701 1
  21408852.752     2660026.452 3   2072745.277 2
  23454655.082    -1825596.553 2  -1422539.298 1
  24448914.376      -30351.978 2    -23651.105 1
  22969017.686    -3481467.669 2  -2712827.053 1
 91  5  2 19 46 45.0000000  0  6 19 16 18 11 06 02
  20975309.701      487965.584 3    380232.801 2
  24004179.750    -1813349.770 2  -1412999.884 1
  21416020.796     2697685.238 3   2102089.759 2
  23451982.738    -1839652.944 2  -1433492.316 1
  24443548.382      -58575.251 2    -45643.286 1
  22962265.150    -3516965.603 3  -2740487.741 1
 91  5  2 19 47  0.0000000  0  6 19 16 18 11 06 02
  20977188.793      497820.752 3    387912.150 2
  24001589.544    -1826942.535 2  -1423591.651 1
  21423209.518     2735466.688 3   2131529.818 2
  23449333.167    -1853558.113 2  -1444327.433 1
  24438178.496      -86760.054 2    -67605.428 1
  22955527.028    -3552378.048 3  -2768081.819 1
 91  5  2 19 47 15.0000000  0  6 19 16 18 11 06 02
  20979074.795      507747.967 3    395647.636 2
  23999037.118    -1840381.201 2  -1434063.317 1
  21430424.031     2773373.743 3   2161067.749 2
  23446717.467    -1867308.932 2  -1455042.374 1
  24432829.010     -114903.490 2    -89535.341 1
  22948804.471    -3587702.026 3  -2795606.982 1
 91  5  2 19 47 30.0000000  0  6 19 16 18 11 06 02
  20980979.067      517750.068 3    403441.481 3
  23996502.666    -1853662.737 2  -1444412.574 1
  21437660.409     2811408.976 3   2190705.567 2
  23444131.467    -1880902.289 2  -1465634.579 1
  24427478.302     -143002.809 2   -111430.797 1
  22942100.813    -3622934.484 3  -2823060.828 2
 91  5  2 19 47 45.0000000  0  6 19 16 18 11 06 02
  20982888.453      527823.678 3    411291.045 2
  23994006.901    -1866790.536 2  -1454641.993 1
  21444921.096     2849568.879 3   2220440.512 2
  23441574.835    -1894341.303 2  -1476106.488 1
  24422138.710     -171061.458 2   -133294.738 1
  22935411.237    -3658078.683 3  -2850445.869 2
 91  5  2 19 48  0.0000000  0  6 19 16 18 11 06 02
  20984824.205      537967.264 3    419195.129 3
  23991535.409    -1879765.871 2  -1464752.649 1
  21452208.150     2887851.841 3   2250271.360 2
  23439042.495    -1907626.962 2  -1486458.897 1
  24416805.696     -199080.813 2   -155127.944 1
  22928737.872    -3693135.856 3  -2877763.083 2
 91  5  2 19 48 15.0000000  0  6 19 16 18 11 06 02
  20986766.257      548181.382 3    427154.171 2
  23989096.601    -1892587.948 2  -1474743.867 1
  21459517.086     2926258.349 3   2280198.473 2
  23436545.822    -1920758.465 2  -1496691.224 1
  24411487.987     -227060.313 2   -176930.088 1
  22922082.778    -3728105.339 3  -2905011.985 2
 91  5  2 19 48 30.0000000  0  6 19 16 18 11 06 02
  20988724.207      558464.076 3    435166.663 2
  23986687.756    -1905258.783 2  -1484617.285 1
  21466847.312     2964786.199 3   2310220.145 2
  23434079.426    -1933737.673 2  -1506804.868 1
  24406170.260     -255002.117 2   -198702.980 1
  22915447.769    -3762989.086 3  -2932194.067 2
 91  5  2 19 48 45.0000000  0  6 19 16 18 11 06 02
  20990694.144      568815.238 3    443232.498 2
  23984304.719    -1917778.367 2  -1494372.811 1
  21474201.218     3003435.125 3   2340336.169 2
  23431633.411    -1946564.558 2  -1516799.822 1
  24400856.441     -282906.360 2   -220446.407 1
  22908824.748    -3797786.938 3  -2959309.221 2
 91  5  2 19 49  0.0000000  0  6 19 16 18 11 06 02
  20992678.775      579235.885 3    451352.481 3
  23981954.646    -1930145.650 2  -1504009.674 1
  21481580.618     3042206.004 3   2370547.211 2
  23429223.990    -1959237.788 2  -1526675.034 1
  24395555.816     -310772.121 2   -242159.941 1
  22902215.827    -3832497.817 3  -2986356.653 1
 91  5  2 19 49 15.0000000  0  6 19 16 18 11 06 02
  20994670.892      589724.575 3    459525.478 3
  23979628.253    -1942361.932 2  -1513528.841 1
  21488981.587     3081097.381 3   2400852.141 2
  23426841.843    -1971758.611 2  -1536431.500 1
  24390251.874     -338600.887 2   -263844.646 1
  22895629.382    -3867122.997 3  -3013337.294 1
 91  5  2 19 49 30.0000000  0  6 19 16 18 11 06 02
  20996681.593      600282.545 3    467752.469 2
  23977331.543    -1954425.949 2  -1522929.392 1
  21496404.142     3120110.172 3   2431251.686 2
  23424485.471    -1984125.544 2  -1546068.046 1
  24384973.131     -366391.526 2   -285499.570 1
  22889054.035    -3901661.417 3  -3040250.319 1
 91  5  2 19 49 45.0000000  0  6 19 16 18 11 06 02
  20998701.910      610909.456 3    476033.174 2
  23975067.813    -1966337.917 2  -1532211.457 1
  21503852.191     3159243.576 3   2461745.220 2
  23422162.672    -1996338.830 2  -1555584.814 1
  24379690.200     -394144.653 2   -307125.484 1
  22882498.774    -3936113.369 3  -3067095.962 1
 91  5  2 19 50  0.0000000  0  6 19 16 18 11 06 02
  21000738.996      621605.107 3    484367.434 3
  23972825.059    -1978097.750 2  -1541374.944 1
  21511321.530     3198497.582 3   2492332.733 2
  23419868.056    -2008398.288 2  -1564981.789 1
  24374415.051     -421860.113 2   -328721.847 1
  22875963.004    -3970478.578 3  -3093873.995 2
 91  5  2 19 50 15.0000000  0  6 19 16 18 11 06 02
  21002787.774      632371.618 3    492756.914 3
  23970619.194    -1989703.225 2  -1550418.176 1
  21518813.031     3237874.498 3   2523016.005 2
  23417602.826    -2020301.285 2  -1574256.808 1
  24369147.686     -449535.720 2   -350287.201 1
  22869438.909    -4004754.717 2  -3120582.624 2
 91  5  2 19 50 30.0000000  0  6 19 16 18 11 06 02
  21004849.447      643205.057 3    501198.548 2
  23968436.399    -2001158.169 2  -1559344.070 1
  21526329.730     3277369.817 3   2553791.553 2
  23415367.871    -2032051.831 2  -1583413.064 1
  24363893.826     -477175.775 2   -371824.809 1
  22862933.415    -4038945.938 3  -3147225.076 1
 91  5  2 19 50 45.0000000  0  6 19 16 18 11 06 02
  21006922.515      654107.695 3    509694.110 2
  23966285.991    -2012460.380 2  -1568151.004 1
  21533870.108     3316985.447 3   2584660.840 2
  23413160.506    -2043647.406 2  -1592448.565 1
  24358638.763     -504778.164 2   -393333.127 1
  22856441.114    -4073049.700 3  -3173799.384 1
 91  5  2 19 51  0.0000000  0  6 19 16 18 11 06 02
  21009010.259      665076.252 3    518241.029 2
  23964165.545    -2023613.053 2  -1576841.389 1
  21541429.386     3356718.143 3   2615621.343 2
  23410989.717    -2055091.038 2  -1601365.652 1
  24353387.905     -532346.047 2   -414814.539 1
  22849965.007    -4107069.220 3  -3200308.066 1
 91  5  2 19 51 15.0000000  0  6 19 16 18 11 06 02
  21011110.306      676111.065 3    526839.582 2
  23962074.800    -2034615.866 2  -1585415.012 1
  21549013.826     3396568.352 3   2646673.417 2
  23408833.009    -2066382.050 2  -1610163.801 1
  24348150.833     -559879.164 2   -436268.881 1
  22843513.766    -4141004.075 3  -3226750.810 2
 91  5  2 19 51 30.0000000  0  6 19 16 18 11 06 02
  21013226.250      687213.614 3    535490.902 2
  23960007.734    -2045466.980 2  -1593870.399 1
  21556619.556     3436537.166 3   2677817.918 2
  23406720.364    -2077518.730 2  -1618841.722 1
  24342923.952     -587376.098 2   -457694.945 1
  22837069.418    -4174852.514 3  -3253126.181 1
 91  5  2 19 51 45.0000000  0  6 19 16 18 11 06 02
  21015349.068      698386.132 3    544196.766 2
  23957974.539    -2056164.315 2  -1602205.965 1
  21564249.576     3476626.554 3   2709056.377 2
  23404624.523    -2088498.786 2  -1627397.537 1
  24337692.272     -614834.766 2   -479091.285 1
  22830646.673    -4208612.409 2  -3279432.576 1
 91  5  2 19 52  0.0000000  0  6 19 16 18 11 06 02
  21017491.990      709628.608 3    552957.131 2
  23955971.324    -2066707.895 2  -1610421.710 1
  21571899.682     3516836.363 3   2740388.664 2
  23402562.239    -2099322.149 2  -1635831.329 1
  24332475.582     -642255.210 2   -500457.830 1
  22824239.512    -4242283.708 2  -3305669.895 2
 91  5  2 19 52 15.0000000  0  6 19 16 18 11 06 02
  21019642.712      720940.886 3    561771.894 2
  23953987.008    -2077097.808 2  -1618517.748 1
  21579576.469     3557166.234 3   2771814.501 2
  23400537.141    -2109988.608 2  -1644142.816 1
  24327263.987     -669637.692 2   -521794.783 1
  22817847.933    -4275866.379 2  -3331838.140 2
 91  5  2 19 52 30.0000000  0  6 19 16 18 11 06 02
  21021807.499      732325.461 3    570642.989 2
  23952041.047    -2087331.224 2  -1626491.878 1
  21587272.137     3597618.660 3   2803335.837 2
  23398535.130    -2120495.357 2  -1652329.860 1
  24322062.287     -696979.681 2   -543100.176
  22811472.549    -4309357.692 2  -3357935.234 2
 91  5  2 19 52 45.0000000  0  6 19 16 18 11 06 02
  21023987.903      743781.169 3    579569.512 2
  23950125.065    -2097409.316 2  -1634344.916 1
  21594995.394     3638192.098 3   2834951.483 2
  23396565.803    -2130843.449 2  -1660393.315 1
  24316862.680     -724282.455 2   -564374.955 1
  22805117.249    -4342758.902 3  -3383962.093 2
 91  5  2 19 53  0.0010000  0  6 19 16 18 11 06 02
  21026183.284      755308.899 3    588552.154 2
  23948237.286    -2107332.479 2  -1642077.231 1
  21602736.628     3678889.537 3   2866663.742 2
  23394629.128    -2141033.123 2  -1668333.285 1
  24311681.365     -751547.660 2   -585620.618 1
  22798780.241    -4376071.817 3  -3409920.167 2
 91  5  2 19 53 15.0010000  0  6 19 16 18 11 06 02
  21028390.056      766907.753 3    597590.216 2
  23946382.171    -2117098.914 2  -1649687.449 1
  21610506.652     3719705.750 3   2898468.551 2
  23392722.762    -2151062.220 2  -1676148.151 1
  24306497.062     -778771.234 2   -606833.759 1
  22792458.812    -4409291.447 3  -3435805.579 1
 91  5  2 19 53 30.0010000  0  6 19 16 18 11 06 02
  21030610.910      778574.465 3    606681.155 2
  23944545.030    -2126713.271 2  -1657179.197 1
  21618293.166     3760639.178 3   2930364.691 2
  23390845.153    -2160935.404 2  -1683841.491 1
  24301318.745     -805959.183 2   -628019.154 1
  22786151.780    -4442423.869 3  -3461623.005 1
 91  5  2 19 53 45.0010000  0  6 19 16 18 11 06 02
  21032844.067      790308.296 3    615824.390 2
  23942743.888    -2136176.036 2  -1664552.794 1
  21626103.953     3801689.085 3   2962351.587 2
  23388992.429    -2170652.971 2  -1691413.584 1
  24296155.714     -833112.084 2   -649177.125 1
  22779866.630    -4475469.509 2  -3487372.824 1
 91  5  2 19 54  0.0010000  0  6 19 16 18 11 06 02
  21035088.304      802106.091 3    625017.473 2
  23940973.005    -2145489.942 2  -1671810.398 1
  21633938.734     3842852.264 3   2994426.761 2
  23387176.594    -2180217.809 2  -1698866.711 1
  24290998.686     -860233.138 2   -670310.374 1
  22773588.967    -4508431.567 2  -3513057.500 1
 91  5  2 19 54 15.0010000  0  6 19 16 18 11 06 02
  21037344.548      813967.499 3    634260.125 2
  23939227.320    -2154655.676 2  -1678952.549 1
  21641793.304     3884127.768 3   3026589.461 2
  23385384.143    -2189630.332 2  -1706201.102 1
  24285841.658     -887322.884 2   -691419.236 1
  22767332.907    -4541310.461 3  -3538677.365 2
 91  5  2 19 54 30.0010000  0  6 19 16 18 11 06 02
  21039617.578      825890.646 3    643550.881 2
  23937520.602    -2163674.803 2  -1685980.433 1
  21649668.552     3925513.988 3   3058838.436 2
  23383616.854    -2198892.013 2  -1713417.987 1
  24280686.724     -914383.086 2   -712505.035 1
  22761094.524    -4574107.767 3  -3564233.681 2
 91  5  2 19 54 45.0010000  0  6 19 16 18 11 06 02
  21041899.002      837877.823 3    652891.532 2
  23935827.372    -2172545.294 2  -1692892.537 1
  21657566.277     3967012.771 3   3091175.103 2
  23381880.156    -2208000.482 2  -1720515.436 1
  24275546.187     -941411.667 2   -733566.197 1
  22754869.630    -4606821.260 3  -3589724.660 2
 91  5  2 19 55  0.0010000  0  6 19 16 18 11 06 02
  21044191.507      849928.140 3    662281.389 2
  23934167.123    -2181268.035 2  -1699689.479 1
  21665487.088     4008622.833 3   3123598.489 2
  23380184.536    -2216956.556 2  -1727494.180 1
  24270421.232     -968409.725 2   -754603.714 1
  22748658.225    -4639451.786 3  -3615150.998 2
 91  5  2 19 55 15.0010000  0  6 19 16 18 11 06 02
  21046493.610      862039.599 3    671718.882 2
  23932536.558    -2189844.787 2  -1706372.650 1
  21673423.499     4050342.404 3   3156107.213 2
  23378503.906    -2225761.825 2  -1734355.333 1
  24265278.304     -995379.245 2   -775618.809 1
  22742460.919    -4672001.083 3  -3640514.053 1
 91  5  2 19 55 30.0010000  0  6 19 16 18 11 06 02
  21048813.110      874211.412 3    681203.413 2
  23930929.358    -2198276.041 2  -1712942.468 1
  21681381.200     4092170.518 3   3188700.499 2
  23376861.631    -2234416.838 2  -1741099.479 1
  24260145.549    -1022320.869 2   -796612.188 1
  22736283.403    -4704469.801 3  -3665814.322 2
 91  5  2 19 55 45.0010000  0  6 19 16 18 11 06 02
  21051137.409      886443.789 3    690735.127 2
  23929353.359    -2206561.969 2  -1719399.014 1
  21689363.173     4134106.921 3   3221378.182 2
  23375234.660    -2242921.451 2  -1747726.420 1
  24255024.190    -1049234.685 2   -817584.063 1
  22730122.970    -4736857.859 3  -3691051.710 2
 91  5  2 19 56  0.0010000  0  6 19 16 18 11 06 02
  21053474.587      898732.426 3    700310.674 2
  23927803.134    -2214706.615 2  -1725745.495 1
  21697363.121     4176147.516 3   3254137.052 2
  23373649.063    -2251279.431 2  -1754239.100 1
  24249919.635    -1076124.782 2   -838537.360 1
  22723975.712    -4769169.055 3  -3716229.243 2
 91  5  2 19 56 15.0010000  0  6 19 16 18 11 06 02
  21055825.253      911080.214 3    709932.322 2
  23926279.887    -2222706.977 2  -1731979.561 1
  21705385.580     4218294.825 3   3286979.066 2
  23372085.349    -2259487.895 2  -1760635.265 1
  24244804.871    -1102988.512 2   -859470.010 1
  22717844.072    -4801400.661 3  -3741344.748 2
 91  5  2 19 56 30.0010000  0  6 19 16 18 11 06 02
  21058187.629      923487.119 3    719600.038 2
  23924786.619    -2230563.360 2  -1738101.405 1
  21713424.214     4260548.224 3   3319903.762 2
  23370555.803    -2267546.783 2  -1766914.906 1
  24239699.705    -1129826.084 2   -880382.632 1
  22711723.495    -4833552.752 3  -3766398.272 2
 91  5  2 19 56 45.0010000  0  6 19 16 18 11 06 02
  21060558.974      935950.833 3    729312.015 2
  23923315.234    -2238277.768 2  -1744112.582 1
  21721483.528     4302905.608 3   3352909.477 2
  23369049.343    -2275458.249 2  -1773079.637 1
  24234593.335    -1156639.838 2   -901276.704 1
  22705620.630    -4865627.449 3  -3791391.503 2
 91  5  2 19 57  0.0010000  0  6 19 16 18 11 06 02
  21062945.029      948469.837 3    739067.079 2
  23921873.236    -2245851.570 2  -1750014.246 1
  21729563.833     4345365.239 3   3385994.870 2
  23367569.268    -2283223.618 2  -1779130.514 1
  24229484.278    -1183431.265 2   -922152.996 1
  22699530.051    -4897626.209 3  -3816325.554 2
 91  5  2 19 57 15.0010000  0  5 19 16 18 11 02
  21065332.882      961046.280 3    748866.900 2
  23920463.014    -2253282.736 2  -1755804.733 1
  21737661.537     4387929.197 3   3419161.554 2
  23366122.767    -2290840.358 2  -1785065.615 1
  22693455.647    -4929546.694 3  -3841198.587 2
 91  5  2 19 57 30.0010000  0  5 19 16 18 11 02
  21067736.318      973680.598 3    758711.818 2
  23919075.268    -2260570.747 2  -1761483.661 1
  21745783.514     4430597.576 3   3452409.589 2
  23364701.447    -2298307.943 2  -1790884.504 1
  22687395.641    -4961388.582 3  -3866010.403 2
 91  5  2 19 57 45.0010000  0  5 19 16 18 11 02
  21070153.243      986373.339 3    768602.260 2
  23917718.705    -2267715.085 2  -1767050.743 1
  21753923.168     4473370.533 3   3485739.132 2
  23363306.511    -2305625.684 2  -1796586.578 1
  22681350.623    -4993151.178 3  -3890760.440 2
 91  5  2 19 58  0.0010000  0  5 19 16 18 11 02
  21072581.860      999124.083 3    778537.897 2
  23916381.635    -2274715.969 2  -1772506.004 1
  21762082.628     4516247.771 3   3519149.928 2
  23361944.557    -2312793.660 2  -1802171.973 1
  22675324.801    -5024834.738 3  -3915448.892 2
 91  5  2 19 58 15.0010000  0  5 19 16 18 11 02
  21075016.462     1011936.140 3    788521.307 2
  23915078.732    -2281570.242 2  -1777847.017 1
  21770265.158     4559232.276 3   3552644.309 2
  23360608.690    -2319808.433 2  -1807638.011 1
  22669313.358    -5056435.910 3  -3940073.174 2
 91  5  2 19 58 30.0010000  0  5 19 16 18 11 02
  21077473.260     1024808.297 3    798551.556 2
  23913800.712    -2288278.860 2  -1783074.464 1
  21778463.584     4602322.561 3   3586221.114 2
  23359304.583    -2326671.067 2  -1812985.471 1
  22663312.717    -5087955.637 3  -3964633.981 1
 91  5  2 19 58 45.0010000  0  5 19 16 18 11 02
  21079929.762     1037741.997 3    808629.759 2
  23912552.987    -2294840.445 2  -1788187.399 1
  21786682.392     4645520.018 3   3619881.426 2
  23358026.878    -2333379.854 2  -1818213.035 1
  22657329.456    -5119392.419 3  -3989130.132 2
 91  5  2 19 59  0.0010000  0  5 19 16 18 11 02
  21082402.458     1050736.928 3    818755.676 2
  23911334.020    -2301255.018 2  -1793185.804
  21794922.786     4688824.228 3   3653624.912 2
  23356782.433    -2339934.977 2  -1823320.920 1
  22651362.389    -5150746.669 3  -4013561.956 2
 91  5  2 19 59 15.0010000  0  5 19 16 18 11 02
  21084886.532     1063792.995 3    828929.232 2
  23910139.064    -2307522.933 2  -1798069.839 1
  21803185.970     4732234.623 3   3687451.144 2
  23355561.982    -2346336.524 2  -1828309.086 1
  22645411.813    -5182018.448 3  -4037929.539 2
 91  5  2 19 59 30.0010000  0  5 19 16 18 11 02
  21087386.206     1076910.768 3    839150.869 2
  23908977.054    -2313643.771 2  -1802839.395 1
  21811465.645     4775751.830 3   3721360.620 2
  23354370.307    -2352583.708 2  -1833176.989 1
  22639480.117    -5213207.131 3  -4062232.343 2
 91  5  2 19 59 45.0010000  0  5 19 16 18 11 02
  21089886.473     1090088.615 3    849419.324 2
  23907842.039    -2319618.816 2  -1807495.272 1
  21819765.387     4819374.057 3   3755351.924 2
  23353213.707    -2358677.983 2  -1837925.766 1
  22633560.113    -5244314.063 3  -4086471.484 2
 91  5  2 20  0  0.0010000  0  5 19 16 18 11 02
  21092413.718     1103326.897 3    859734.861 2
  23906730.111    -2325448.039 2  -1812037.533 1
  21828087.623     4863101.272 3   3789425.031 2
  23352083.788    -2364618.876 2  -1842555.000 1
  22627654.506    -5275338.815 3  -4110646.571 2
 91  5  2 20  0 15.0010000  0  5 19 16 18 11 02
  21094937.979     1116629.119 3    870100.220 2
  23905649.070    -2331127.607 2  -1816463.169 1
  21836430.851     4906936.818 3   3823582.551 2
  23350982.051    -2370402.731 2  -1847061.871 1
  22621765.075    -5306277.731 3  -4134754.798 2
 91  5  2 20  0 30.0010000  0  6 19 16 18 11 06 02
  21097481.122     1129989.290 3    880510.743 2
  23904594.990    -2336663.538 2  -1820776.900 1
  21844789.959     4950874.210 3   3857819.437 2
  23349908.792    -2376035.260 2  -1851450.851 1
  24158645.712      140535.28312    109509.403 1
  22615893.635    -5337136.989 3  -4158800.926 1
 91  5  2 20  0 45.0010000  0  6 19 16 18 11 06 02
  21100036.846     1143406.756 3    890965.910 2
  23903567.905    -2342056.386 2  -1824979.093 1
  21853168.559     4994912.902 3   3892135.267 2
  23348866.718    -2381516.923 2  -1855722.218 1
  24153616.996      114140.009 2     88941.731 1
  22610038.092    -5367917.186 3  -4182785.459 2
 91  5  2 20  1  0.0010000  0  6 19 16 18 11 06 02
  21102600.666     1156881.997 3    901466.091 3
  23902569.595    -2347305.995 2  -1829069.714 1
  21861568.449     5039053.083 3   3926530.173 2
  23347848.620    -2386847.220 2  -1859875.676 1
  24148602.379       87768.410 2     68392.593 1
  22604193.334    -5398617.815 3  -4206707.960 2
 91  5  2 20  1 15.0010000  0  6 19 16 18 11 06 02
  21105174.992     1170414.720 3    912011.058 2
  23901597.077    -2352412.386 2  -1833048.705 1
  21869987.515     5083294.199 3   3961003.718 2
  23346872.193    -2392026.355 2  -1863911.324 1
  24143589.839       61420.160 2     47861.421 1
  22598365.677    -5429238.882 3  -4230568.478 2
 91  5  2 20  1 30.0010000  0  6 19 16 18 11 06 02
  21107768.199     1184005.766 3    922601.475 2
  23900657.819    -2357374.580 2  -1836915.375 1
  21878424.277     5127636.996 3   3995556.509 2
  23345907.772    -2397053.216 2  -1867828.308 1
  24138570.109       35096.235 2     27349.360 1
  22592555.993    -5459779.450 3  -4254366.272 2
 91  5  2 20  1 45.0010000  0  6 19 16 18 11 06 02
  21110358.108     1197655.908 3    933237.942 2
  23899736.552    -2362191.713 2  -1840668.965 1
  21886884.422     5172082.153 3   4030189.062 2
  23344982.299    -2401926.826 2  -1871625.913 1
  24133572.280        8797.216 2      6856.590 1
  22586760.113    -5490238.494 3  -4278100.553 2
 91  5  2 20  2  0.0010000  0  6 19 16 18 11 06 02
  21112967.195     1211367.814 3    943922.542 2
  23898848.267    -2366861.345 2  -1844307.644 1
  21895362.261     5216632.090 3   4064903.255 2
  23344084.119    -2406644.391 2  -1875301.915 1
  24128566.336      -17474.237 2    -13614.547 1
  22580982.206    -5520613.359 3  -4301769.234 2
 91  5  2 20  2 15.0010000  0  6 19 16 18 11 06 02
  21115589.474     1225140.428 3    954654.444 2
  23897989.960    -2371384.581 2  -1847832.265 1
  21903861.075     5261285.317 3   4099697.938 2
  23343215.028    -2411206.977 2  -1878857.117 1
  24123574.788      -43719.432 2    -34065.284 1
  22575215.101    -5550905.366 3  -4325373.361 2
 91  5  2 20  2 30.0010000  0  6 19 16 18 11 06 02
  21118222.555     1238971.571 3    965431.954 2
  23897149.942    -2375763.494 2  -1851244.429 1
  21912375.473     5306039.760 3   4134571.481 2
  23342375.603    -2415616.536 2  -1882293.126 1
  24118579.349      -69940.599 2    -54497.359 1
  22569462.392    -5581116.517 3  -4348914.465 2
 91  5  2 20  2 45.0010000  0  6 19 16 18 11 06 02
  21120865.530     1252862.001 3    976255.666 2
  23896348.907    -2379997.308 2  -1854543.498 1
  21920914.161     5350895.564 3   4169524.007 2
  23341568.269    -2419872.119 2  -1885609.121 1
  24113611.499      -96137.008 2    -74910.137 1
  22563730.659    -5611245.962 3  -4372391.918 2
 91  5  2 20  3  0.0010000  0  6 19 16 18 11 06 02
  21123517.195     1266808.326 3    987122.933 2
  23895568.550    -2384089.482 2  -1857732.155 1
  21929470.247     5395849.195 3   4204552.756 2
  23340788.506    -2423976.948 2  -1888807.688 1
  24108623.843     -122312.035 2    -95306.125 1
  22558008.523    -5641296.808 3  -4395808.116 2
 91  5  2 20  3 15.0010000  0  6 19 16 18 11 06 02
  21126180.849     1280810.331 3    998033.574 2
  23894819.064    -2388040.155 2  -1860810.375 1
  21938039.805     5440900.421 3   4239657.564 2
  23340034.534    -2427931.234 2  -1891888.942 1
  24103644.894     -148466.109 2   -115685.887 1
  22552310.364    -5671269.328 3  -4419163.292 2
 91  5  2 20  3 30.0010000  0  6 19 16 18 11 06 02
  21128858.899     1294863.623 3   1008984.183 2
  23894093.867    -2391853.737 2  -1863782.238 1
  21946629.465     5486044.767 3   4274834.927 2
  23339308.727    -2431739.159 2  -1894856.118 1
  24098665.335     -174603.526 2   -136052.636 1
  22546621.192    -5701167.937 3  -4442460.871 2
 91  5  2 20  3 45.0010000  0  6 19 16 18 11 06 02
  21131538.136     1308966.234 3   1019973.221 2
  23893388.146    -2395532.152 2  -1866648.582 1
  21955238.007     5531279.895 3   4310083.021 2
  23338610.213    -2435402.558 2  -1897710.671 1
  24093701.673     -200726.328 2   -156408.107 1
  22540944.636    -5730994.467 3  -4465702.285 2
 91  5  2 20  4  0.0010000  0  6 19 16 18 11 06 02
  21134236.568     1323114.938 3   1030998.188 2
  23892719.017    -2399078.482 2  -1869411.932 1
  21963861.834     5576602.340 3   4345399.182 2
  23337937.489    -2438924.365 2  -1900454.907 1
  24088732.322     -226837.753 2   -176754.558 1
  22535280.644    -5760752.007 3  -4488889.944 2
 91  5  2 20  4 15.0010000  0  6 19 16 18 11 06 02
  21136931.701     1337309.581 3   1042058.938 2
  23892062.767    -2402493.213 2  -1872072.802 1
  21972504.247     5622011.683 3   4380783.045 2
  23337298.026    -2442304.885 2  -1903089.083 1
  24083763.861     -252938.264 2   -197092.594 1
  22529628.955    -5790440.725 3  -4512023.950 2
 91  5  2 20  4 30.0010000  0  6 19 16 18 11 06 02
  21139643.936     1351547.011 3   1053153.031 2
  23891441.906    -2405779.229 2  -1874633.341 1
  21981159.258     5667504.623 3   4416232.033 2
  23336680.445    -2445546.902 2  -1905615.308 1
  24078795.401     -279030.866 2   -217424.445 1
  22523996.757    -5820063.556 3  -4535106.650 2
 91  5  2 20  4 45.0010000  0  6 19 16 18 11 06 02
  21142361.843     1365829.175 3   1064281.984 2
  23890839.611    -2408934.587 2  -1877092.010 1
  21989833.150     5713082.945 3   4451747.564 2
  23336087.766    -2448648.336 2  -1908031.973 1
  24073831.442     -305113.685 2   -237748.663 1
  22518371.156    -5849618.630 3  -4558136.532 2
 91  5  2 20  5  0.0010000  0  6 19 16 18 11 06 02
  21145086.363     1380154.844 3   1075444.853 2
  23890264.016    -2411960.862 2  -1879450.195 1
  21998523.237     5758744.942 3   4487328.303 2
  23335528.050    -2451610.517 2  -1910340.105 1
  24068869.874     -331188.105 2   -258066.331 1
  22512761.435    -5879107.191 3  -4581114.593 2
 91  5  2 20  5 15.0010000  0  6 19 16 18 11 06 02
  21147819.276     1394523.419 3   1086641.141 2
  23889712.100    -2414858.897 2  -1881708.336 1
  22007227.405     5804489.805 3   4522973.599 2
  23334988.717    -2454434.084 2  -1912540.267 1
  24063914.291     -357255.058 2   -278378.185 1
  22507165.516    -5908529.764 3  -4604041.234 2
 91  5  2 20  5 30.0010000  0  6 19 16 18 11 06 02
  21150566.569     1408935.242 3   1097871.133 2
  23889188.367    -2417627.891 2  -1883866.069 1
  22015948.082     5850317.751 3   4558683.629 2
  23334478.472    -2457118.383 2  -1914631.894 1
  24058954.538     -383314.037 2   -298683.825 1
  22501574.676    -5937886.038 3  -4626916.222 2
 91  5  2 20  5 45.0010000  0  6 19 16 18 11 06 02
  21153314.472     1423391.199 3   1109135.498 2
  23888683.515    -2420266.869 2  -1885922.456 1
  22024684.027     5896229.474 3   4594458.949 2
  23333994.613    -2459662.267 2  -1916614.107 1
  24054001.363     -409364.090 2   -318982.527 1
  22495999.750    -5967174.794 3  -4649738.586 1
 91  5  2 20  6  0.0010000  0  6 19 16 18 11 06 02
  21156074.346     1437893.728 3   1120436.171 2
  23888208.939    -2422773.512 2  -1887875.616 1
  22033438.575     5942227.240 3   4630301.311 2
  23333539.232    -2462063.179 2  -1918484.920 1
  24049043.390     -435402.970 2   -339272.510 1
  22490440.093    -5996393.582 3  -4672506.414 2
 91  5  2 20  6 15.0010000  0  6 19 16 18 11 06 02
  21158839.944     1452441.115 3   1131771.798 2
  23887757.449    -2425149.555 2  -1889727.087 1
  22042209.002     5988309.316 3   4666209.375 2
  23333112.015    -2464322.690 3  -1920245.595 1
  24044087.825     -461432.371 2   -359555.151 1
  22484893.036    -6025544.186 3  -4695221.120 2
 91  5  2 20  6 30.0010000  0  6 19 16 18 11 06 02
  21161617.809     1467032.086 3   1143141.382 2
  23887327.546    -2427396.227 2  -1891477.746 1
  22050992.918     6034474.029 3   4702181.832 2
  23332704.902    -2466441.915 2  -1921896.896 1
  24039136.744     -487453.546 2   -379831.308 1
  22479357.670    -6054627.540 3  -4717883.437 2
 91  5  2 20  6 45.0010000  0  6 19 16 18 11 06 02
  21164400.490     1481666.566 3   1154544.873 2
  23886926.417    -2429513.765 2  -1893127.766 1
  22059792.120     6080720.980 3   4738218.359 2
  23332326.860    -2468420.899 2  -1923438.930 1
  24034188.386     -513466.724 2   -400101.234 1
  22473837.293    -6083643.824 3  -4740493.493 2
 91  5  2 20  7  0.0010000  0  6 19 16 18 11 06 02
  21167199.052     1496346.380 3   1165983.683 2
  23886545.985    -2431500.251 2  -1894675.674 1
  22068608.424     6127051.905 3   4774320.327 2
  23331979.706    -2470257.816 2  -1924870.285 1
  24029239.103     -539470.168 2   -420363.611 1
  22468325.904    -6112591.341 3  -4763049.976 1
 91  5  2 20  7 15.0010000  0  6 19 16 18 11 06 02
  21169995.222     1511068.925 3   1177455.796 2
  23886190.734    -2433358.454 2  -1896123.682 1
  22077441.497     6173463.806 3   4810485.389 2
  23331656.528    -2471955.158 2  -1926192.855 1
  24024291.635     -565466.648 2   -440620.593 1
  22462831.301    -6141472.510 3  -4785554.753 2
 91  5  2 20  7 30.0010000  0  6 19 16 18 11 06 02
  21172808.476     1525832.775 3   1188960.087 2
  23885866.666    -2435089.586 2  -1897472.554 1
  22086289.578     6219954.936 3   4846712.203 2
  23331359.141    -2473514.257 2  -1927407.741 1
  24019348.651     -591457.657 2   -460873.218 1
  22457346.000    -6170288.758 3  -4808008.922 2
 91  5  2 20  7 45.0010000  0  6 19 16 18 11 06 02
  21175624.121     1540640.565 3   1200498.621 2
  23885562.665    -2436691.191 2  -1898720.563 1
  22095150.554     6266527.688 3   4883002.603 2
  23331088.715    -2474932.465 2  -1928512.802 1
  24014398.775     -617440.682 2   -481119.704 1
  22451877.782    -6199037.488 3  -4830410.466 2
 91  5  2 20  8  0.0010000  0  6 19 16 18 11 06 02
  21178454.460     1555496.809 3   1212074.910 2
  23885277.860    -2438158.900 2  -1899864.244 1
  22104031.895     6313186.586 3   4919360.129 2
  23330844.988    -2476204.973 2  -1929504.363 1
  24009459.403     -643411.240 2   -501356.428 1
  22446421.867    -6227713.870 3  -4852755.660 2
 91  5  2 20  8 15.0010000  0  6 19 16 18 11 06 02
  21181284.798     1570399.607 3   1223687.482 2
  23885027.834    -2439494.568 2  -1900905.019 1
  22112927.039     6359929.533 3   4955783.164 2
  23330627.349    -2477333.575 2  -1930383.760 1
  24004520.922     -669371.136 2   -521584.854 1
  22440977.940    -6256319.955 3  -4875046.072 2
 91  5  2 20  8 30.0010000  0  6 19 16 18 11 06 02
  21184135.535     1585351.672 3   1235338.435 2
  23884795.798    -2440695.553 2  -1901840.858 1
  22121836.579     6406758.658 3   4992273.340 2
  23330447.472    -2478315.557 3  -1931148.897 1
  23999585.128     -695317.903 2   -541803.032 1
  22435548.392    -6284853.009 3  -4897279.587 2
 91  5  2 20  8 45.0010000  0  6 19 16 18 11 06 02
  21186987.756     1600351.777 3   1247026.827 2
  23884593.742    -2441762.750 2  -1902672.475 1
  22130761.388     6453672.968 3   5028829.905 2
  23330281.677    -2479151.892 2  -1931800.588 1
  23994646.350     -721252.628 2   -562011.888 1
  22430133.834    -6313313.961 3  -4919456.920 2
 91  5  2 20  9  0.0010000  0  6 19 16 18 11 06 02
  21189851.668     1615397.119 3   1258750.464 2
  23884415.069    -2442699.309 2  -1903402.289 1
  22139705.707     6500669.169 3   5065450.269 2
  23330154.273    -2479845.470 2  -1932340.995 1
  23989715.669     -747178.410 2   -582213.736 1
  22424726.779    -6341705.674 3  -4941580.301 2
 91  5  2 20  9 15.0010000  0  6 19 16 18 11 06 02
  21192723.991     1630488.292 3   1270509.808 2
  23884258.872    -2443504.952 2  -1904030.056
  22148665.591     6547747.526 3   5102134.639 2
  23330052.033    -2480395.526 2  -1932769.609 1
  23984781.079     -773094.665 2   -602408.151 1
  22419335.918    -6370027.592 3  -4963649.295 2
 91  5  2 20  9 30.0010000  0  6 19 16 18 11 06 02
  21195610.083     1645632.092 3   1282310.181 2
  23884135.953    -2444172.725 2  -1904550.397 1
  22157641.093     6594914.554 3   5138888.115 2
  23329969.301    -2480795.347 2  -1933081.127 1
  23979852.788     -798994.790 2   -622590.009 1
  22413965.439    -6398272.971 3  -4985658.626 2
 91  5  2 20  9 45.0010000  0  6 19 16 18 11 06 02
  21198494.988     1660829.734 3   1294152.481 2
  23884035.527    -2444701.192 2  -1904962.193 1
  22166633.958     6642171.486 3   5175711.640 2
  23329924.035    -2481043.366 2  -1933274.370 1
  23974926.906     -824877.352 2   -642758.175 1
  22408603.650    -6426440.349 3  -5007607.185 2
 91  5  2 20 10  0.0010000  0  6 19 16 18 11 06 02
  21201398.180     1676083.175 3   1306038.275 2
  23883962.672    -2445088.556 2  -1905264.023 1
  22175642.720     6689520.106 3   5212606.623 2
  23329911.140    -2481137.536 2  -1933347.780 2
  23969998.615     -850740.532 2   -662911.224 1
  22403260.446    -6454527.706 3  -5029493.402 2
 91  5  2 20 10 15.0010000  0  6 19 16 18 11 06 02
  21204312.454     1691397.641 3   1317971.621 2
  23883911.718    -2445329.826 2  -1905452.056 1
  22184673.068     6736965.003 3   5249576.629 2
  23329919.830    -2481072.801 3  -1933297.286 1
  23965089.817     -876579.325 2   -683045.321 1
  22397931.638    -6482530.044 3  -5051313.373 2
 91  5  2 20 10 30.0010000  0  6 19 16 18 11 06 02
  21207241.735     1706774.620 3   1329953.689 2
  23883898.229    -2445423.559 2  -1905525.068 1
  22193719.017     6784507.517 3   5286622.687 2
  23329963.909    -2480847.444 2  -1933121.632 1
  23960176.219     -902392.169 2   -703159.195 1
  22392620.211    -6510445.741 3  -5073065.824 2
 91  5  2 20 10 45.0010000  0  6 19 16 18 11 06 02
  21210177.298     1722212.716 3   1341983.368 2
  23883909.920    -2445371.096 2  -1905484.146 1
  22202784.440     6832146.160 3   5323743.666 2
  23330035.856    -2480462.863 2  -1932821.951 1
  23955268.311     -928180.600 2   -723254.022 1
  22387322.883    -6538276.142 3  -5094751.821 2
 91  5  2 20 11  0.0010000  0  6 19 16 18 11 06 02
  21213132.352     1737712.990 3   1354061.488 2
  23883943.198    -2445171.456 2  -1905328.677 1
  22211866.353     6879881.734 3   5360940.149 2
  23330141.971    -2479917.957 2  -1932397.353 1
  23950366.701     -953943.629 2   -743329.079 1
  22382042.028    -6566020.087 3  -5116370.440 2
 91  5  2 20 11 15.0010000  0  6 19 16 18 11 06 02
  21216089.815     1753279.743 3   1366191.411 2
  23884012.440    -2444820.290 2  -1905055.030 1
  22220971.039     6927718.557 3   5398215.554 2
  23330276.285    -2479208.217 2  -1931844.311 1
  23945466.890     -979677.036 2   -763380.989 1
  22376780.683    -6593673.239 3  -5137918.293 2
 91  5  2 20 11 30.0010000  0  6 19 16 18 11 06 02
  21219067.346     1768912.056 3   1378372.441 2
  23884109.882    -2444318.731 2  -1904664.181 1
  22230094.327     6975655.191 3   5435568.723 2
  23330440.579    -2478334.470 2  -1931163.416 1
  23940576.379    -1005381.751 2   -783410.572 1
  22371533.106    -6621236.365 3  -5159396.016 2
 91  5  2 20 11 45.0010000  0  6 19 16 18 11 06 02
  21222049.379     1784608.938 3   1390603.780 2
  23884235.192    -2443667.828 2  -1904157.029 1
  22239232.901     7023690.231 3   5472998.570 2
  23330639.634    -2477297.613 2  -1930355.459 1
  23935693.965    -1031058.855 2   -803418.728 1
  22366306.835    -6648710.376 3  -5180804.299 2
 91  5  2 20 12  0.0010000  0  6 19 16 18 11 06 02
  21225054.498     1800372.280 3   1402886.891 2
  23884380.884    -2442865.248 2  -1903531.534 1
  22248393.358     7071825.468 3   5510506.491 2
  23330867.185    -2476095.721 2  -1929418.928 1
  23930810.644    -1056706.485 2   -823403.818 1
  22361096.130    -6676093.366 3  -5202141.653 2
 91  5  2 20 12 15.0010000  0  6 19 16 18 11 06 02
  21228060.822     1816198.986 3   1415219.385 2
  23884561.355    -2441914.445 2  -1902790.722 1
  22257573.010     7120057.508 3   5548089.839 2
  23331128.292    -2474731.845 3  -1928356.151 1
  23925934.215    -1082327.809 2   -843368.394 1
  22355901.934    -6703388.446 3  -5223410.510 2
 91  5  2 20 12 30.0010000  0  6 19 16 18 11 06 02
  21231089.324     1832090.762 3   1427602.587 2
  23884774.823    -2440814.209 2  -1901933.398 1
  22266767.635     7168388.049 3   5585749.947 2
  23331416.395    -2473204.084 2  -1927165.674 1
  23921067.681    -1107921.053 2   -863311.197 1
  22350726.007    -6730593.917 3  -5244609.539 2
 91  5  2 20 12 45.0010000  0  6 19 16 18 11 06 02
  21234124.127     1848046.798 3   1440035.854 2
  23885008.656    -2439564.889 2  -1900959.928 1
  22275984.456     7216816.047 3   5623485.988 2
  23331739.277    -2471513.400 2  -1925848.247 1
  23916196.366    -1133487.493 2   -883233.062 1
  22345562.697    -6757710.605 3  -5265739.374 2
 91  5  2 20 13  0.0010000  0  6 19 16 18 11 06 02
  21237172.418     1864065.452 3   1452517.908 2
  23885276.063    -2438168.192 2  -1899871.543 1
  22285219.565     7265339.613 3   5661296.521 2
  23332090.323    -2469661.128 2  -1924404.865 1
  23911337.021    -1159028.456 2   -903134.930 1
  22340422.439    -6784740.035 3  -5286801.240 2
 91  5  2 20 13 15.0010000  0  6 19 16 18 11 06 02
  21240233.291     1880143.512 3   1465046.263 2
  23885569.262    -2436627.409 2  -1898670.946 1
  22294469.664     7313955.123 3   5699178.658 2
  23332475.571    -2467650.521 2  -1922838.155 1
  23906483.086    -1184547.299 2   -923019.903 1
  22335294.204    -6811685.224 3  -5307797.451 2
 91  5  2 20 13 30.0010000  0  6 19 16 18 11 06 02
  21243302.575     1896279.637 3   1477619.861 2
  23885889.735    -2434944.087 2  -1897359.287 1
  22303734.438     7362660.859 3   5737131.139 2
  23332888.077    -2465482.789 2  -1921149.013 1
  23901633.042    -1210045.378 2   -942888.341 1
  22330183.628    -6838547.579 3  -5328729.119 2
 91  5  2 20 13 45.0010000  0  6 19 16 18 11 06 02
  21246384.126     1912474.356 3   1490239.115 2
  23886242.596    -2433117.803 2  -1895936.214 1
  22313024.707     7411457.236 3   5775154.228 2
  23333328.468    -2463157.412 2  -1919336.999 1
  23896784.202    -1235522.401 2   -962740.523 1
  22325086.856    -6865326.579 3  -5349595.848 2
 91  5  2 20 14  0.0010000  0  6 19 16 18 11 06 02
  21249478.887     1928727.002 3   1502903.516 2
  23886610.150    -2431149.338 2  -1894402.373 1
  22322326.371     7460343.249 3   5813247.189 2
  23333802.137    -2460675.121 2  -1917402.711 1
  23891940.162    -1260979.079 2   -982576.880 1
  22320002.386    -6892022.860 3  -5370398.092 2
 91  5  2 20 14 15.0010000  0  6 19 16 18 11 06 02
  21252582.339     1945040.105 3   1515615.013 2
  23887015.763    -2429036.275 2  -1892755.819 1
  22331645.415     7509321.203 3   5851411.775 2
  23334303.394    -2458033.301 2  -1915344.157 1
  23887098.808    -1286412.880 2  -1002395.388 1
  22314942.782    -6918633.991 3  -5391133.992 2
 91  5  2 20 14 30.0010000  0  6 19 16 18 11 06 02
  21255695.685     1961412.874 3   1528373.015 2
  23887444.462    -2426779.212 2  -1890997.037 1
  22340985.749     7558390.101 3   5889647.231 2
  23334839.430    -2455232.567 3  -1913161.751 1
  23882264.347    -1311824.791 2  -1022196.757 1
  22309894.574    -6945160.585 3  -5411804.019 2
 91  5  2 20 14 45.0010000  0  6 19 16 18 11 06 02
  21258824.927     1977847.161 3   1541178.946 2
  23887901.658    -2424376.858 2  -1889125.090 1
  22350343.777     7607551.549 3   5927954.799 2
  23335400.036    -2452271.078 2  -1910854.064 1
  23877431.998    -1337212.865 2  -1041979.704 1
  22304864.357    -6971600.762 3  -5432406.717 2
 91  5  2 20 15  0.0010000  0  6 19 16 18 11 06 02
  21261964.344     1994342.999 3   1554032.837 2
  23888385.517    -2421829.008 2  -1887139.773 1
  22359710.199     7656805.375 3   5966334.343 1
  23335996.327    -2449148.762 2  -1908421.071 1
  23872607.135    -1362577.258 2  -1061744.139 1
  22299847.629    -6997954.378 3  -5452941.977 2
 91  5  2 20 15 15.0010000  0  6 19 16 18 11 06 02
  21265110.670     2010900.133 3   1566934.495 2
  23888899.356    -2419135.920 2  -1885041.273 1
  22369102.098     7706151.048 3   6004785.473 2
  23336617.502    -2445865.858 2  -1905862.978 1
  23867785.884    -1387918.215 2  -1081490.279 1
  22294848.298    -7024221.717 3  -5473410.011 2
 91  5  2 20 15 30.0010000  0  6 19 16 18 11 06 02
  21268277.972     2027517.971 3   1579883.451 2
  23889436.893    -2416298.071 2  -1882829.964 1
  22378510.174     7755587.618 3   6043307.401 2
  23337272.845    -2442422.980 2  -1903180.193 1
  23862964.616    -1413236.574 2  -1101218.877 1
  22289867.849    -7050403.502 3  -5493811.367 2
 91  5  2 20 15 45.0010000  0  6 19 16 18 11 06 02
  21271447.682     2044193.160 3   1592877.099 2
  23890007.393    -2413319.111 2  -1880508.716 1
  22387932.053     7805111.826 3   6081897.638 2
  23337960.262    -2438823.229 2  -1900375.153 1
  23858150.555    -1438535.467 2  -1120932.205 1
  22284898.481    -7076502.822 3  -5514148.462 2
 91  5  2 20 16  0.0010000  0  6 19 16 18 11 06 02
  21274634.179     2060927.197 3   1605916.600 2
  23890603.074    -2410197.804 2  -1878076.546 1
  22397378.222     7854724.435 3   6120556.761 1
  23338672.580    -2435065.188 2  -1897446.810 1
  23853341.275    -1463813.643 2  -1140629.388 1
  22279948.604    -7102518.214 3  -5534420.146 2
 91  5  2 20 16 15.0010000  0  6 19 16 18 11 06 02
  21277828.162     2077719.012 3   1619001.126 2
  23891219.450    -2406934.708 2  -1875533.826 1
  22406836.362     7904424.415 3   6159283.963 1
  23339422.957    -2431149.741 2  -1894395.804 2
  23848537.404    -1489072.103 2  -1160311.403 1
  22275013.124    -7128450.830 3  -5554627.338 2
 91  5  2 20 16 30.0010000  0  6 19 16 18 11 06 02
  21281039.543     2094566.125 3   1632128.736 2
  23891870.605    -2403532.735 2  -1872883.038 1
  22416305.915     7954209.053 3   6198077.134 2
  23340191.918    -2427079.429 2  -1891224.119 1
  23843733.830    -1514313.345 2  -1179979.856 1
  22270096.840    -7154302.986 3  -5574771.846 2
 91  5  2 20 16 45.0010000  0  6 19 16 18 11 06 02
  21284247.015     2111463.052 3   1645295.167 2
  23892535.842    -2399997.560 2  -1870128.342 1
  22425796.146     8004072.477 3   6236931.706 2
  23341000.456    -2422859.715 3  -1887936.009 1
  23838933.555    -1539543.089 2  -1199639.343 1
  22265192.526    -7180080.201 3  -5594857.949 2
 91  5  2 20 17  0.0010000  0  6 19 16 18 11 06 02
  21287475.794     2128409.405 3   1658500.114 2
  23893243.955    -2396329.913 2  -1867270.451 1
  22435298.662     8054013.670 3   6275846.865 2
  23341831.488    -2418491.146 2  -1884531.918 1
  23834133.279    -1564761.895 2  -1219290.337 1
  22260301.108    -7205782.967 3  -5614886.052 2
 91  5  2 20 17 15.0010000  0  6 19 16 18 11 06 02
  21290706.650     2145405.155 3   1671743.556 2
  23893964.352    -2392529.516 2  -1864309.146 1
  22444819.780     8104032.537 3   6314822.563 2
  23342685.903    -2413973.725 2  -1881011.848 1
  23829333.300    -1589969.866 2  -1238932.797 1
  22255424.697    -7231411.357 3  -5634856.191 2
 91  5  2 20 17 30.0010000  0  6 19 16 18 11 06 02
  21293954.310     2162450.299 3   1685025.470 2
  23894709.040    -2388596.660 2  -1861244.577 1
  22454351.071     8154129.044 3   6353858.749 2
  23343577.469    -2409307.178 2  -1877375.571 1
  23824542.011    -1615166.773 2  -1258566.780 1
  22250561.164    -7256965.092 3  -5654768.166 2
 91  5  2 20 17 45.0010000  0  6 19 16 18 11 06 02
  21297204.954     2179546.451 3   1698347.143 2
  23895488.192    -2384529.850 2  -1858075.609 1
  22463901.261     8204304.519 3   6392956.467 2
  23344489.453    -2404490.004 2  -1873621.922 1
  23819747.128    -1640351.324 2  -1278191.016 1
  22245712.010    -7282442.603 3  -5674620.742 2
 91  5  2 20 18  0.0010000  0  6 19 16 18 11 06 02
  21300471.792     2196694.361 3   1711709.157 2
  23896285.039    -2380328.312 2  -1854801.742 1
  22473461.939     8254559.410 3   6432116.072 2
  23345442.182    -2399521.400 2  -1869750.287 1
  23814959.451    -1665522.694 2  -1297805.051 1
  22240879.364    -7307843.208 3  -5694413.381 2
 91  5  2 20 18 15.0010000  0  6 19 16 18 11 06 02
  21303743.428     2213895.932 3   1725112.967 2
  23897109.475    -2375990.448 2  -1851421.613 1
  22483043.906     8304895.273 3   6471338.775 2
  23346409.326    -2394399.358 2  -1865759.052 2
  23810170.570    -1690679.089 2  -1317407.436 1
  22236060.504    -7333164.736 3  -5714144.407 2
 91  5  2 20 18 30.0010000  0  6 19 16 18 11 06 02
  21307028.257     2231154.185 3   1738560.944 2
  23897963.279    -2371513.454 2  -1847933.081 1
  22492636.378     8355314.828 3   6510626.698 1
  23347413.324    -2389120.915 2  -1861645.986 1
  23805385.581    -1715817.743 2  -1336995.943 1
  22231257.227    -7358404.411 3  -5733811.639 2
 91  5  2 20 18 45.0010000  0  6 19 16 18 11 06 02
  21310322.370     2248472.420 3   1752055.675 2
  23898846.173    -2366893.555 2  -1844333.184 1
  22502247.713     8405821.084 3   6549982.171 2
  23348454.509    -2383682.762 2  -1857408.458 1
  23800608.078    -1740935.155 2  -1356567.947 2
  22226471.034    -7383558.895 3  -5753412.500 2
 91  5  2 20 19  0.0010000  0  6 19 16 18 11 06 02
  21313629.989     2265851.235 3   1765597.598 2
  23899744.946    -2362130.515 2  -1840621.732 1
  22511875.557     8456414.624 3   6589405.647 2
  23349516.965    -2378084.225 2  -1853045.957 1
  23795832.983    -1766030.838 2  -1376122.964 1
  22221697.736    -7408627.609 3  -5772946.533 2
 91  5  2 20 19 15.0010000  0  6 19 16 18 11 06 02
  21316948.078     2283293.241 3   1779188.779 2
  23900683.000    -2357221.824 2  -1836796.777 1
  22521519.874     8507097.468 3   6628898.714 2
  23350612.403    -2372322.699 3  -1848556.470 1
  23791058.498    -1791102.405 2  -1395659.160 1
  22216946.635    -7433607.899 3  -5792411.639 2
 91  5  2 20 19 30.0010000  0  6 19 16 18 11 06 02
  21320280.877     2300801.562 3   1792831.616 2
  23901645.938    -2352164.359 2  -1832855.861 1
  22531182.792     8557872.590 3   6668463.696 2
  23351742.932    -2366394.953 3  -1843937.442 1
  23786293.594    -1816146.558 2  -1415174.035 1
  22212209.599    -7458496.410 3  -5811805.261 2
 91  5  2 20 19 45.0010000  0  6 19 16 18 11 06 02
  21323624.461     2318376.617 3   1806526.442 2
  23902634.650    -2346958.113 2  -1828799.046 1
  22540862.480     8608740.206 3   6708100.729 2
  23352900.719    -2360300.598 2  -1839188.581 1
  23781532.285    -1841162.979 2  -1434667.324 1
  22207492.369    -7483292.863 3  -5831127.132 2
 91  5  2 20 20  0.0010000  0  6 19 16 18 11 06 02
  21326981.534     2336019.740 3   1820274.332 2
  23903654.545    -2341601.479 2  -1824625.052 1
  22550559.880     8659701.467 3   6747810.755 2
  23354089.097    -2354038.436 2  -1834308.996 1
  23776779.073    -1866150.630 2  -1454138.142 1
  22202789.535    -7507996.089 3  -5850376.383 2
 91  5  2 20 20 15.0010000  0  6 19 16 18 11 06 02
  21330350.299     2353729.448 3   1834074.092 2
  23904700.825    -2336096.174 2  -1820335.232 1
  22560275.254     8710754.465 3   6787592.252 1
  23355317.051    -2347609.977 2  -1829299.797 1
  23772024.970    -1891111.073 2  -1473587.807 1
  22198108.566    -7532607.396 3  -5869553.999 2
 91  5  2 20 20 30.0010000  0  6 19 16 18 11 06 02
  21333739.759     2371504.567 3   1847924.829 2
  23905777.067    -2330443.726 2  -1815930.692 1
  22570007.101     8761897.710 3   6827444.054 2
  23356571.390    -2341016.320 3  -1824161.885 1
  23767285.857    -1916045.381 2  -1493017.111 1
  22193442.605    -7557127.846 3  -5888660.804 2
 91  5  2 20 20 45.0010000  0  6 19 16 18 11 06 02
  21337128.016     2389342.401 3   1861824.428 2
  23906879.415    -2324646.991 2  -1811413.781 1
  22579756.956     8813128.435 3   6867364.059 1
  23357859.897    -2334260.174 3  -1818897.353 1
  23762544.040    -1940956.265 2  -1512428.148 1
  22188793.117    -7581560.165 3  -5907698.945 2
 91  5  2 20 21  0.0010000  0  6 19 16 18 11 06 02
  21340537.247     2407243.724 3   1875773.501 2
  23908013.522    -2318705.022 2  -1806783.702 1
  22589522.098     8864447.199 3   6907352.645 2
  23359178.976    -2327340.539 3  -1813505.430 1
  23757809.709    -1965842.999 2  -1531820.332 1
  22184160.433    -7605903.473 3  -5926667.706 2
 91  5  2 20 21 15.0010000  0  6 19 16 18 11 06 02
  21343953.092     2425208.527 3   1889772.051 2
  23909173.717    -2312617.871 2  -1802040.507 1
  22599301.026     8915853.779 3   6947409.678 2
  23360520.252    -2320257.438 2  -1807986.138 1
  23753073.597    -1990705.526 2  -1551193.744 1
  22179543.926    -7630157.601 3  -5945566.998 2
 91  5  2 20 21 30.0010000  0  6 19 16 18 11 06 02
  21347388.412     2443237.566 3   1903820.644 2
  23910353.701    -2306384.953 2  -1797183.682 1
  22609102.447     8967348.347 3   6987535.271 2
  23361903.200    -2313010.199 2  -1802338.922 1
  23748348.864    -2015543.409 2  -1570547.878 1
  22174948.097    -7654322.104 3  -5964396.455 2
 91  5  2 20 21 45.0010000  0  6 19 16 18 11 06 02
  21350828.827     2461334.758 3   1917922.340 2
  23911572.965    -2300002.648 2  -1792210.480 1
  22618917.653     9018934.772 3   7027732.419 2
  23363313.421    -2305595.000 2  -1796560.870 1
  23743634.932    -2040352.708 2  -1589879.712 1
  22170365.477    -7678392.997 3  -5983152.985 2
 91  5  2 20 22  0.0010000  0  6 19 16 18 11 06 02
  21354291.125     2479500.670 3   1932077.586 2
  23912814.095    -2293470.353 2  -1787120.358 1
  22628757.133     9070613.274 3   7068001.321 2
  23364753.326    -2298011.228 2  -1790651.413 2
  23738917.684    -2065132.980 2  -1609189.001 1
  22165803.240    -7702369.787 3  -6001836.186 2
 91  5  2 20 22 15.0010000  0  6 19 16 18 11 06 02
  21357755.237     2497737.650 3   1946288.201 2
  23914084.331    -2286786.378 2  -1781912.035 1
  22638605.914     9122385.848 3   7108343.536 2
  23366229.492    -2290256.676 2  -1784608.909 1
  23734207.958    -2089882.086 2  -1628473.939 1
  22161258.977    -7726250.252 3  -6020444.316 2
 91  5  2 20 22 30.0010000  0  6 19 16 18 11 06 02
  21361240.028     2516044.086 3   1960552.953 2
  23915385.419    -2279952.055 2  -1776586.622 1
  22648476.594     9174250.440 3   7148757.457 2
  23367744.346    -2282332.847 2  -1778434.505 1
  23729503.012    -2114601.405 2  -1647735.660 1
  22156730.907    -7750035.868 3  -6038978.532 2
 91  5  2 20 22 45.0010000  0  6 19 16 18 11 06 02
  21364733.806     2534416.863 3   1974869.386 2
  23916713.799    -2272970.573 2  -1771146.502 1
  22658362.247     9226203.993 3   7189240.678 2
  23369278.377    -2274242.863 2  -1772130.611 1
  23724806.461    -2139294.258 2  -1666976.868 1
  22152221.736    -7773729.684 3  -6057441.196 2
 91  5  2 20 23  0.0010000  0  6 19 16 18 11 06 02
  21368246.169     2552854.153 3   1989236.098 2
  23918065.563    -2265843.851 2  -1765593.281 1
  22668266.188     9278244.008 3   7229791.273 1
  23370850.502    -2265988.595 2  -1765698.730 1
  23720109.909    -2163962.613 2  -1686198.886 1
  22147734.447    -7797333.605 3  -6075833.805 2
 91  5  2 20 23 15.0010000  0  6 19 16 18 11 06 02
  21371762.143     2571341.771 3   2003642.019 2
  23919453.606    -2258586.299 2  -1759938.015 1
  22678184.822     9330356.258 3   7270398.164 1
  23372448.384    -2257584.197 2  -1759149.834 1
  23715418.750    -2188620.537 2  -1705412.790 1
  22143256.145    -7820861.570 3  -6094167.261 2
 91  5  2 20 23 30.0010000  0  6 19 16 18 11 06 02
  21375294.888     2589870.674 3   2018080.120 2
  23920856.027    -2251207.018 2  -1754187.917 1
  22688110.349     9382531.709 3   7311054.313 2
  23374074.761    -2249038.647 2  -1752490.986 1
  23710720.418    -2213277.164 2  -1724625.721 1
  22138790.443    -7844322.609 3  -6112448.560 2
 91  5  2 20 23 45.0010000  0  6 19 16 18 11 06 02
  21378824.351     2608462.007 3   2032566.870 2
  23922286.945    -2243685.264 2  -1748326.868 1
  22698056.868     9434790.996 3   7351775.761 2
  23375730.525    -2240330.911 2  -1745705.703 1
  23706034.651    -2237911.377 2  -1743821.169 1
  22134343.621    -7867695.736 3  -6130661.373 2
 91  5  2 20 24  0.0010000  0  6 19 16 18 11 06 02
  21382375.697     2627114.252 3   2047101.073 2
  23923747.843    -2236022.322 2  -1742355.786 1
  22708015.376     9487132.046 3   7392560.933 2
  23377418.345    -2231462.581 2  -1738795.318 1
  23701350.698    -2262525.003 2  -1763000.582 1
  22129909.975    -7890982.457 3  -6148806.846 2
 91  5  2 20 24 15.0010000  0  6 19 16 18 11 06 02
  21385936.624     2645832.748 3   2061686.903 2
  23925233.310    -2228212.978 2  -1736270.568
  22717992.154     9539560.243 3   7433414.013 2
  23379138.256    -2222428.115 3  -1731755.459 1
  23696670.044    -2287112.456 2  -1782159.592 1
  22125495.541    -7914177.352 3  -6166880.749 2
 91  5  2 20 24 30.0010000  0  6 19 16 18 11 06 02
  21389518.246     2664621.163 3   2076327.220 2
  23926749.664    -2220254.218 2  -1730068.960 1
  22727986.348     9592078.863 3   7474337.541 2
  23380888.740    -2213224.188 3  -1724583.569 1
  23692001.360    -2311670.375 2  -1801295.612 1
  22121101.174    -7937276.845 3  -6184880.325 2
 91  5  2 20 24 45.0010000  0  6 19 16 18 11 06 02
  21393102.870     2683482.756 3   2091024.550 2
  23928291.792    -2212142.438 2  -1723748.082 1
  22737996.421     9644690.697 3   7515333.720 1
  23382675.206    -2203847.466 3  -1717277.039 1
  23687332.397    -2336195.544 2  -1820406.090 1
  22116725.410    -7960277.755 3  -6202803.075 2
 91  5  2 20 25  0.0010000  0  6 19 16 18 11 06 02
  21396706.968     2702415.468 3   2105777.308 2
  23929858.508    -2203880.007 2  -1717309.791 1
  22748025.672     9697393.756 3   7556400.970 1
  23384493.449    -2194299.907 3  -1709837.388 1
  23682672.125    -2360689.942 2  -1839492.586 1
  22112368.230    -7983181.808 3  -6220650.360 2
 91  5  2 20 25 15.0010000  0  6 19 16 18 11 06 02
  21400321.868     2721415.319 3   2120582.372 2
  23931462.392    -2195470.914 2  -1710757.278 1
  22758073.821     9750183.631 3   7597535.870 2
  23386341.374    -2184585.546 3  -1702267.750 1
  23678015.150    -2385157.476 2  -1858558.203 1
  22108026.040    -8005993.183 3  -6238425.421 2
 91  5  2 20 25 30.0010000  0  6 19 16 18 11 06 02
  21403946.958     2740478.223 3   2135436.575 2
  23933091.160    -2186919.357 2  -1704093.769 1
  22768135.442     9803055.854 3   7638734.938 1
  23388219.873    -2174708.544 3  -1694571.367 2
  23673364.179    -2409602.582 2  -1877606.299 1
  22103701.527    -8028716.081 3  -6256131.559 2
 91  5  2 20 25 45.0010000  0  6 19 16 18 11 06 02
  21407586.428     2759602.578 3   2150338.662 2
  23934747.221    -2178227.229 2  -1697320.696 1
  22778211.477     9856008.680 3   7679996.814 1
  23390129.555    -2164670.552 3  -1686749.553 1
  23668717.692    -2434026.840 2  -1896638.162 1
  22099395.302    -8051352.142 3  -6273770.011 2
 91  5  2 20 26  0.0010000  0  6 19 16 18 11 06 02
  21411240.905     2778789.656 3   2165289.631 2
  23936424.850    -2169393.523 2  -1690437.317 1
  22788300.984     9909042.855 3   7721322.080 2
  23392071.904    -2154470.452 3  -1678801.422 1
  23664072.112    -2458429.126 2  -1915652.869 1
  22095103.770    -8073900.115 3  -6291339.831 2
 91  5  2 20 26 15.0010000  0  6 19 16 18 11 06 02
  21414899.867     2798037.050 3   2180287.596 2
  23938134.570    -2160420.809 2  -1683445.616 1
  22798407.591     9962156.054 3   7762708.918 1
  23394040.637    -2144110.574 3  -1670728.779 1
  23659433.111    -2482811.795 2  -1934652.382 1
  22090827.542    -8096362.299 3  -6308842.795 2
 91  5  2 20 26 30.0010000  0  6 19 16 18 11 06 02
  21418584.323     2817355.031 3   2195340.543 2
  23939869.174    -2151298.907 2  -1676337.642 1
  22808536.082    10015358.020 3   7804164.931 1
  23396048.058    -2133580.779 3  -1662523.762 2
  23654794.128    -2507164.680 2  -1953628.610 1
  22086573.179    -8118728.476 3  -6326270.975 2
 91  5  2 20 26 45.0010000  0  6 19 16 18 11 06 02
  21422265.482     2836745.793 3   2210450.235 2
  23941633.147    -2142025.709 2  -1669111.803 1
  22818672.355    10068650.624 2   7845691.568 1
  23398083.050    -2122878.825 3  -1654184.574 1
  23650168.023    -2531485.611 2  -1972579.969 1
  22082335.917    -8140996.357 3  -6343622.540 2
 91  5  2 20 27  0.0010000  0  6 19 16 18 11 06 02
  21425969.709     2856190.540 3   2225601.973 2
  23943424.115    -2132620.081 2  -1661782.754 1
  22828830.231    10122014.937 2   7887274.092 1
  23400150.412    -2112023.571 3  -1645725.914 1
  23645544.029    -2555793.566 2  -1991521.169 1
  22078111.237    -8163184.766 3  -6360912.185 2
 91  5  2 20 27 15.0010000  0  6 19 16 18 11 06 02
  21429678.439     2875689.094 3   2240795.648 2
  23945241.154    -2123082.561 2  -1654350.935 1
  22838997.094    10175450.526 3   7928912.149 1
  23402245.660    -2101015.200 3  -1637147.972 1
  23640923.037    -2580088.504 2  -2010452.279 1
  22073905.752    -8185293.795 3  -6378139.966 2
 91  5  2 20 27 30.0010000  0  6 19 16 18 11 06 02
  21433402.472     2895241.069 3   2256030.949 2
  23947078.574    -2113413.671 2  -1646816.747 1
  22849181.042    10228956.561 2   7970605.085 1
  23404368.793    -2089854.096 3  -1628451.016 1
  23636300.230    -2604371.051 2  -2029373.718 1
  22069710.458    -8207323.910 3  -6395306.265 2
 91  5  2 20 27 45.0010000  0  6 19 16 18 11 06 02
  21437129.786     2914844.484 3   2271306.335 2
  23948945.085    -2103615.381 2  -1639181.711 1
  22859374.883    10282530.807 3   8012351.196 1
  23406521.609    -2078542.410 3  -1619636.683 1
  23631682.222    -2628643.229 2  -2048287.104 1
  22065533.451    -8229277.164 3  -6412412.659 2
 91  5  2 20 28  0.0010000  0  6 19 16 18 11 06 02
  21440868.199     2934501.693 3   2286623.626 2
  23950831.383    -2093685.735 2  -1631444.348 1
  22869582.213    10336175.228 3   8054151.975 1
  23408703.794    -2067077.867 3  -1610703.297 1
  23627065.121    -2652902.879 2  -2067190.657 1
  22061375.030    -8251151.294 3  -6429457.411 2
 91  5  2 20 28 15.0010000  0  6 19 16 18 11 06 02
  21444621.601     2954212.048 3   2301982.341 2
  23952747.958    -2083625.151 2  -1623604.959 1
  22879804.533    10389889.030 3   8096006.803 1
  23410910.566    -2055460.896 3  -1601651.100 1
  23622449.521    -2677150.301 2  -2086084.743 1
  22057225.001    -8272946.714 3  -6446440.832 2
 91  5  2 20 28 30.0010000  0  6 19 16 18 11 06 02
  21448383.694     2973974.475 3   2317381.623 2
  23954686.416    -2073435.336 2  -1615664.835 1
  22890039.156    10443670.988 2   8137914.746 1
  23413150.912    -2043692.847 3  -1592481.191 1
  23617839.313    -2701386.847 2  -2104970.300 1
  22053092.057    -8294664.669 3  -6463363.900 2
 91  5  2 20 28 45.0010000  0  6 19 16 18 11 06 02
  21452151.492     2993789.708 3   2332822.053 2
  23956650.350    -2063115.492 2  -1607623.434 1
  22900287.861    10497521.331 2   8179875.975 1
  23415420.941    -2031773.104 3  -1583193.078 1
  23613225.807    -2725612.036 2  -2123847.067 1
  22048977.714    -8316304.425 3  -6480226.035 2
 91  5  2 20 29  0.0010000  0  6 19 16 18 11 06 02
  21455938.155     3013659.700 3   2348305.164 2
  23958638.576    -2052663.809 2  -1599479.297 1
  22910547.053    10551441.714 2   8221891.766 1
  23417716.744    -2019699.638 3  -1573785.187 1
  23608618.898    -2749823.859 2  -2142713.363 1
  22044873.249    -8337863.940 3  -6497025.630 2
 91  5  2 20 29 15.0010000  0  6 19 16 18 11 06 02
  21459724.538     3033585.100 3   2363831.435 2
  23960654.983    -2042079.859 2  -1591232.058 1
  22920820.642    10605432.622 3   8263962.547 1
  23420042.544    -2007472.002 3  -1564257.150 1
  23604017.083    -2774021.598 2  -2161568.720 1
  22040783.790    -8359342.687 3  -6513762.285 2
 91  5  2 20 29 30.0010000  0  6 19 16 18 11 06 02
  21463528.005     3053569.176 3   2379403.430 2
  23962695.978    -2031360.629 2  -1582879.438 1
  22931113.129    10659496.785 3   8306090.408 1
  23422402.808    -1995086.872 3  -1554606.391 1
  23599414.065    -2798202.201 2  -2180410.748 1
  22036712.602    -8380737.354 3  -6530433.416 2
 91  5  2 20 29 45.0010000  0  6 19 16 18 11 06 02
  21467338.364     3073610.976 3   2395020.414 2
  23964758.245    -2020507.151 2  -1574422.226 1
  22941412.196    10713632.950 3   8348274.359 1
  23424790.050    -1982545.364 3  -1544833.795 2
  23594818.550    -2822366.776 2  -2199240.237 1
  22032657.608    -8402048.819 3  -6547039.717 2
 91  5  2 20 30  0.0010000  0  6 19 16 18 11 06 02
  21471168.216     3093709.773 3   2410681.806 2
  23966851.399    -2009520.132 2  -1565860.926 1
  22951729.253    10767840.389 2   8390513.852 1
  23427206.085    -1969848.063 3  -1534939.793 1
  23590218.533    -2846515.814 2  -2218057.601 1
  22028618.807    -8423277.707 3  -6563581.683 2
 91  5  2 20 30 15.0010000  0  6 19 16 18 11 06 02
  21475004.367     3113865.487 3   2426387.546 2
  23968970.326    -1998400.123 2  -1557196.031 1
  22962056.501    10822118.541 2   8432808.455 1
  23429651.489    -1956995.299 3  -1524924.669 1
  23585630.801    -2870649.498 2  -2236863.090 1
  22024596.794    -8444424.271 3  -6580059.498 2
 91  5  2 20 30 30.0010000  0  6 19 16 18 11 06 02
  21478849.802     3134077.130 3   2442136.868 2
  23971105.744    -1987148.354 2  -1548428.401 1
  22972397.238    10876466.176 3   8475157.190 1
  23432122.684    -1943988.079 3  -1514789.139 1
  23581040.678    -2894769.141 2  -2255657.553 1
  22020586.769    -8465489.831 3  -6596474.208 2
 91  5  2 20 30 45.0010000  0  6 19 16 18 11 06 02
  21482705.724     3154345.236 3   2457930.200 2
  23973270.252    -1975764.452 2  -1539557.853 1
  22982755.670    10930883.670 2   8517560.383 1
  23434628.343    -1930826.032 3  -1504533.000 1
  23576451.463    -2918874.040 2  -2274440.546 1
  22016593.234    -8486473.646 3  -6612825.228 2
 91  5  2 20 31  0.0010000  0  6 19 16 18 11 06 02
  21486572.151     3174669.112 3   2473766.965 2
  23975464.425    -1964249.082 2  -1530584.878 1
  22993123.089    10985369.804 2   8560017.023 2
  23437165.483    -1917509.836 3  -1494156.752 1
  23571864.045    -2942965.054 2  -2293212.727 1
  22012615.282    -8507376.349 3  -6629113.018 2
 91  5  2 20 31 15.0010000  0  6 19 16 18 11 06 02
  21490449.677     3195047.965 3   2489646.586 2
  23977679.590    -1952603.096 2  -1521510.089 1
  23003504.904    11039923.807 2   8602526.549 1
  23439727.209    -1904040.276 3  -1483660.978 1
  23567282.612    -2967042.895 2  -2311974.637 1
  22008653.524    -8528198.701 3  -6645338.194 2
 91  5  2 20 31 30.0010000  0  6 19 16 18 11 06 02
  21494341.285     3215482.544 3   2505569.628 2
  23979919.047    -1940826.243 2  -1512333.356 1
  23013898.707    11094545.876 2   8645089.134 1
  23442320.713    -1890416.777 3  -1473045.264 1
  23562704.181    -2991106.910 2  -2330725.824 1
  22004706.460    -8548940.063 3  -6661500.261 2
 91  5  2 20 31 45.0010000  0  6 19 16 18 11 06 02
  21498238.582     3235972.387 3   2521535.734 2
  23982191.170    -1928918.981 2  -1503054.975 1
  23024305.703    11149235.148 3   8687704.072 1
  23444942.399    -1876639.883 3  -1462309.998 1
  23558129.345    -3015157.620 2  -2349466.588 1
  22000776.182    -8569600.854 3  -6677599.560 2
 91  5  2 20 32  0.0010000  0  6 19 16 18 11 06 02
  21502148.478     3256513.905 3   2537542.103 2
  23984474.688    -1916885.417 2  -1493678.181 1
  23034727.689    11203987.853 3   8730368.437 1
  23447593.174    -1862713.243 3  -1451458.091 1
  23553552.415    -3039198.792 2  -2368199.925 1
  21996858.486    -8590184.755 3  -6693638.931 2
 91  5  2 20 32 15.0010000  0  6 19 16 18 11 06 02
  21506065.860     3277108.144 3   2553589.554 2
  23986792.094    -1904724.671 2  -1484202.333 1
  23045156.270    11258804.700 3   8773082.783 1
  23450271.521    -1848635.905 3  -1440488.723 1
  23548973.687    -3063229.255 2  -2386924.965 1
  21992956.094    -8610690.704 3  -6709617.568 2
 91  5  2 20 32 30.0010000  0  6 19 16 18 11 06 02
  21509996.434     3297755.067 3   2569678.053 2
  23989131.366    -1892436.668 2  -1474627.251 1
  23055598.638    11313685.218 3   8815846.739 1
  23452981.034    -1834408.037 3  -1429402.072 1
  23544414.137    -3087249.303 2  -2405641.850 1
  21989067.784    -8631118.947 3  -6725535.664 2
 91  5  2 20 32 45.0010000  0  6 19 16 18 11 06 02
  21513934.512     3318454.920 3   2585807.799 2
  23991488.942    -1880021.580 2  -1464953.172 1
  23066054.808    11368629.527 3   8858660.433 1
  23455713.947    -1820029.525 3  -1418198.022 1
  23539839.911    -3111258.622 2  -2424350.403 1
  21985195.075    -8651469.200 3  -6741392.994 2
 91  5  2 20 33  0.0010000  0  6 19 16 18 11 06 02
  21517891.471     3339210.283 3   2601980.787 2
  23993883.374    -1867476.563 2  -1455177.869 1
  23076524.747    11423639.947 2   8901525.609 1
  23458478.638    -1805497.524 3  -1406874.408 1
  23535274.376    -3135254.384 2  -2443048.350 1
  21981337.634    -8671738.746 3  -6757187.421 2
 91  5  2 20 33 15.0010000  0  6 19 16 18 11 06 02
  21521842.444     3360020.014 3   2618196.150 2
  23996289.515    -1854803.082 2  -1445302.412 1
  23087003.393    11478714.911 2   8944441.095 1
  23461272.697    -1790813.537 3  -1395432.340 1
  23530714.826    -3159238.262 2  -2461737.068 1
  21977496.387    -8691928.681 3  -6772919.813 2
 91  5  2 20 33 30.0010000  0  6 19 16 18 11 06 02
  21525814.986     3380884.700 3   2634454.347 2
  23998728.322    -1842001.041 2  -1435326.870 1
  23097494.639    11533855.166 2   8987407.455 1
  23464095.252    -1775977.101 3  -1383871.486 1
  23526155.887    -3183209.456 2  -2480415.926 1
  21973670.741    -8712038.498 3  -6788589.779 2
 91  5  2 20 33 45.0010000  0  6 19 16 18 11 06 02
  21529792.327     3401799.884 3   2650751.883 2
  24001185.121    -1829075.102 2  -1425254.738 1
  23108003.561    11589055.463 2   9030420.602 1
  23466948.363    -1760992.796 3  -1372195.414 1
  23521590.945    -3207172.507 2  -2499088.376 1
  21969857.677    -8732072.928 3  -6804201.005 2
 91  5  2 20 34  0.0010000  0  6 19 16 18 11 06 02
  21533788.863     3422771.105 3   2667093.085 2
  24003672.806    -1816019.917 2  -1415081.837 1
  23118514.281    11644321.162 2   9073484.711 2
  23469830.580    -1745855.084 3  -1360399.788 2
  23517033.489    -3231122.262 2  -2517750.487 1
  21966061.417    -8752026.372 3  -6819749.125 2
 91  5  2 20 34 15.0010000  0  6 19 16 18 11 06 02
  21537784.806     3443796.219 3   2683476.281 2
  24006181.467    -1802837.581 2  -1404809.919 1
  23129045.103    11699649.896 2   9116597.921 1
  23472739.165    -1730566.159 3  -1348486.331 2
  23512479.349    -3255060.507 2  -2536403.682 1
  21962279.239    -8771900.627 3  -6835235.528 2
 91  5  2 20 34 30.0010000  0  6 19 16 18 11 06 02
  21541804.115     3464875.841 3   2699901.949 2
  24008709.009    -1789527.880 2  -1394438.753 1
  23139587.303    11755042.099 2   9159760.604 1
  23475680.417    -1715125.558 3  -1336454.689 2
  23507922.207    -3278986.636 2  -2555047.329 1
  21958510.236    -8791695.371 3  -6850659.973 2
 91  5  2 20 34 45.0010000  0  6 19 16 18 11 06 02
  21545818.939     3486009.760 3   2716369.935 2
  24011265.344    -1776090.836 2  -1383968.371 1
  23150141.492    11810497.051 2   9202972.185 1
  23478646.866    -1699533.590 3  -1324305.134 2
  23503375.256    -3302901.062 2  -2573681.968 1
  21954758.928    -8811410.846 3  -6866022.660 2
 91  5  2 20 35  0.0010000  0  6 19 16 18 11 06 02
  21549852.051     3507197.638 3   2732879.957 2
  24013854.049    -1762527.465 2  -1373399.537 1
  23160706.185    11866013.937 2   9246232.014 1
  23481642.999    -1683790.652 3  -1312037.906 1
  23498820.801    -3326804.299 2  -2592307.860 1
  21951022.924    -8831047.443 3  -6881323.884 2
 91  5  2 20 35 15.0010000  0  6 19 16 18 11 06 02
  21553891.148     3528439.319 3   2749431.895 2
  24016452.351    -1748838.015 2  -1362732.399 1
  23171282.256    11921592.554 3   9289539.940 1
  23484666.406    -1667896.986 3  -1299653.228 1
  23494275.944    -3350696.289 2  -2610924.890 1
  21947301.002    -8850605.153 3  -6896563.638 2
 91  5  2 20 35 30.0010000  0  6 19 16 18 11 06 02
  21557950.033     3549733.678 3   2766024.896 2
  24019082.727    -1735023.545 2  -1351967.973 1
  23181869.129    11977231.507 3   9332894.866 1
  23487720.997    -1651853.983 3  -1287152.192 2
  23489737.090    -3374578.450 2  -2629534.390 1
  21943594.663    -8870085.295 4  -6911742.952 2
 91  5  2 20 35 45.0010000  0  6 19 16 18 11 06 02
  21562006.529     3571079.407 3   2782657.922 2
  24021735.893    -1721085.758 2  -1341107.390 1
  23192464.988    12032929.003 2   9376295.442 1
  23490801.065    -1635662.988 3  -1274535.842 1
  23485192.844    -3398452.035 2  -2648137.144 1
  21939902.127    -8889489.090 3  -6926862.777 2
 91  5  2 20 36  0.0010000  0  6 19 16 18 11 06 02
  21566082.516     3592473.049 3   2799328.281 2
  24024413.053    -1707028.401 2  -1330153.601 1
  23203081.544    12088681.226 2   9419738.666 1
  23493909.298    -1619327.609 3  -1261806.973 1
  23480647.691    -3422320.521 2  -2666735.908 1
  21936223.673    -8908820.087 3  -6941925.874 2
 91  5  2 20 36 15.0010000  0  6 19 16 18 11 06 02
  21570157.595     3613914.159 3   2816035.626 2
  24027111.782    -1692852.091 2  -1319107.158 1
  23213693.300    12144487.661 2   9463224.135 1
  23497043.636    -1602848.392 3  -1248966.035 1
  23476106.725    -3446184.595 2  -2685331.266 1
  21932556.912    -8928078.752 3  -6956932.594 2
 91  5  2 20 36 30.0010000  0  6 19 16 18 11 06 02
  21574246.164     3635400.047 3   2832777.862 2
  24029829.095    -1678560.067 2  -1307970.589 1
  23224323.030    12200344.965 2   9506749.198 1
  23500204.638    -1586228.212 3  -1236015.254 1
  23471562.776    -3470046.837 2  -2703925.199 1
  21928906.937    -8947268.080 3  -6971885.289 2
 91  5  2 20 36 45.0010000  0  6 19 16 18 11 06 02
  21578345.220     3656929.791 3   2849554.273 2
  24032566.807    -1664152.879 2  -1296744.169 1
  23234965.971    12256252.230 2   9550313.211 1
  23503395.638    -1569467.943 3  -1222955.304 1
  23467026.016    -3493908.225 2  -2722518.436 1
  21925268.060    -8966388.839 3  -6986784.557 2
 91  5  2 20 37  0.0010000  0  6 19 16 18 11 06 02
  21582450.279     3678504.171 3   2866365.470 2
  24035332.684    -1649630.413 2  -1285428.032 1
  23245612.506    12312210.020 2   9593916.595 1
  23506613.615    -1552566.825 3  -1209785.626 1
  23462482.957    -3517767.946 2  -2741110.432 1
  21921641.469    -8985440.127 3  -7001629.704 2
 91  5  2 20 37 15.0010000  0  6 19 16 18 11 06 02
  21586561.027     3700119.345 3   2883208.449 2
  24038119.850    -1634996.328 2  -1274024.912 1
  23256276.107    12368213.694 2   9637555.740 1
  23509855.569    -1535529.050 3  -1196509.435 1
  23457943.509    -3541629.944 2  -2759704.164 1
  21918028.366    -9004426.072 3  -7016423.932 2
 91  5  2 20 37 30.0010000  0  6 19 16 18 11 06 02
  21590683.187     3721771.943 3   2900080.589 2
  24040924.711    -1620254.334 2  -1262537.644 1
  23266935.241    12424259.845 2   9681227.984 2
  23513120.906    -1518358.057 3  -1183129.434 1
  23453404.341    -3565497.704 2  -2778302.378 1
  21914428.753    -9023349.917 4  -7031169.779 2
 91  5  2 20 37 45.0010000  0  6 19 16 18 11 06 02
  21594808.017     3743461.894 3   2916981.830 2
  24043750.861    -1605404.855 2  -1250966.621 1
  23277608.754    12480348.545 2   9724933.375 1
  23516414.128    -1501053.873 3  -1169645.672 2
  23448860.095    -3589371.197 2  -2796905.081 1
  21910839.941    -9042211.576 3  -7045867.159 2
 91  5  2 20 38  0.0010000  0  6 19 16 18 11 06 02
  21598942.165     3765188.054 3   2933911.285 2
  24046595.596    -1590449.344 2  -1239312.994 1
  23288288.845    12536477.599 2   9768670.197 2
  23519732.532    -1483617.971 3  -1156059.264 1
  23444316.146    -3613251.779 2  -2815513.275 1
  21907260.727    -9061012.512 3  -7060517.209 2
 91  5  2 20 38 15.0010000  0  6 19 16 18 11 06 02
  21603085.894     3786946.491 3   2950865.914 2
  24049458.915    -1575391.767 2  -1227579.867 1
  23298980.943    12592643.047 2   9812435.407 1
  23523072.817    -1466054.279 3  -1142373.263 1
  23439771.882    -3637143.376 2  -2834130.114 1
  21903693.484    -9079756.548 3  -7075122.928 2
 91  5  2 20 38 30.0010000  0  6 19 16 18 11 06 02
  21607235.626     3808737.888 3   2967846.199 2
  24052343.802    -1560231.843 2  -1215766.968 1
  23309673.947    12648845.306 2   9856229.294 1
  23526439.191    -1448362.217 3  -1128587.250 1
  23435219.539    -3661045.240 2  -2852754.911 1
  21900137.042    -9098443.027 3  -7089683.795 2
 91  5  2 20 38 45.0010000  0  6 19 16 18 11 06 02
  21611382.653     3830561.303 3   2984851.444 2
  24055249.106    -1544970.599 2  -1203875.142 1
  23320374.735    12705083.027 2   9900050.811 1
  23529831.636    -1430543.035 3  -1114702.175 1
  23430667.493    -3684958.537 2  -2871388.602 1
  21896591.699    -9117073.058 3  -7104200.681 2
 91  5  2 20 39  0.0010000  0  6 19 16 18 11 06 02
  21615548.875     3852418.163 3   3001882.742 2
  24058176.276    -1529607.057 2  -1191903.523 1
  23331080.636    12761357.290 2   9943900.788 1
  23533245.369    -1412595.471 2  -1100717.067 1
  23426115.132    -3708881.883 2  -2890030.164 1
  21893058.047    -9135645.239 3  -7118672.505 2
 91  5  2 20 39 15.0010000  0  6 19 16 18 11 06 02
  21619709.390     3874309.071 3   3018940.576 2
  24061114.229    -1514140.660 2  -1179851.861 1
  23341798.210    12817668.543 2   9987779.626 1
  23536684.301    -1394519.005 2  -1086631.502 1
  23421559.194    -3732814.738 2  -2908679.107 1
  21889533.400    -9154159.113 3  -7133098.883 2
 91  5  2 20 39 30.0010000  0  6 19 16 18 11 06 02
  21623881.598     3896233.909 3   3036024.850 2
  24064077.084    -1498572.033 2  -1167720.507 1
  23352521.195    12874016.451 2  10031686.975 1
  23540145.692    -1376313.826 2  -1072445.644 1
  23417006.537    -3756757.211 2  -2927335.549 1
  21886023.428    -9172614.785 3  -7147479.913 2
 91  5  2 20 39 45.0010000  0  6 19 16 18 11 06 02
  21628057.400     3918193.777 3   3053136.433 2
  24067063.916    -1482899.736 2  -1155508.364 1
  23363253.759    12930401.678 2  10075623.427 1
  23543637.375    -1357978.847 2  -1058158.644 1
  23412445.801    -3780708.044 2  -2945998.503 1
  21882520.349    -9191010.905 3  -7161814.525 2
 91  5  2 20 40  0.0010000  0  6 19 16 18 11 06 02
  21632246.115     3940190.239 3   3070276.521 2
  24070062.439    -1467122.593 2  -1143214.482 1
  23373988.732    12986825.485 2  10119589.946 1
  23547151.849    -1339512.623 2  -1043769.388 1
  23407887.158    -3804665.772 2  -2964666.822 1
  21879032.853    -9209346.059 4  -7176101.634 2
 91  5  2 20 40 15.0010000  0  6 19 16 18 11 06 02
  21636436.907     3962224.299 3   3087445.899 2
  24073080.454    -1451239.868 2  -1130838.337 1
  23384729.986    13043288.633 2  10163587.120 1
  23550690.003    -1320914.245 2  -1029277.155 1
  23403334.815    -3828629.402 2  -2983339.776 1
  21875555.863    -9227619.143 4  -7190340.384 2
 91  5  2 20 40 30.0010000  0  6 19 16 18 11 06 02
  21640640.298     3984299.086 3   3104647.014 2
  24076122.446    -1435248.593 2  -1118377.717 1
  23395484.137    13099793.695 2  10207616.948 1
  23554255.728    -1302180.841 2  -1014679.722 1
  23398766.872    -3852595.979 2  -3002014.984 1
  21872090.267    -9245827.256 4  -7204528.509 2
 91  5  2 20 40 45.0010000  0  6 19 16 18 11 06 02
  21644846.691     4006416.154 3   3121881.079 2
  24079189.025    -1419147.512 2  -1105831.350 1
  23406245.494    13156342.350 2  10251680.702 1
  23557845.447    -1283310.888 2   -999975.857 1
  23394204.338    -3876563.895 2  -3020691.266 1
  21868638.160    -9263968.686 3  -7218664.667 2
 91  5  2 20 41  0.0010000  0  6 19 16 18 11 06 02
  21649066.258     4028577.613 3   3139149.735 2
  24082280.192    -1402934.830 2  -1093198.112 1
  23417015.245    13212936.244 2  10295779.749 1
  23561462.145    -1264302.482 2   -985164.116 1
  23389648.976    -3900531.178 2  -3039367.045 1
  21865197.431    -9282041.693 3  -7232747.507 2
 91  5  2 20 41 15.0010000  0  6 19 16 18 11 06 02
  21653288.548     4050788.339 3   3156456.790 2
  24085388.128    -1386605.957 2  -1080474.322 1
  23427794.576    13269579.948 2  10339917.593 2
  23565103.115    -1245151.039 2   -970240.938 1
  23385087.349    -3924492.901 2  -3058038.485 1
  21861772.913    -9300041.397 3  -7246773.222 2
 91  5  2 20 41 30.0010000  0  6 19 16 18 11 06 02
  21657531.498     4073050.455 3   3173803.890 2
  24088516.463    -1370158.995 2  -1067658.623 1
  23438581.707    13326274.986 2  10384095.428 1
  23568778.271    -1225854.424 2   -955204.622 1
  23380531.098    -3948447.078 2  -3076704.063 1
  21858361.273    -9317965.685 3  -7260740.178 2
 91  5  2 20 41 45.0010000  0  6 19 16 18 11 06 02
  21661772.372     4095365.086 3   3191191.907 2
  24091667.292    -1353592.819 2  -1054749.845 1
  23449383.532    13383022.282 2  10428314.002 1
  23572478.013    -1206411.630 2   -940054.415 1
  23375970.658    -3972392.588 2  -3095362.868 1
  21854967.921    -9335813.326 4  -7274647.408 2
 91  5  2 20 42  0.0010000  0  6 19 16 18 11 06 02
  21666031.814     4117737.426 3   3208624.880 2
  24094841.190    -1336902.813 2  -1041744.779 1
  23460190.452    13439826.762 2  10472577.112 1
  23576204.734    -1186817.785 2   -924786.483 1
  23371415.907    -3996324.149 2  -3114010.852 1
  21851588.058    -9353579.244 4  -7288490.969 2
 91  5  2 20 42 15.0010000  0  6 19 16 18 11 06 02
  21670300.870     4140173.493 3   3226107.512 2
  24098046.271    -1320083.084 2  -1028638.484 1
  23471010.860    13496694.199 2  10516889.302 1
  23579964.733    -1167067.024 2   -909396.290 2
  23366870.160    -4020235.998 2  -3132643.427 1
  21848223.185    -9371257.551 4  -7302266.261 2
 91  5  2 20 42 30.0010000  0  6 19 16 18 11 06 02
  21674582.193     4162677.184 3   3243642.850 2
  24101273.235    -1303130.047 2  -1015428.335 1
  23481847.463    13553628.123 2  10561253.306 1
  23583753.803    -1147155.632 2   -893880.938 1
  23362321.097    -4044124.340 2  -3151257.713 1
  21844874.802    -9388844.455 4  -7315970.327 3
 91  5  2 20 42 45.0010000  0  6 19 16 18 11 06 02
  21678880.025     4185253.991 3   3261235.152 2
  24104522.082    -1286038.443 2  -1002110.328 1
  23492697.241    13610633.615 2  10605673.082 1
  23587578.263    -1127078.182 3   -878236.168 1
  23357782.540    -4067983.542 2  -3169849.271 1
  21841545.022    -9406334.423 3  -7329598.850 2
 91  5  2 20 43  0.0010000  0  6 19 16 18 11 06 02
  21683192.236     4207905.650 3   3278885.793 2
  24107804.520    -1268806.621 2   -988682.852 1
  23503558.117    13667712.128 2  10650149.779 1
  23591429.700    -1106833.127 3   -862460.833 1
  23353244.593    -4091811.913 2  -3188416.807 1
  21838234.401    -9423725.592 3  -7343150.382 2
 91  5  2 20 43 15.0010000  0  6 19 16 18 11 06 02
  21687513.154     4230632.427 3   3296594.958 2
  24111111.232    -1251434.891 2   -975146.427 1
  23514430.091    13724863.735 2  10694683.410 1
  23595311.711    -1086420.186 3   -846554.660 1
  23348719.211    -4115609.191 2  -3206960.125 1
  21834945.384    -9441017.812 3  -7356624.828 2
 91  5  2 20 43 30.0010000  0  6 19 16 18 11 06 02
  21691858.031     4253436.435 3   3314364.303 2
  24114447.312    -1233921.124 2   -961499.427 1
  23525324.855    13782090.172 2  10739275.354 1
  23599230.593    -1065837.523 3   -830516.231 1
  23344198.645    -4139373.370 2  -3225477.639 1
  21831675.842    -9458209.048 3  -7370020.579 2
 91  5  2 20 43 45.0010000  0  6 19 16 18 11 06 02
  21696208.632     4276318.346 3   3332194.345 2
  24117801.401    -1216265.123 2   -947741.509 1
  23536226.512    13839391.650 2  10783925.737 1
  23603181.863    -1045084.733 3   -814345.253 1
  23339681.377    -4163103.755 2  -3243968.825 1
  21828424.901    -9475298.734 4  -7383337.208 2
 91  5  2 20 44  0.0010000  0  6 19 16 18 11 06 02
  21700582.006     4299276.604 3   3350083.888 2
  24121186.045    -1198468.397 2   -933873.970 1
  23547142.845    13896766.879 2  10828633.642 1
  23607161.909    -1024163.323 3   -798042.854 1
  23335173.392    -4186801.840 2  -3262434.849 2
  21825193.435    -9492288.340 4  -7396575.850 2
 91  5  2 20 44 15.0010000  0  6 19 16 18 11 06 02
  21704962.569     4322312.803 3   3368034.171 2
  24124598.889    -1180529.710 2   -919895.677
  23558078.076    13954216.788 2  10873399.653 1
  23611177.623    -1003071.966 3   -781608.025 1
  23330674.709    -4210466.138 2  -3280874.524 1
  21821978.756    -9509176.377 4  -7409735.340 2
 91  5  2 20 44 30.0010000  0  6 19 16 18 11 06 02
  21709360.826     4345426.032 3   3386044.458 2
  24128042.009    -1162450.059 2   -905807.810 1
  23569022.608    14011739.784 2  10918222.642 1
  23615222.426     -981811.934 3   -765041.761 1
  23326169.429    -4234097.738 2  -3299288.715 1
  21818783.865    -9525963.899 4  -7422816.502 2
 91  5  2 20 44 45.0010000  0  6 19 16 18 11 06 02
  21713774.667     4368617.781 3   3404115.935 2
  24131513.608    -1144228.337 2   -891609.076 1
  23579983.614    14069337.315 2  10963103.720 1
  23619301.991     -960381.712 3   -748342.909 1
  23321681.844    -4257695.118 2  -3317676.277 1
  21815608.466    -9542649.229 3  -7435818.039 2
 91  5  2 20 45  0.0010000  0  6 19 16 18 11 06 02
  21718205.295     4391888.460 3   3422248.921 2
  24135009.480    -1125864.353 2   -877299.517 1
  23590960.220    14127009.476 2  11008042.951 1
  23623414.257     -938781.058 3   -731511.253 1
  23317199.336    -4281257.860 2  -3336036.815 1
  21812454.357    -9559232.109 3  -7448739.748 3
 91  5  2 20 45 15.0010000  0  6 19 16 18 11 06 02
  21722645.817     4415237.916 3   3440443.283 2
  24138527.252    -1107358.718 2   -862879.551 1
  23601947.313    14184756.034 2  11053040.140 1
  23627555.577     -917010.318 3   -714547.060 1
  23312721.645    -4304786.169 2  -3354370.574 1
  21809315.831    -9575712.909 3  -7461581.916 2
 91  5  2 20 45 30.0010000  0  6 19 16 18 11 06 02
  21727108.239     4438666.488 3   3458699.305 2
  24142071.687    -1088711.436 2   -848349.258 1
  23612950.897    14242576.651 2  11098095.067 1
  23631731.100     -895069.450 3   -697450.272 1
  23308248.439    -4328279.799 2  -3372677.273 1
  21806200.077    -9592091.341 3  -7474344.319 2
 91  5  2 20 45 45.0010000  0  6 19 16 18 11 06 02
  21731574.552     4462172.826 3   3477015.909 2
  24145651.512    -1069923.976 2   -833709.632 1
  23623966.172    14300469.510 2  11143206.277 1
  23635936.882     -872959.879 3   -680222.042 1
  23303786.017    -4351740.156 2  -3390958.019 1
  21803101.721    -9608368.721 3  -7487027.976 2
 91  5  2 20 46  0.0010000  0  6 19 16 18 11 06 02
  21736063.935     4485755.350 3   3495391.883 2
  24149258.315    -1050998.183 2   -818962.361 1
  23635001.829    14358433.004 2  11188372.509 1
  23640172.643     -850683.223 2   -662863.619 1
  23299328.115    -4375168.709 2  -3409214.045 1
  21800023.450    -9624546.580 3  -7499634.086 3
 91  5  2 20 46 15.0010000  0  6 19 16 18 11 06 02
  21740567.121     4509413.331 3   3513826.669 2
  24152881.015    -1031935.138 2   -804108.011 1
  23646044.083    14416466.211 2  11233593.127 1
  23644444.387     -828240.509 2   -645375.836 1
  23294876.198    -4398566.205 2  -3427445.850 1
  21796961.373    -9640625.797 3  -7512163.332 3
 91  5  2 20 46 30.0010000  0  6 19 16 18 11 06 02
  21745087.093     4533147.470 3   3532320.786 2
  24156535.475    -1012734.292 2   -789146.424 1
  23657101.326    14474569.130 2  11278868.023 1
  23648749.704     -805631.338 3   -627758.289 1
  23290427.579    -4421932.123 2  -3445653.047 1
  21793922.976    -9656605.794 3  -7524615.258 3
 91  5  2 20 46 45.0010000  0  6 19 16 18 11 06 02
  21749613.662     4556955.167 3   3550872.227 2
  24160210.927     -993398.413 2   -774079.496 1
  23668168.167    14532739.022 2  11324195.129 1
  23653082.314     -782858.429 3   -610013.196 1
  23285987.353    -4445269.065 2  -3463837.659 1
  21790899.865    -9672489.139 3  -7536991.866 3
 91  5  2 20 47  0.0010000  0  6 19 16 18 11 06 02
  21754163.911     4580833.633 3   3569478.800 2
  24163921.471     -973931.046 2   -758910.162 1
  23679249.701    14590972.846 2  11369572.014 1
  23657446.387     -759924.678 3   -592142.773 1
  23281552.224    -4468579.792 2  -3482001.821 1
  21787897.451    -9688278.852 4  -7549295.519 2
 91  5  2 20 47 15.0010000  0  6 19 16 18 11 06 02
  21758714.160     4604781.272 3   3588139.282 2
  24167647.285     -954333.697 2   -743639.451 1
  23690343.520    14649268.600 2  11414997.200 1
  23661840.456     -736831.804 3   -574148.324 1
  23277122.189    -4491865.899 2  -3500146.814 1
  21784910.916    -9703976.354 4  -7561527.327 3
 91  5  2 20 47 30.0010000  0  6 19 16 18 11 06 02
  21763287.182     4628797.957 3   3606853.568 2
  24171399.780     -934606.755 2   -728268.002 1
  23701446.325    14707625.962 2  11460470.343 1
  23666267.193     -713580.130 3   -556030.153 1
  23272693.655    -4515127.530 2  -3518272.737 1
  21781939.981    -9719581.831 4  -7573687.426 2
 91  5  2 20 47 45.0010000  0  6 19 16 18 11 06 02
  21767866.520     4652881.673 3   3625620.089 2
  24175181.364     -914752.315 2   -712796.876 1
  23712564.732    14766042.374 2  11505989.537 1
  23670719.406     -690172.054 3   -537790.097 1
  23268271.107    -4538366.939 2  -3536381.346 1
  21778987.021    -9735097.562 4  -7585777.595 2
 91  5  2 20 48  0.0010000  0  6 19 16 18 11 06 02
  21772470.429     4677031.394 3   3644438.036 2
  24178979.439     -894771.837 2   -697227.751 1
  23723688.530    14824516.765 2  11551553.880 1
  23675203.693     -666608.738 3   -519429.087 2
  23263856.359    -4561585.067 2  -3554473.402 1
  21776051.458    -9750524.555 4  -7597798.606 2
 91  5  2 20 48 15.0010000  0  6 19 16 18 11 06 02
  21777072.540     4701246.965 3   3663307.292 2
  24182810.180     -874665.675 2   -681560.557 1
  23734829.726    14883048.648 2  11597163.006 1
  23679718.571     -642890.320 3   -500947.225 1
  23259437.126    -4584781.917 2  -3572548.806 1
  21773131.775    -9765862.860 4  -7609750.515 2
 91  5  2 20 48 30.0010000  0  6 19 16 18 11 06 02
  21781699.535     4725524.691 3   3682224.979 2
  24186657.727     -854437.945 2   -665798.739 1
  23745983.190    14941634.047 2  11642813.866 1
  23684259.833     -619020.841 3   -482347.637 2
  23255029.585    -4607961.323 2  -3590610.701 1
  21770227.989    -9781116.188 4  -7621636.216 3
 91  5  2 20 48 45.0010000  0  6 19 16 18 11 06 02
  21786322.638     4749862.623 3   3701189.585 2
  24190531.937     -834090.910 2   -649943.953 1
  23757141.767    15000270.561 2  11688504.536 1
  23688827.166     -595002.457 2   -463632.041 1
  23250622.638    -4631125.261 2  -3608660.504 1
  21767343.380    -9796286.710 4  -7633457.388 3
 91  5  2 20 49  0.0010000  0  6 19 16 18 11 06 02
  21790965.827     4774258.652 3   3720199.462 2
  24194422.951     -813626.611 2   -633997.824 1
  23768305.142    15058955.613 2  11734232.998 1
  23693430.184     -570837.299 2   -444802.055 1
  23246216.876    -4654275.903 2  -3626699.951 1
  21764473.168    -9811376.424 4  -7645215.585 2
 91  5  2 20 49 15.0010000  0  6 19 16 18 11 06 02
  21795618.003     4798713.412 3   3739255.103 2
  24198340.944     -793044.896 2   -617960.069 1
  23779482.303    15117689.541 2  11779999.604 1
  23698058.976     -546525.141 2   -425857.546 2
  23241818.322    -4677412.574 2  -3644728.510 1
  21761615.556    -9826385.024 4  -7656910.576 3
 91  5  2 20 49 30.0010000  0  6 19 16 18 11 06 02
  21800292.969     4823226.236 3   3758355.985 2
  24202277.207     -772346.821 2   -601831.767 1
  23790667.858    15176471.576 2  11825803.671 1
  23702703.666     -522066.619 2   -406798.965 2
  23237410.170    -4700535.892 2  -3662746.647 1
  21758777.417    -9841313.003 4  -7668542.756 2
 91  5  2 20 49 45.0010000  0  6 19 16 18 11 06 02
  21804959.837     4847795.571 3   3777500.897 2
  24206239.262     -751534.035 2   -585614.038 1
  23801866.308    15235299.826 2  11871643.705 1
  23707392.417     -497463.593 2   -387627.778 2
  23233015.822    -4723647.532 2  -3680755.688 1
  21755948.877    -9856161.874 4  -7680113.294 2
 91  5  2 20 50  0.0010000  0  6 19 16 18 11 06 02
  21809644.401     4872419.826 3   3796688.616 2
  24210216.323     -730608.757 2   -569308.653 1
  23813067.760    15294172.212 2  11917518.190 1
  23712100.957     -472717.939 2   -368345.454 2
  23228614.266    -4746749.188 2  -3698756.937 1
  21753138.310    -9870933.639 4  -7691623.749 2
 91  5  2 20 50 15.0010000  0  6 19 16 18 11 06 02
  21814340.638     4897098.132 3   3815918.455 2
  24214221.550     -709571.595 2   -552916.084 1
  23824278.792    15353087.617 2  11963426.176 1
  23716836.772     -447830.480 2   -348952.648 2
  23224225.309    -4769841.567 2  -3716750.980 1
  21750342.453    -9885628.878 4  -7703074.565 2
 91  5  2 20 50 30.0010000  0  6 19 16 18 11 06 02
  21819047.695     4921831.782 3   3835191.410 2
  24218250.753     -688421.881 2   -536435.750 1
  23835495.827    15412047.080 2  12009368.500 1
  23721596.877     -422800.438 2   -329448.734 1
  23219829.146    -4792923.532 2  -3734736.916 1
  21747561.273    -9900246.540 4  -7714464.934 3
 91  5  2 20 50 45.0010000  0  6 19 16 18 11 06 02
  21823768.520     4946619.993 3   3854506.882 2
  24222297.947     -667160.694 2   -519868.641 1
  23846724.257    15471049.400 2  12055344.250 1
  23726388.463     -397628.669 2   -309834.388 2
  23215443.487    -4815995.831 2  -3752715.293 1
  21744794.191    -9914787.485 4  -7725795.525 3
 91  5  2 20 51  0.0010000  0  6 19 16 18 11 06 02
  21828491.753     4971462.751 3   3873864.854 2
  24226360.148     -645788.146 2   -503214.748 1
  23857959.876    15530094.349 2  12101353.120 1
  23731202.227     -372315.378 3   -290109.762 1
  23211053.030    -4839058.539 2  -3770686.236 1
  21742041.489    -9929251.734 4  -7737066.359 3
 91  5  2 20 51 15.0010000  0  6 19 16 18 11 06 02
  21833229.661     4996357.375 3   3893263.255 2
  24230452.905     -624307.121 2   -486476.293 1
  23869208.688    15589178.642 2  12147392.734 1
  23736049.566     -346863.602 3   -270277.211 1
  23206666.761    -4862114.385 2  -3788651.833 1
  21739303.201    -9943642.199 4  -7748279.692 3
 91  5  2 20 51 30.0010000  0  6 19 16 18 11 06 02
  21837981.076     5021303.111 2   3912701.480 2
  24234557.667     -602718.960 2   -469654.409 1
  23880458.704    15648301.319 2  12193462.226 1
  23740917.898     -321274.230 3   -250337.442 1
  23202280.195    -4885164.200 2  -3806612.685 1
  21736578.681    -9957959.631 4  -7759436.111 2
 91  5  2 20 51 45.0010000  0  6 19 16 18 11 06 02
  21842732.788     5046294.495 3   3932175.269 2
  24238686.406     -581029.328 2   -452753.455 1
  23891712.314    15707456.848 2  12239557.321 1
  23745814.708     -295552.865 3   -230294.837 1
  23197891.535    -4908213.402 2  -3824573.128 1
  21733865.260    -9972209.475 4  -7770539.868 3
 91  5  2 20 52  0.0010000  0  6 19 16 18 11 06 02
  21847496.192     5071333.169 3   3951685.901 2
  24242823.242     -559237.011 2   -435772.446 1
  23902977.616    15766646.391 2  12285678.938 1
  23750736.106     -269698.007 3   -210148.221 1
  23193506.766    -4931260.168 2  -3842531.594 1
  21731167.421    -9986389.941 4  -7781589.562 3
 91  5  2 20 52 15.0010000  0  6 19 16 18 11 06 02
  21852273.677     5096421.633 3   3971235.330 2
  24247003.843     -537339.933 2   -418709.881 1
  23914244.716    15825872.041 2  12331828.650 1
  23755679.683     -243707.439 3   -189895.824 1
  23189121.701    -4954302.183 2  -3860486.361 1
  21728482.478   -10000498.788 4  -7792583.459 3
 91  5  2 20 52 30.0010000  0  6 19 16 18 11 06 02
  21857060.778     5121561.049 3   3990824.467 2
  24251184.758     -515336.951 2   -401564.732 1
  23925520.506    15885134.710 2  12378007.243 1
  23760649.051     -217580.419 3   -169537.128 1
  23184741.138    -4977338.415 2  -3878436.668 1
  21725812.525   -10014535.079 4  -7803520.811 3
 91  5  2 20 52 45.0010000  0  6 19 16 18 11 06 02
  21861846.657     5146748.976 3   4010451.419 2
  24255391.150     -493230.586 2   -384338.986 1
  23936806.486    15944431.448 2  12424212.370 1
  23765647.491     -191319.439 3   -149074.039 1
  23180355.776    -5000371.138 2  -3896384.218 2
  21723154.874   -10028501.044 4  -7814403.367 2
 91  5  2 20 53  0.0010000  0  6 19 16 18 11 06 02
  21866649.341     5171984.047 3   4030115.101 2
  24259621.205     -471022.815 2   -367034.285 1
  23948098.784    16003760.800 2  12470442.902 1
  23770671.706     -164926.023 3   -128507.753 1
  23175971.915    -5023401.746 2  -3914330.130 2
  21720509.509   -10042398.265 4  -7825232.362 3
 91  5  2 20 53 15.0010000  0  6 19 16 18 11 06 02
  21871463.996     5197271.578 3   4049819.650 2
  24263868.972     -448708.371 2   -349646.414 1
  23959394.048    16063127.590 2  12516702.620 1
  23775718.413     -138395.006 3   -107834.252 1
  23171590.741    -5046424.959 2  -3932270.262 1
  21717880.023   -10056221.413 4  -7836003.637 3
 91  5  2 20 53 30.0010000  0  6 19 16 18 11 06 02
  21876284.968     5222609.336 3   4069563.338 2
  24268136.214     -426289.787 2   -332177.455 1
  23970700.725    16122529.517 2  12562989.692 1
  23780791.802     -111728.914 2    -87055.495 1
  23167209.567    -5069442.998 2  -3950206.364 1
  21715262.839   -10069972.890 4  -7846719.057 2
 91  5  2 20 53 45.0010000  0  6 19 16 18 11 06 02
  21881116.113     5247996.541 3   4089345.563 2
  24272410.958     -403768.404 2   -314628.325 1
  23982010.699    16181965.522 2  12609303.277 1
  23785894.560      -84928.699 2    -66172.233 1
  23162830.505    -5092456.646 2  -3968139.042 1
  21712659.738   -10083653.354 4  -7857379.125 3
 91  5  2 20 54  0.0010000  0  6 19 16 18 11 06 02
  21885958.967     5273432.324 3   4109165.635 2
  24276723.169     -381145.511 2   -297000.147 1
  23993332.662    16241434.178 2  12655642.361 1
  23791020.719      -57995.631 3    -45185.438 1
  23158453.537    -5115466.934 2  -3986069.120 1
  21710068.939   -10097263.899 4  -7867984.726 3
 91  5  2 20 54 15.0010000  0  6 19 16 18 11 06 02
  21890804.805     5298915.868 3   4129022.922 2
  24281048.572     -358422.061 2   -279293.607 1
  24004648.623    16300934.322 2  12702005.972 1
  23796168.760      -30930.552 3    -24095.798 1
  23154078.069    -5138474.586 2  -4003997.137 1
  21707492.519   -10110805.401 4  -7878536.534 3
 91  5  2 20 54 30.0010000  0  6 19 16 18 11 06 02
  21895667.745     5324451.043 3   4148920.449 2
  24285393.170     -335594.282 2   -261505.718 1
  24015975.384    16360469.637 2  12748396.994 1
  23801343.779       -3729.861 3     -2900.461 1
  23149697.506    -5161475.745 2  -4021920.098 1
  21704928.087   -10124274.112 4  -7889031.621 2
 91  5  2 20 54 45.0010000  0  6 19 16 18 11 06 02
  21900531.871     5350036.896 3   4168857.478 2
  24289751.554     -312663.478 2   -243637.627 1
  24027310.836    16420038.658 2  12794814.263 1
  23806546.369       23605.252 3     18399.594 1
  23145321.427    -5184471.354 2  -4039838.727 2
  21702379.256   -10137670.949 4  -7899470.701 2
 91  5  2 20 55  0.0010000  0  6 19 16 18 11 06 02
  21905411.300     5375671.960 3   4188832.839 2
  24294133.024     -289631.530 2   -225690.674 1
  24038655.293    16479639.781 2  12841256.558 1
  23811775.345       51073.014 3     39803.034 1
  23140947.461    -5207463.013 3  -4057754.296 1
  21699844.211   -10150997.404 4  -7909854.942 3
 91  5  2 20 55 15.0010000  0  6 19 16 18 11 06 02
  21910299.124     5401359.995 3   4208849.479 2
  24298533.673     -266495.044 2   -207662.297 1
  24050001.529    16539276.389 2  12887726.531 1
  23817026.220       78676.915 2     61312.537 1
  23136577.385    -5230446.899 3  -4075663.797 2
  21697321.450   -10164249.862 4  -7920181.518 3
 91  5  2 20 55 30.0010000  0  6 19 16 18 11 06 02
  21915198.325     5427098.530 3   4228905.460 2
  24302961.002     -243256.545 2   -189554.377 1
  24061356.176    16598945.696 2  12934221.963 1
  23822306.464      106414.325 2     82926.075 1
  23132198.619    -5253425.449 2  -4093569.109 2
  21694813.697   -10177430.826 4  -7930452.381 3
 91  5  2 20 55 45.0010000  0  6 19 16 18 11 06 02
  21920105.029     5452889.488 3   4249002.287 2
  24307406.637     -219914.468 2   -171365.855 1
  24072718.903    16658649.352 2  12980744.189 1
  23827607.386      134286.987 3    104645.016 1
  23127827.933    -5276396.736 2  -4111468.803 2
  21692318.822   -10190538.318 4  -7940665.997 3
 91  5  2 20 56  0.0010000  0  6 19 16 18 11 06 02
  21925024.019     5478733.874 3   4269140.766 2
  24311863.946     -196468.385 2   -153096.183 1
  24084087.929    16718388.221 2  13027293.803 1
  23832936.805      162295.614 3    126469.925 1
  23123457.561    -5299359.803 2  -4129362.063 2
  21689837.732   -10203571.479 4  -7950821.685 3
 91  5  2 20 56 15.0010000  0  6 19 16 18 11 06 02
  21929948.418     5504630.203 3   4289319.706 2
  24316338.653     -172919.948 2   -134746.801 1
  24095461.754    16778160.252 2  13073869.272 1
  23838293.498      190438.504 3    148399.412 1
  23119092.581    -5322316.234 2  -4147250.173 1
  21687373.447   -10216531.806 4  -7960920.620 3
 91  5  2 20 56 30.0010000  0  6 19 16 18 11 06 02
  21934889.883     5530574.825 3   4309536.277 2
  24320843.636     -149273.063 2   -116320.746 1
  24106842.472    16837961.229 2  13120467.264 1
  23843672.667      218711.698 3    170430.496 2
  23114722.802    -5345269.675 3  -4165135.954 1
  21684919.039   -10229423.243 4  -7970965.885 3
 91  5  2 20 56 45.0010000  0  6 19 16 18 11 06 02
  21939833.164     5556566.342 3   4329789.394 2
  24325363.609     -125529.518 2    -97819.293 1
  24118225.005    16897789.495 2  13167086.569 1
  23849081.519      247113.554 3    192561.770 1
  23110355.728    -5368221.451 2  -4183020.451 1
  21682477.230   -10242247.265 4  -7980958.616 3
 91  5  2 20 57  0.0010000  0  6 19 16 18 11 06 02
  21944790.840     5582608.296 3   4350081.802 2
  24329901.853     -101685.769 2    -79239.820
  24129615.007    16957648.609 2  13213729.845 1
  23854507.176      275647.510 3    214795.989 1
  23105985.356    -5391167.921 3  -4200900.821 1
  21680050.708   -10255000.302 4  -7990896.030 3
 91  5  2 20 57 15.0010000  0  6 19 16 18 11 06 02
  21949753.002     5608697.815 3   4370411.305 2
  24334459.902      -77745.239 2    -60584.830 1
  24141011.028    17017535.190 2  13260394.541 1
  23859960.997      304310.500 3    237130.775 1
  23101622.173    -5414112.035 2  -4218779.326 1
  21677637.378   -10267685.193 4  -8000780.351 2
 91  5  2 20 57 30.0010000  0  6 19 16 18 11 06 02
  21954727.762     5634835.162 3   4390778.050 2
  24339031.440      -53708.059 2    -41854.621 1
  24152415.426    17077449.407 2  13307080.775 1
  23865444.501      333102.531 3    259566.123 1
  23097256.897    -5437053.539 2  -4236655.808 1
  21675236.943   -10280301.762 3  -8010611.427 3
 91  5  2 20 57 45.0010000  0  6 19 16 18 11 06 02
  21959709.101     5661018.221 3   4411180.412 2
  24343623.360      -29576.683 2    -23050.991 1
  24163821.028    17137388.839 2  13353786.680 1
  23870942.699      362021.191 3    282100.108 1
  23092891.917    -5459994.593 2  -4254531.916 2
  21672849.998   -10292852.229 4  -8020390.990 3
 91  5  2 20 58  0.0010000  0  6 19 16 18 11 06 02
  21964704.244     5687247.121 3   4431618.509 2
  24348231.771       -5350.944 2     -4173.854 1
  24175232.633    17197352.811 2  13400511.709 1
  23876471.468      391066.412 3    304732.738 1
  23088526.047    -5482934.894 2  -4272407.440 1
  21670475.337   -10305336.569 4  -8030119.037 3
 91  5  2 20 58 15.0010000  0  6 19 16 18 11 06 02
  21969698.199     5713519.227 3   4452090.255 2
  24352859.062       18965.993 2     14774.419 1
  24186647.536    17257338.664 2  13447253.787
  23882023.918      420235.216 3    327461.656 1
  23084159.269    -5505877.235 2  -4290284.552 1
  21668107.883   -10317757.518 4  -8039797.691 3
 91  5  2 20 58 30.0010000  0  6 19 16 18 11 06 02
  21974709.518     5739836.765 3   4472597.427 2
  24357508.254       43375.942 2     33795.059 1
  24198065.719    17317348.208 2  13494014.331 1
  23887599.455      449529.678 2    350288.513 1
  23079800.589    -5528819.323 2  -4308161.489 2
  21665758.107   -10330112.673 4  -8049425.061 3
 91  5  2 20 58 45.0020000  0  6 19 16 18 11 06 02
  21979722.061     5766200.324 3   4493140.425 2
  24362167.326       67879.185 2     52888.699 1
  24209491.113    17377383.799 2  13540795.162 1
  23893198.675      478950.074 2    373213.464 1
  23075430.220    -5551764.075 2  -4326040.518 1
  21663417.635   -10342404.502 4  -8059003.100 3
 91  5  2 20 59  0.0020000  0  6 19 16 18 11 06 02
  21984752.575     5792607.712 3   4513717.587 2
  24366851.872       92473.456 2     72052.866 1
  24220922.210    17437438.595 2  13587590.995 1
  23898818.884      508493.788 2    396234.541 1
  23071061.942    -5574706.957 2  -4343918.057 1
  21661091.241   -10354630.005 3  -8068529.451 3
 91  5  2 20 59 15.0020000  0  6 19 16 18 11 06 02
  21989783.682     5819062.594 3   4534331.777 2
  24371548.127      117161.573 2     91290.261 1
  24232351.195    17497517.959 2  13634405.944 1
  23904464.587      538164.213 2    419354.350 1
  23066697.259    -5597647.650 2  -4361793.895 1
  21658778.948   -10366788.118 4  -8078003.279 3
 91  5  2 20 59 30.0020000  0  6 19 16 18 11 06 02
  21994834.892     5845565.464 3   4554983.334 2
  24376265.671      141944.236 2    110601.372 1
  24243789.778    17557622.291 2  13681240.361 1
  23910133.064      567961.795 2    442573.218 1
  23062330.184    -5620585.635 2  -4379667.648 1
  21656477.125   -10378878.275 4  -8087424.172 3
 91  5  2 20 59 45.0020000  0  6 19 16 18 11 06 02
  21999882.804     5872118.126 3   4575673.698 2
  24380997.594      166822.726 2    129987.227 1
  24255238.848    17617753.308 2  13728095.490 1
  23915830.019      597888.218 2    465892.508 1
  23057965.798    -5643518.896 2  -4397537.701 1
  21654190.919   -10390898.725 4  -8096790.738 3
 91  5  2 21  0  0.0020000  0  6 19 16 18 11 06 02
  22004943.594     5898721.036 3   4596403.223 2
  24385746.898      191797.347 2    149447.897 1
  24266683.120    17677910.965 2  13774971.405 1
  23921549.450      627943.600 2    489312.282 1
  23053606.524    -5666447.178 2  -4415403.855 1
  21651917.592   -10402849.281 4  -8106102.849 3
 91  5  2 21  0 15.0020000  0  6 19 16 18 11 06 02
  22010013.388     5925373.119 3   4617171.066 2
  24390522.289      216866.228 2    168982.000 1
  24278135.191    17738093.681 2  13821866.868 1
  23927288.076      658126.382 2    512831.309 1
  23049239.747    -5689371.733 2  -4433267.131 1
  21649655.363   -10414731.253 4  -8115361.514 3
 91  5  2 21  0 30.0020000  0  6 19 16 18 11 06 02
  22015100.266     5952074.802 3   4637977.560 2
  24395311.170      242029.919 2    188589.991 1
  24289587.263    17798301.637 2  13868781.982 1
  23933059.980      688437.031 2    536449.997 1
  23044875.657    -5712291.784 2  -4451126.867 2
  21647406.920   -10426544.035 4  -8124566.263 3
 91  5  2 21  0 45.0020000  0  6 19 16 18 11 06 02
  22020186.534     5978827.575 3   4658823.847 2
  24400117.745      267289.444 2    208272.705 1
  24301054.028    17858536.190 2  13915717.824 1
  23938850.782      718876.562 2    560169.054 1
  23040521.775    -5735206.055 2  -4468982.134 2
  21645171.059   -10438286.208 4  -8133715.987 3
 91  5  2 21  1  0.0020000  0  6 19 16 18 11 06 02
  22025289.605     6005630.581 3   4679709.299 2
  24404941.404      292643.577 2    228029.155 1
  24312517.198    17918796.315 2  13962673.584 1
  23944670.046      749443.881 2    583987.739 1
  23036159.203    -5758115.376 2  -4486833.541 1
  21642950.798   -10449958.760 4  -8142811.468 3
 91  5  2 21  1 15.0020000  0  6 19 16 18 11 06 02
  22030400.163     6032486.268 3   4700635.765 2
  24409780.367      318094.408 2    247860.891 1
  24323991.746    17979083.815 2  14009650.720 1
  23950510.913      780141.289 2    607907.786 1
  23031801.709    -5781017.137 2  -4504679.056 1
  21640748.214   -10461559.326 4  -8151850.861 3
 91  5  2 21  1 30.0020000  0  6 19 16 18 11 06 02
  22035517.928     6059390.512 3   4721600.096 2
  24414641.788      343637.895 2    267764.898 1
  24335471.110    18039394.235 2  14056645.731 1
  23956376.647      810964.471 2    631925.840 1
  23027443.325    -5803915.431 2  -4522521.853 1
  21638550.149   -10473091.939 4  -8160837.298 3
 91  5  2 21  1 45.0020000  0  6 19 16 18 11 06 02
  22040647.385     6086346.211 3   4742604.525 2
  24419520.922      369276.445 2    287742.885 1
  24346953.458    18099730.116 2  14103660.523 1
  23962268.765      841915.961 2    656043.886 1
  23023090.648    -5826807.512 2  -4540359.834 1
  21636370.652   -10484553.808 4  -8169768.616 3
 91  5  2 21  2  0.0020000  0  6 19 16 18 11 06 02
  22045791.814     6113350.553 3   4763646.845 2
  24424419.233      395006.683 2    307792.444 1
  24358434.305    18160088.475 2  14150692.851 1
  23968177.374      872992.600 2    680259.403 1
  23018732.264    -5849696.114 2  -4558195.066 1
  21634198.955   -10495948.045 4  -8178647.223 3
 91  5  2 21  2 15.0020000  0  6 19 16 18 11 06 02
  22050931.461     6140402.648 3   4784726.381 2
  24429330.422      420827.702 2    327912.657 1
  24369927.158    18220468.097 2  14197741.746 1
  23974117.463      904193.386 2    704571.727 1
  23014381.680    -5872581.968 2  -4576028.192 1
  21632046.139   -10507275.385 4  -8187473.709 3
 91  5  2 21  2 30.0020000  0  6 19 16 18 11 06 02
  22056092.677     6167506.104 3   4805845.940 2
  24434264.715      446742.573 2    348106.035 1
  24381419.087    18280872.229 2  14244809.740 1
  23980078.841      935521.611 2    728983.318 2
  23010022.092    -5895461.611 2  -4593856.457 1
  21629902.938   -10518532.406 4  -8196245.401 3
 91  5  2 21  2 45.0020000  0  6 19 16 18 11 06 02
  22061258.116     6194661.488 3   4827005.954 2
  24439211.294      472751.395 2    368372.532 1
  24392915.238    18341301.045 2  14291896.975 1
  23986062.102      966977.500 2    753494.373 1
  23005670.898    -5918334.544 2  -4611679.504 1
  21627772.912   -10529718.628 4  -8204961.918 3
 91  5  2 21  3  0.0020000  0  6 19 16 18 11 06 02
  22066437.620     6221867.743 3   4848205.612 2
  24444180.941      498853.068 2    388711.554 1
  24404421.562    18401753.302 2  14339002.457 1
  23992073.528      998559.766 2    778103.934 1
  23001320.925    -5941201.767 2  -4629498.111 2
  21625658.470   -10540835.048 4  -8213624.040 3
 91  5  2 21  3 15.0020000  0  6 19 16 18 11 06 02
  22071622.830     6249128.731 3   4869447.916 2
  24449163.502      525050.953 2    409125.493 1
  24415929.702    18462232.454 2  14386128.883 1
  23998107.150     1030271.961 3    802814.692 1
  22996969.137    -5964059.515 2  -4647309.310 1
  21623560.814   -10551878.024 4  -8222228.949 3
 91  5  2 21  3 30.0020000  0  6 19 16 18 11 06 02
  22076824.531     6276446.584 3   4890734.537 2
  24454168.538      551346.993 2    429615.831 1
  24427448.032    18522740.275 2  14433277.655 1
  24004166.564     1062116.023 3    827628.214 1
  22992617.943    -5986905.499 2  -4665111.347 1
  21621470.662   -10562845.542 4  -8230775.057 3
 91  5  2 21  3 45.0020000  0  6 19 16 18 11 06 02
  22082031.327     6303823.045 3   4912066.837 2
  24459193.346      577742.316 2    450183.608 1
  24438965.158    18583277.942 2  14480449.748 1
  24010252.955     1094093.371 2    852545.634 1
  22988275.753    -6009737.944 2  -4682902.862 1
  21619397.907   -10573735.763 4  -8239260.935 3
 91  5  2 21  4  0.0020000  0  6 19 16 18 11 06 02
  22087258.801     6331256.855 2   4933443.811 2
  24464232.567      604235.364 2    470827.486 1
  24450494.569    18643844.205 2  14527644.068 1
  24016363.009     1126202.510 2    877565.738 1
  22983935.657    -6032558.118 2  -4700684.788 1
  21617339.532   -10584550.257 4  -8247687.797 3
 91  5  2 21  4 15.0020000  0  6 19 16 18 11 06 02
  22092479.400     6358746.068 3   4954863.947 2
  24469291.857      630823.962 2    491545.835 1
  24462020.997    18704436.788 2  14574858.904 1
  24022499.762     1158441.149 2    902686.732 1
  22979590.762    -6055368.075 3  -4718458.763 1
  21615294.035   -10595290.983 4  -8256057.180 3
 91  5  2 21  4 30.0020000  0  6 19 16 18 11 06 02
  22097730.258     6386295.378 3   4976330.920 2
  24474372.749      657512.487 2    512342.028 1
  24473560.302    18765059.771 2  14622097.400 1
  24028655.414     1190813.756 2    927912.117 1
  22975255.762    -6078162.984 3  -4736221.021 1
  21613267.140   -10605953.248 4  -8264365.425 3
 91  5  2 21  4 45.0020000  0  6 19 16 18 11 06 02
  22102976.334     6413900.109 3   4997841.087 2
  24479468.614      684296.185 2    533212.422 1
  24485102.312    18825708.537 2  14669356.034 1
  24034844.029     1223315.371 2    953238.024 1
  22970920.465    -6100947.475 3  -4753975.153 1
  21611251.936   -10616541.713 4  -8272616.165 3
 91  5  2 21  5  0.0020000  0  6 19 16 18 11 06 02
  22108243.089     6441561.317 3   5019395.257 2
  24484582.174      711175.414 2    554157.219 1
  24496644.619    18886383.623 2  14716635.095 1
  24041054.230     1255946.776 2    978665.086 1
  22966586.057    -6123720.602 3  -4771720.420 2
  21609250.222   -10627055.684 4  -8280808.861 3
 91  5  2 21  5 15.0020000  0  6 19 16 18 11 06 02
  22113514.329     6469279.075 3   5040993.486 2
  24489718.523      738150.020 2    575176.361 1
  24508195.023    18947084.805 2  14763934.495 1
  24047283.905     1288707.840 2   1004193.177 1
  22962255.262    -6146482.172 2  -4789456.696 1
  21607263.811   -10637494.891 4  -8288943.290 3
 91  5  2 21  5 30.0020000  0  6 19 16 18 11 06 02
  22118807.765     6497054.375 3   5062636.552 2
  24494867.454      765220.649 2    596270.267 1
  24519751.430    19007812.856 2  14811254.914 1
  24053547.469     1321599.433 2   1029822.987 1
  22957925.357    -6169231.067 2  -4807183.077 1
  21605292.669   -10647858.306 4  -8297018.666 3
 91  5  2 21  5 45.0020000  0  6 19 16 18 11 06 02
  22124098.497     6524889.228 3   5084326.026 2
  24500043.677      792389.002 2    617440.396 1
  24531312.321    19068569.200 2  14858597.383 1
  24059829.931     1354622.954 2   1055555.579 1
  22953599.954    -6191965.420 3  -4824898.139 1
  21603335.017   -10658144.351 4  -8305033.763 3
 91  5  2 21  6  0.0020000  0  6 19 16 18 11 06 02
  22129406.923     6552785.043 3   5106063.024 2
  24505224.682      819655.882 2    638687.288 1
  24542880.716    19129355.147 2  14905962.827 1
  24066141.151     1387779.623 2   1081391.903 1
  22949277.239    -6214683.739 3  -4842600.705 1
  21601391.464   -10668351.637 4  -8312987.481 3
 91  5  2 21  6 15.0020000  0  6 19 16 18 11 06 02
  22134727.041     6580740.848 3   5127846.756 2
  24510432.089      847020.391 2    660010.259 1
  24554455.411    19190169.247 2  14953350.296 1
  24072473.975     1421068.210 2   1107331.034 1
  22944957.839    -6237387.019 3  -4860291.578 1
  21599462.604   -10678481.223 4  -8320880.647 3
 91  5  2 21  6 30.0020000  0  6 19 16 18 11 06 02
  22140065.446     6608758.618 3   5149678.763 2
  24515661.361      874484.290 2    681410.675 1
  24566034.590    19251013.468 2  15000761.209 1
  24078831.665     1454490.430 2   1133374.330 1
  22940643.831    -6260073.139 3  -4877969.088 1
  21597550.531   -10688531.156 4  -8328711.749 3
 91  5  2 21  6 45.0020000  0  6 19 16 18 11 06 02
  22145401.164     6636838.856 3   5171559.449 2
  24520899.043      902047.354 2    702888.319 1
  24577619.161    19311887.700 2  15048195.474 1
  24085220.556     1488046.394 2   1159521.811 1
  22936323.209    -6282741.813 3  -4895632.979 2
  21595651.948   -10698501.058 4  -8336480.489 3
 91  5  2 21  7  0.0020000  0  6 19 16 18 11 06 02
  22150759.044     6664984.980 3   5193491.470 2
  24526171.190      929712.294 2    724445.358 1
  24589210.050    19372794.976 2  15095655.498 1
  24091630.719     1521739.371 2   1185776.074 1
  22932012.203    -6305389.467 2  -4913280.465 2
  21593773.449   -10708387.443 4  -8344184.158 3
 91  5  2 21  7 15.0020000  0  6 19 16 18 11 06 02
  22156127.726     6693195.745 3   5215473.859 2
  24531454.732      957478.032 2    746080.931 1
  24600809.314    19433734.049 2  15143140.306 1
  24098067.546     1555567.828 2   1212135.889 1
  22927709.572    -6328017.317 2  -4930912.531 1
  21591906.032   -10718191.576 4  -8351823.728 3
 91  5  2 21  7 30.0020000  0  6 19 16 18 11 06 02
  22161505.412     6721471.641 2   5237507.012 2
  24536756.562      985345.051 2    767795.436 1
  24612406.484    19494705.023 2  15190649.977
  24104532.887     1589532.063 2   1238601.491 1
  22923404.865    -6350624.701 2  -4948528.625 2
  21590057.512   -10727913.204 4  -8359399.020 3
 91  5  2 21  7 45.0020000  0  6 19 16 18 11 06 02
  22166902.869     6749816.064 3   5259593.549 2
  24542081.165     1013315.931 2    789590.894 1
  24624010.251    19555710.789 2  15238186.760 1
  24111020.389     1623635.078 2   1265175.265 1
  22919110.925    -6373208.439 3  -4966126.341 1
  21588224.577   -10737549.001 4  -8366907.420 3
 91  5  2 21  8  0.0020000  0  6 19 16 18 11 06 02
  22172314.129     6778228.000 3   5281732.711 2
  24547419.274     1041389.251 2    811466.132 1
  24635629.304    19616750.060 2  15285749.644 1
  24117535.480     1657875.574 2   1291856.144 2
  22914817.299    -6395769.396 3  -4983706.304 1
  21586405.147   -10747100.095 4  -8374349.816 3
 91  5  2 21  8 15.0020000  0  6 19 16 18 11 06 02
  22177725.982     6806709.551 3   5303926.103 2
  24552784.064     1069566.996 2    833422.757 1
  24647257.361    19677824.544 2  15333339.902 1
  24124079.347     1692255.188 2   1318645.439 1
  22910529.973    -6418305.578 3  -5001266.932 1
  21584607.286   -10756564.570 4  -8381724.725 3
 91  5  2 21  8 30.0020000  0  6 19 16 18 11 06 02
  22183163.017     6835262.011 3   5326174.763 2
  24558167.735     1097850.136 2    855461.513 1
  24658881.806    19738935.318 2  15380958.480 1
  24130645.096     1726775.183 2   1345544.105 1
  22906245.944    -6440815.443 2  -5018807.087 1
  21582821.431   -10765940.891 4  -8389030.936 3
 91  5  2 21  8 45.0020000  0  6 19 16 18 11 06 02
  22188609.945     6863887.438 3   5348480.262 2
  24563569.991     1126240.186 2    877583.639 1
  24670524.260    19800083.945 2  15428606.608 1
  24137244.140     1761437.176 2   1372553.437 1
  22901964.900    -6463297.117 2  -5036325.257 2
  21581056.254   -10775227.342 4  -8396267.116 3
 91  5  2 21  9  0.0020000  0  6 19 16 18 11 06 02
  22194068.268     6892586.005 2   5370842.780 2
  24568989.941     1154737.225 2    899789.023 1
  24682168.197    19861270.359 2  15476284.138 1
  24143868.051     1796241.067 2   1399673.324 1
  22897692.266    -6485750.311 2  -5053821.239 2
  21579304.566   -10784423.708 4  -8403433.113 3
 91  5  2 21  9 15.0020000  0  6 19 16 18 11 06 02
  22199543.082     6921358.426 2   5393262.817 2
  24574433.275     1183341.518 2    922078.025 1
  24693815.729    19922494.960 2  15523991.454
  24150517.753     1831187.283 2   1426904.123 1
  22893428.305    -6508174.193 2  -5071294.367 2
  21577570.852   -10793529.581 4  -8410528.578 3
 91  5  2 21  9 30.0020000  0  6 19 16 18 11 06 02
  22205034.980     6950201.669 2   5415738.042 2
  24579888.597     1212049.372 2    944447.770 1
  24705480.048    19983754.375 2  15571725.847 1
  24157192.915     1866272.426 2   1454243.178 1
  22889167.067    -6530571.992 3  -5088747.149 1
  21575854.239   -10802547.852 4  -8417555.795 3
 91  5  2 21  9 45.0020000  0  6 19 16 18 11 06 02
  22210533.160     6979112.672 2   5438266.089 2
  24585374.195     1240857.970 2    966895.970 1
  24717136.287    20045045.502 2  15619485.017 1
  24163897.184     1901493.337 2   1481687.995 1
  22884907.608    -6552946.452 2  -5106181.779 2
  21574156.228   -10811481.636 4  -8424517.176 3
 91  5  2 21 10  0.0020000  0  6 19 16 18 11 06 02
  22216051.145     7008093.353 3   5460848.420 2
  24590879.896     1269768.581 2    989423.626 1
  24728801.810    20106370.105 2  15667270.669 1
  24170621.521     1936851.595 2   1509239.876 1
  22880652.652    -6575295.569 2  -5123596.660 1
  21572471.392   -10820329.033 4  -8431411.234 3
 91  5  2 21 10 15.0020000  0  6 19 16 18 11 06 02
  22221574.820     7037141.283 3   5483483.151 2
  24596403.570     1298778.698 2   1012028.874 1
  24740470.928    20167725.142 2  15715079.554 1
  24177379.746     1972344.510 2   1536896.650 1
  22876406.089    -6597621.830 2  -5140993.721 1
  21570806.345   -10829092.442 4  -8438239.853 3
 91  5  2 21 10 30.0020000  0  6 19 16 18 11 06 02
  22227123.675     7066256.737 2   5506170.496 2
  24601939.826     1327887.739 2   1034711.118 1
  24752165.226    20229110.190 2  15762911.857 1
  24184161.057     2007971.848 2   1564658.194 2
  22872161.027    -6619925.132 2  -5158372.889 1
  21569152.378   -10837772.113 4  -8445003.219 3
 91  5  2 21 10 45.0020000  0  6 19 16 18 11 06 02
  22232668.045     7095437.599 3   5528908.821 2
  24607494.981     1357093.422 1   1057468.819 1
  24763842.441    20290523.065 2  15810765.905 1
  24190965.735     2043731.261 2   1592522.649 1
  22867920.764    -6642207.459 2  -5175735.731 1
  21567517.014   -10846370.058 4  -8451702.911 3
 91  5  2 21 11  0.0020000  0  6 19 16 18 11 06 02
  22238236.986     7124682.313 3   5551696.900 2
  24613075.316     1386393.894 1   1080300.317 1
  24775535.552    20351962.115 2  15858640.257 1
  24197791.422     2079620.984 2   1620488.630 1
  22863684.706    -6664470.254 2  -5193083.342 1
  21565894.248   -10854888.043 4  -8458340.288 3
 91  5  2 21 11 15.0020000  0  6 19 16 18 11 06 02
  22243811.929     7153994.053 3   5574537.181 2
  24618671.252     1415792.038 1   1103207.917 1
  24787238.244    20413430.096 2  15906537.154 1
  24204645.868     2115643.868 2   1648558.364 1
  22859450.725    -6686710.313 2  -5210413.224 2
  21564289.457   -10863322.731 4  -8464912.763 3
 91  5  2 21 11 30.0020000  0  6 19 16 18 11 06 02
  22249403.659     7183371.433 3   5597428.639 2
  24624282.160     1445286.089 1   1126190.186 1
  24798943.048    20474925.331 2  15954455.287 1
  24211527.606     2151798.183 2   1676730.565 1
  22855221.263    -6708929.062 2  -5227726.509 1
  21562700.858   -10871675.662 4  -8471421.530 3
 91  5  2 21 11 45.0020000  0  5 19 18 11 06 02
  22255006.488     7212815.355 3   5620371.930 2
  24810652.650    20536448.282 2  16002395.065 1
  24218434.524     2188084.576 2   1705005.660 1
  22850999.584    -6731125.538 2  -5245022.428 2
  21561125.749   -10879946.242 4  -8477866.125 3
 91  5  2 21 12  0.0020000  0  5 19 18 11 06 02
  22260627.884     7242322.637 2   5643364.608 2
  24822365.236    20597995.355 2  16050353.600 1
  24225362.435     2224499.425 2   1733380.843 1
  22846784.205    -6753303.011 2  -5262303.545 1
  21559565.927   -10888137.604 4  -8484248.993 3
 91  5  2 21 12 15.0020000  0  5 19 18 11 06 02
  22266243.294     7271892.581 3   5666406.114 2
  24834074.227    20659565.660 2  16098330.296 1
  24232314.619     2261041.961 2   1761855.500 1
  22842564.917    -6775461.885 2  -5279570.206 1
  21558023.799   -10896250.242 4  -8490570.514 3
 91  5  2 21 12 30.0020000  0  5 19 18 11 06 02
  22271891.982     7301527.232 3   5689498.027 2
  24845801.506    20721160.896 2  16146326.353 1
  24239297.987     2297713.714 2   1790430.884 1
  22838351.632    -6797600.309 2  -5296820.914 1
  21556494.846   -10904282.593 4  -8496829.470 3
 91  5  2 21 12 45.0020000  0  5 19 18 11 06 02
  22277539.483     7331225.531 3   5712639.530 2
  24857524.301    20782779.633 2  16194340.738 1
  24246295.437     2334513.313 2   1819105.890 1
  22834138.957    -6819719.212 2  -5314056.383 2
  21554984.494   -10912235.687 4  -8503026.673 3
 91  5  2 21 13  0.0020000  0  5 19 18 11 06 02
  22283208.849     7360992.193 3   5735834.305 1
  24869256.972    20844426.388 2  16242376.987 1
  24253323.774     2371445.257 2   1847884.029 1
  22829933.472    -6841813.769 2  -5331272.891 1
  21553488.836   -10920104.799 4  -8509158.437 3
 91  5  2 21 13 15.0020000  0  5 19 18 11 06 02
  22288880.920     7390830.531 3   5759084.930 2
  24880988.143    20906104.256 2  16290437.854 1
  24260377.588     2408512.684 2   1876767.685 1
  22825737.864    -6863880.614 3  -5348467.796 2
  21552003.352   -10927886.666 4  -8515222.218 3
 91  5  2 21 13 30.0020000  0  6 19 16 18 11 06 02
  22294576.689     7420738.308 2   5782389.678 2
  24669831.138      170463.93412    132822.289 1
  24892728.021    20967810.436 2  16338520.363 1
  24267455.990     2445712.825 2   1905754.806 1
  22821547.369    -6885922.104 3  -5365642.970 1
  21550538.877   -10935583.770 4  -8521219.951 3
 91  5  2 21 13 45.0020000  0  6 19 16 18 11 06 02
  22300278.740     7450713.706 3   5805747.130 2
  24675600.930      200811.463 2    156469.620 1
  24904474.792    21029542.775 2  16386623.294 1
  24274561.963     2483043.558 2   1934843.689 1
  22817354.779    -6907939.899 3  -5382799.677 1
  21549091.783   -10943198.065 4  -8527153.155 3
 91  5  2 21 14  0.0020000  0  6 19 16 18 11 06 02
  22305994.279     7480755.952 2   5829156.630 2
  24681394.734      231252.970 2    180190.157 1
  24916235.052    21091300.280 2  16434745.809 1
  24281691.633     2520504.162 2   1964033.759 1
  22813169.973    -6929934.525 3  -5399938.327 2
  21547655.176   -10950730.036 4  -8533022.211 3
 91  5  2 21 14 15.0020000  0  6 19 16 18 11 06 02
  22311721.824     7510862.618 3   5852616.349 2
  24687203.806      261785.349 2    203981.733 1
  24927990.810    21153080.453 2  16482885.985 1
  24288842.593     2558091.771 2   1993322.764 1
  22808987.260    -6951908.369 3  -5417060.770 1
  21546238.655   -10958182.295 4  -8538829.154 3
 91  5  2 21 14 30.0020000  0  6 19 16 18 11 06 02
  22317467.344     7541034.582 2   5876126.940 2
  24693034.465      292409.189 2    227844.240 1
  24939750.477    21214883.846 2  16531044.710
  24296015.417     2595806.872 2   2022711.163 1
  22804811.161    -6973860.623 3  -5434166.392 1
  21544834.715   -10965554.137 4  -8544573.437 3
 91  5  2 21 14 45.0020000  0  6 19 16 18 11 06 02
  22323218.551     7571270.081 2   5899687.047 2
  24698882.818      323122.024 2    251776.319 1
  24951512.535    21276708.128 2  16579219.706 1
  24303216.442     2633647.352 2   2052197.185 1
  22800640.437    -6995793.103 3  -5451256.616 2
  21543449.080   -10972847.630 4  -8550256.667 3
 91  5  2 21 15  0.0020000  0  6 19 16 18 11 06 02
  22328986.564     7601569.742 3   5923297.166 2
  24704735.674      353924.222 2    275778.004 1
  24963285.970    21338553.682 2  16627410.853 1
  24310451.930     2671613.418 2   2081781.108 1
  22796469.434    -7017705.132 3  -5468330.930 1
  21542074.527   -10980062.132 4  -8555878.337 3
 91  5  2 21 15 15.0020000  0  6 19 16 18 11 06 02
  22334761.469     7631932.219 2   5946956.213 2
  24710616.990      384814.144 2    299847.959 1
  24975054.030    21400418.895 2  16675617.757 1
  24317697.610     2709703.490 2   2111461.692 1
  22792302.025    -7039598.029 3  -5485390.291 2
  21540717.667   -10987198.910 4  -8561439.462 3
 91  5  2 21 15 30.0020000  0  6 19 16 18 11 06 02
  22340553.161     7662359.389 3   5970665.668 1
  24716510.313      415793.205 2    323987.650 1
  24986832.875    21462305.042 2  16723840.516 1
  24324963.078     2747919.135 2   2141240.108 1
  22788138.805    -7061469.854 2  -5502433.267 1
  21539375.501   -10994256.330 4  -8566938.739 3
 91  5  2 21 15 45.0020000  0  6 19 16 18 11 06 02
  22346354.137     7692851.809 2   5994425.978 2
  24722422.220      446861.717 2    348197.050
  24998605.734    21524212.559 2  16772080.379 1
  24332260.933     2786260.681 2   2171116.620 1
  22783980.383    -7083319.999 2  -5519459.307 2
  21538044.120   -11001233.934 4  -8572375.821 3
 91  5  2 21 16  0.0020000  0  6 19 16 18 11 06 02
  22352168.916     7723407.504 3   6018235.599 1
  24728352.711      478017.433 2    372474.290 1
  25010401.052    21586139.303 2  16820334.771 1
  24339581.561     2824725.721 2   2201089.338 1
  22779822.258    -7105150.296 3  -5536469.928 1
  21536733.434   -11008133.899 4  -8577752.402 3
 91  5  2 21 16 15.0020000  0  6 19 16 18 11 06 02
  22357993.886     7754026.521 2   6042094.534 2
  24734294.912      509259.804 2    396818.812 1
  25022190.698    21648084.969 2  16868603.901 1
  24346921.071     2863314.072 2   2231158.204 1
  22775675.231    -7126960.675 3  -5553465.012 1
  21535435.330   -11014955.948 4  -8583068.272 3
 91  5  2 21 16 30.0020000  0  6 19 16 18 11 06 02
  22363839.238     7784710.550 2   6066004.152 2
  24740262.572      540590.521 2    421232.356 1
  25033980.641    21710050.888 2  16916889.175 1
  24354293.875     2902027.025 2   2261324.101 1
  22771528.204    -7148749.336 3  -5570443.179 2
  21534151.622   -11021698.338 4  -8588322.077 3
 91  5  2 21 16 45.0020000  0  6 19 16 18 11 06 02
  22369687.295     7815459.232 2   6089964.137 1
  24746238.940      572008.630 2    445713.930 1
  25045775.976    21772036.126 2  16965189.176 1
  24361681.058     2940864.009 2   2291586.665 1
  22767386.866    -7170516.552 3  -5587404.636 1
  21532885.888   -11028361.738 4  -8593514.326 3
 91  5  2 21 17  0.0020000  0  6 19 16 18 11 06 02
  22375551.528     7846274.269 2   6113975.826 2
  24752236.580      603515.214 2    470264.531 1
  25057575.499    21834042.412 2  17013505.984 1
  24369099.425     2979826.198 2   2321946.778 1
  22763247.639    -7192260.822 3  -5604348.203 2
  21531633.363   -11034944.662 4  -8598643.865 3
 91  5  2 21 17 15.0020000  0  6 19 16 18 11 06 02
  22381426.562     7877155.404 2   6138039.023 2
  24758245.615      635110.038 2    494883.806 1
  25069378.338    21896068.858 2  17061838.088 1
  24376536.079     3018913.004 2   2352403.990 1
  22759116.789    -7213982.257 3  -5621273.955 1
  21530393.421   -11041447.493 4  -8603710.999 3
 91  5  2 21 17 30.0020000  0  6 19 16 18 11 06 02
  22387316.290     7908103.932 2   6162154.730 2
  24764275.956      666794.087 2    519572.616 1
  25081190.460    21958116.826 2  17110186.968 1
  24383997.007     3058125.678 2   2382959.301 1
  22754984.159    -7235679.337 3  -5638180.768 2
  21529170.858   -11047868.886 4  -8608714.671 3
 91  5  2 21 17 45.0020000  0  6 19 16 18 11 06 02
  22393215.301     7939117.818 2   6186321.366 2
  24770320.066      698564.513 2    544328.745 1
  25092998.377    22020183.711 2  17158550.987 1
  24391483.133     3097461.799 2   2413610.789 1
  22750864.703    -7257354.076 3  -5655070.167 2
  21527966.305   -11054211.006 4  -8613656.576 3
 91  5  2 21 18  0.0020000  0  6 19 16 18 11 06 02
  22399130.803     7970192.557 2   6210535.430 2
  24776379.776      730416.525 2    569148.527 1
  25104808.702    22082264.867 2  17206926.154 1
  24398990.828     3136916.433 2   2444354.631 1
  22746741.356    -7279010.992 3  -5671945.680 2
  21526772.518   -11060478.524 4  -8618540.340 3
 91  5  2 21 18 15.0020000  0  6 19 16 18 11 06 02
  22405057.403     8001325.916 2   6234795.160 2
  24782459.554      762347.856 2    594030.017 1
  25116621.120    22144357.550 2  17255310.283 1
  24406518.625     3176487.123 2   2475188.905 1
  22742621.604    -7300652.357 3  -5688809.058 2
  21525592.534   -11066673.683 4  -8623367.725 3
 91  5  2 21 18 30.0020000  0  6 19 16 18 11 06 02
  22410991.489     8032516.694 2   6259099.647 2
  24788546.539      794356.917 2    618972.016 1
  25128437.745    22206460.405 2  17303701.870 1
  24414072.789     3216172.227 2   2506112.335 1
  22738510.856    -7322279.220 3  -5705661.130 2
  21524427.540   -11072797.800 4  -8628139.746 3
 91  5  2 21 18 45.0020000  0  6 19 16 18 11 06 02
  22416935.783     8063764.013 2   6283448.187 2
  24794661.706      826442.149 2    643973.507 1
  25140261.559    22268572.163 2  17352100.864 1
  24421647.039     3255970.723 2   2537124.106 1
  22734394.699    -7343892.371 3  -5722502.549 2
  21523275.442   -11078851.578 4  -8632856.974 3
 91  5  2 21 19  0.0020000  0  6 19 16 18 11 06 02
  22422892.660     8095069.354 2   6307841.914 2
  24800784.080      858604.950 2    669035.328 1
  25152084.482    22330694.223 2  17400507.880 1
  24429242.595     3295883.907 2   2568225.273 1
  22730284.545    -7365490.075 3  -5739331.910 2
  21522136.239   -11084833.692 4  -8637518.359 3
 91  5  2 21 19 15.0020000  0  6 19 16 18 11 06 02
  22428859.727     8126430.468 2   6332279.132 2
  24806908.828      890842.641 2    694155.572 1
  25163907.389    22392823.606 2  17448920.157 1
  24436854.921     3335908.901 2   2599413.542 1
  22726180.986    -7387074.801 3  -5756151.157 2
  21521014.417   -11090746.782 4  -8642125.957 3
 91  5  2 21 19 30.0020000  0  6 19 16 18 11 06 02
  22434843.581     8157849.257 2   6356761.272 2
  24813055.475      923156.767 2    719335.382 1
  25175727.905    22454961.933 2  17497339.808 1
  24444497.523     3376047.269 2   2630690.161 1
  22722074.130    -7408644.506 3  -5772958.716 2
  21519902.489   -11096588.891 4  -8646678.238 3
 91  5  2 21 19 45.0020000  0  6 19 16 18 11 06 02
  22440830.436     8189325.223 2   6381287.979 2
  24819222.207      955546.554 2    744574.107 1
  25187551.422    22517108.757 2  17545766.127 1
  24452154.521     3416298.201 2   2662054.502 1
  22717972.369    -7430199.677 3  -5789754.918 2
  21518802.846   -11102360.470 4  -8651175.565 3
 91  5  2 21 20  0.0020000  0  6 19 16 18 11 06 02
  22446832.282     8220858.812 2   6405859.579 2
  24825394.943      988012.060 2    769871.913 1
  25199384.223    22579264.017 2  17594198.562 1
  24459838.201     3456661.948 2   2693506.731 1
  22713869.421    -7451739.657 3  -5806539.324 2
  21517718.193   -11108061.169 4  -8655617.656 3
 91  5  2 21 20 15.0020000  0  6 19 16 18 11 06 02
  22452843.114     8252449.361 2   6430475.560 2
  24831593.452     1020552.101 2    795227.716 1
  25211210.444    22641426.962 2  17642637.456 1
  24467538.075     3497137.639 2   2725046.235 1
  22709771.255    -7473264.921 3  -5823312.211 1
  21516646.139   -11113691.738 4  -8660005.100 3
 91  5  2 21 20 30.0020000  0  6 19 16 18 11 06 02
  22458867.156     8284097.928 2   6455136.765 2
  24837806.340     1053167.475 2    820642.238 1
  25223042.949    22703598.222 2  17691082.821 1
  24475259.238     3537725.780 2   2756673.312 1
  22705680.593    -7494774.521 3  -5840072.929 2
  21515588.464   -11119251.403 4  -8664337.296 3
 91  5  2 21 20 45.0020000  0  6 19 16 18 11 06 02
  22464896.276     8315801.631 2   6479840.914 2
  24844022.247     1085855.094 2    846113.033 1
  25234880.548    22765774.292 2  17739531.897 1
  24483004.063     3578423.015 2   2788385.414 1
  22701590.523    -7516271.446 3  -5856823.759 2
  21514540.701   -11124743.275 4  -8668616.665 3
 91  5  2 21 21  0.0020000  0  6 19 16 18 11 06 02
  22470944.888     8347561.237 2   6504588.621 2
  24850254.924     1118615.059 2    871640.289 1
  25246710.068    22827955.779 2  17787984.783 1
  24490772.289     3619230.021 2   2820183.070 1
  22697504.345    -7537754.645 3  -5873563.907 2
  21513510.003   -11130166.206 4  -8672842.320 3
 91  5  2 21 21 15.0020000  0  6 19 16 18 11 06 02
  22476996.501     8379374.229 2   6529377.937 1
  24856502.905     1151444.521 2    897221.635 1
  25258550.372    22890139.974 2  17836440.240 1
  24498557.599     3660144.018 2   2852064.074 1
  22693414.869    -7559226.488 3  -5890295.197 2
  21512490.405   -11135522.873 4  -8677016.341 3
 91  5  2 21 21 30.0020000  0  6 19 16 18 11 06 02
  22483058.602     8411238.714 2   6554207.376 2
  24862769.470     1184341.187 2    922855.375 1
  25270387.379    22952324.417 2  17884895.801 1
  24506363.291     3701162.477 2   2884026.452 1
  22689334.101    -7580689.158 3  -5907019.330 2
  21511484.312   -11140815.521 4  -8681140.475 3
 91  5  2 21 21 45.0020000  0  6 19 16 18 11 06 02
  22489127.596     8443156.053 2   6579078.022 2
  24869042.317     1217306.112 2    948542.244 1
  25282216.881    23014510.359 2  17933352.342 1
  24514191.180     3742286.592 2   2916071.241 1
  22685249.424    -7602140.942 3  -5923734.977 1
  21510489.894   -11146042.817 4  -8685213.684 3
 91  5  2 21 22  0.0020000  0  6 19 16 18 11 06 02
  22495216.378     8475126.248 2   6603989.830 2
  24875324.465     1250338.969 2    974282.094 1
  25294050.293    23076697.679 2  17981809.946 1
  24522032.243     3783516.115 2   2948198.090 1
  22681173.751    -7623581.817 3  -5940442.152 2
  21509505.388   -11151204.764 4  -8689235.967 3
 91  5  2 21 22 15.0020000  0  6 19 16 18 11 06 02
  22501311.774     8507147.925 2   6628941.754 1
  24881625.512     1283438.007 2   1000073.562 1
  25305887.299    23138884.590 2  18030267.112 1
  24529898.208     3824849.271 2   2980405.698 1
  22677092.372    -7645013.089 3  -5957141.814 2
  21508537.948   -11156302.704 4  -8693208.383 3
 91  5  2 21 22 30.0020000  0  6 19 16 18 11 06 02
  22507414.046     8539221.220 2   6653933.903 1
  24887934.342     1316603.068 2   1025916.345 1
  25317715.004    23201070.927 2  18078724.121 1
  24537789.039     3866286.049 2   3012694.076 1
  22673017.589    -7666434.387 3  -5973833.725 2
  21507577.418   -11161336.606 4  -8697130.895 3
 91  5  2 21 22 45.0020000  0  6 19 16 18 11 06 02
  22513526.508     8571347.785 2   6678967.581 1
  24894258.161     1349835.494 2   1051811.682 1
  25329555.605    23263258.063 2  18127181.835 1
  24545689.468     3907827.703 2   3045064.146 1
  22668943.120    -7687844.095 2  -5990516.584 2
  21506633.065   -11166304.923 4  -8701002.300 3
 91  5  2 21 23  0.0020000  0  6 19 16 18 11 06 02
  22519654.274     8603528.255 2   6704043.221 1
  24900595.173     1383135.686 2   1077759.873 1
  25341386.329    23325446.315 2  18175640.443 1
  24553617.190     3949474.451 2   3077516.146 1
  22664868.337    -7709241.434 3  -6007189.831 2
  21505700.717   -11171207.189 4  -8704822.236 3
 91  5  2 21 23 15.0020000  0  6 19 16 18 11 06 02
  22525785.617     8635762.780 2   6729161.017 2
  24906945.080     1416503.055 2   1103760.300 1
  25353215.832    23387635.513 2  18224099.762 1
  24561557.196     3991226.138 2   3110049.867 1
  22660799.557    -7730626.200 3  -6023853.285 2
  21504780.043   -11176043.256 4  -8708590.589 3
 91  5  2 21 23 30.0020000  0  5 19 16 11 06 02
  22531930.764     8668056.685 2   6754325.070 1
  24913301.287     1449942.535 2   1129817.190 1
  24569526.274     4033087.758 2   3142669.329 1
  22656734.372    -7751993.091 3  -6040502.798 2
  21503872.580   -11180808.124 4  -8712303.466 3
 91  5  2 21 23 45.0020000  0  5 19 16 11 06 02
  22538084.915     8700409.494 2   6779535.024 2
  24919679.970     1483453.058 2   1155929.085 1
  24577514.233     4075058.393 2   3175373.660 1
  22652669.484    -7773342.521 2  -6057138.694 2
  21502980.088   -11185502.188 4  -8715961.168 3
 91  5  2 21 24  0.0020000  0  5 19 16 11 06 02
  22544260.931     8732821.535 2   6804791.124 1
  24926073.642     1517034.845 2   1182096.551 1
  24585521.702     4117138.182 2   3208163.065 1
  22648609.097    -7794674.030 2  -6073760.613 2
  21502100.807   -11190125.103 4  -8719563.437 3
 91  5  2 21 24 15.0020000  0  5 19 16 11 06 02
  22550435.463     8765295.147 2   6830095.215 1
  24932479.600     1550690.431 2   1208321.712 1
  24593546.237     4159329.119 2   3241039.088 1
  22644557.401    -7815985.077 3  -6090366.611 2
  21501236.201   -11194674.854 4  -8723108.681 3
 91  5  2 21 24 30.0020000  0  5 19 16 11 06 02
  22556633.065     8797830.442 2   6855447.366 2
  24938893.672     1584419.104 2   1234603.637 1
  24601597.471     4201630.998 2   3274001.568 1
  22640504.797    -7837275.470 3  -6106956.526 2
  21500380.896   -11199151.379 4  -8726596.871 3
 91  5  2 21 24 45.0020000  0  6 19 16 18 11 06 02
  22562833.372     8830427.156 2   6880847.373 2
  24945326.310     1618220.094 2   1260942.104 1
  25424244.168      -53913.49912    -42042.329 1
  24609671.180     4244043.146 2   3307049.959 1
  22636460.605    -7858545.617 3  -6123530.671 2
  21499544.472   -11203554.948 4  -8730028.216 3
 91  5  2 21 25  0.0020000  0  6 19 16 18 11 06 02
  22569045.074     8863084.380 2   6906294.534 2
  24951778.738     1652092.355 2   1287335.854 1
  25436094.960      -87102.12012    -67903.644 1
  24617762.270     4286564.565 2   3340183.498 1
  22632413.114    -7879796.106 3  -6140089.479 2
  21498720.054   -11207886.183 4  -8733403.191 3
 91  5  2 21 25 15.0020000  0  5 19 16 11 06 02
  22575269.060     8895802.451 2   6931789.102 2
  24958230.275     1686035.952 2   1313785.563 1
  24625871.666     4329194.860 2   3373401.881 1
  22628375.500    -7901026.745 3  -6156632.791 2
  21497909.107   -11212145.257 4  -8736721.938 3
 91  5  2 21 25 30.0020000  0  6 19 16 18 11 06 02
  22581512.835     8928581.759 2   6957331.395 2
  24964707.290     1720050.575 2   1340290.298 1
  25459778.570      -66354.423 2    -51736.425 1
  24634003.240     4371934.184 2   3406705.202 1
  22624337.293    -7922236.897 3  -6173160.157 2
  21497114.651   -11216331.791 4  -8739984.160 3
 91  5  2 21 25 45.0020000  0  6 19 16 18 11 06 02
  22587753.923     8961425.185 2   6982923.640 2
  24971195.107     1754138.633 2   1366852.410 1
  25471631.456       -4104.646 2     -3229.938 1
  24642161.182     4414785.167 2   3440095.548 1
  22620307.793    -7943423.580 3  -6189669.269 2
  21496329.793   -11220443.098 4  -8743187.759 3
 91  5  2 21 26  0.0020000  0  6 19 16 18 11 06 02
  22594022.879     8994332.005 2   7008565.290 2
  24977692.207     1788299.414 2   1393471.110 1
  25483471.464       58151.962 2     45281.923 1
  24650339.227     4457746.720 2   3473572.010 1
  22616280.073    -7964587.595 3  -6206160.713 2
  21495562.629   -11224480.091 4  -8746333.463 3
 91  5  2 21 26 15.0020000  0  6 19 16 18 11 06 02
  22600295.447     9027304.020 2   7034257.752 2
  24984207.594     1822534.089 2   1420147.458 1
  25495320.755      120417.041 2     93800.387 1
  24658528.352     4500820.341 2   3507135.871 1
  22612258.060    -7985726.993 3  -6222632.955 2
  21494808.657   -11228440.899 4  -8749419.806 3
 91  5  2 21 26 30.0020000  0  6 19 16 18 11 06 02
  22606579.096     9060339.931 2   7059999.999 2
  24990740.973     1856841.073 2   1446880.068 1
  25507178.754      182688.854 2    142324.039 1
  24666748.365     4544004.388 2   3540785.698 1
  22608239.345    -8006842.824 3  -6239086.816 2
  21494071.159   -11232326.903 4  -8752447.853 3
 91  5  2 21 26 45.0020000  0  6 19 16 18 11 06 02
  22612880.422     9093441.342 2   7085793.275 2
  24997279.448     1891221.474 2   1473669.989 1
  25519023.246      244968.679 2    190853.992 1
  24674985.164     4587300.038 2   3574522.565 1
  22604225.428    -8027933.625 3  -6255521.189 2
  21493344.759   -11236136.658 4  -8755416.486 3
 91  5  2 21 27  0.0020000  0  6 19 16 18 11 06 02
  22619195.551     9126608.221 2   7111637.590 2
  25003837.397     1925675.226 2   1500517.032 1
  25530878.244      307256.368 2    239390.000 1
  24683250.146     4630707.025 2   3608346.172 1
  22600215.996    -8048999.053 3  -6271935.793 2
  21492635.163   -11239870.007 4  -8758325.576 3
 91  5  2 21 27 15.0020000  0  6 19 16 18 11 06 02
  22625514.589     9159843.349 2   7137535.063 2
  25010410.649     1960204.627 2   1527422.953 1
  25542731.740      369554.122 2    287933.827 1
  24691532.211     4674227.735 2   3642258.357 1
  22596214.068    -8070036.357 3  -6288328.496 2
  21491938.149   -11243524.357 4  -8761173.105 3
 91  5  2 21 27 30.0020000  0  5 19 16 11 06 02
  22631856.085     9193148.447 2   7163487.072 2
  25016986.607     1994810.970 2   1554388.893 1
  24699832.267     4717863.535 2   3676260.262 1
  22592216.328    -8091043.821 3  -6304697.956 2
  21491259.702   -11247098.237 4  -8763957.943 3
 91  5  2 21 27 45.0020000  0  5 19 16 11 06 02
  22638203.305     9226522.173 2   7189492.543 2
  25023588.932     2029492.412 2   1581413.387 1
  24708157.504     4761612.821 2   3710350.557 1
  22588224.294    -8112022.542 3  -6321045.005 2
  21490592.074   -11250592.975 4  -8766681.105 3
 91  5  2 21 28  0.0020000  0  5 19 16 11 06 02
  22644568.185     9259966.907 2   7215553.354 2
  25030205.356     2064251.276 2   1608498.111
  24716507.311     4805477.558 2   3744530.846 1
  22584237.652    -8132970.127 3  -6337367.784 2
  21489946.311   -11254006.210 4  -8769340.759 3
 91  5  2 21 28 15.0020000  0  5 19 16 11 06 02
  22650943.570     9293483.116 2   7241669.840 2
  25036828.970     2099087.373 2   1635642.941 1
  24724878.722     4849457.851 2   3778801.173 1
  22580254.622    -8153886.053 3  -6353665.886 2
  21489311.961   -11257337.768 4  -8771936.777 3
 91  5  2 21 28 30.0020000  0  5 19 16 11 06 02
  22657339.354     9327073.808 2   7267844.370 2
  25043476.561     2134003.000 2   1662849.986 1
  24733269.013     4893556.363 2   3813163.622 1
  22576284.157    -8174767.277 3  -6369936.954 2
  21488691.082   -11260584.665 4  -8774466.821 3
 91  5  2 21 28 45.0020000  0  5 19 16 11 06 02
  22663743.217     9360738.101 2   7294076.270 2
  25050135.843     2168997.356 2   1690118.218 1
  24741683.596     4937771.911 2   3847617.249 1
  22572316.117    -8195614.401 3  -6386181.486 2
  21488091.807   -11263747.757 4  -8776931.565 3
 91  5  2 21 29  0.0020000  0  5 19 16 11 06 02
  22670170.761     9394475.564 2   7320365.169 2
  25056816.432     2204069.743 2   1717447.279 1
  24750120.654     4982103.710 2   3882161.458 1
  22568355.860    -8216427.902 3  -6402399.801 1
  21487504.816   -11266827.492 4  -8779331.350 3
 91  5  2 21 29 15.0020000  0  5 19 16 11 06 02
  22676599.508     9428283.902 2   7346709.303 2
  25063497.004     2239217.236 2   1744834.934 1
  24758574.499     5026549.245 2   3916794.352 1
  22564400.384    -8237209.767 3  -6418593.468 2
  21486934.002   -11269826.238 4  -8781668.020 3
 91  5  2 21 29 30.0020000  0  5 19 16 11 06 02
  22683042.059     9462161.282 2   7373107.230 2
  25070206.351     2274437.726 2   1772279.461 1
  24767054.729     5071106.229 2   3951513.998 1
  22560453.616    -8257961.866 3  -6434763.911 2
  21486378.789   -11272745.993 4  -8783943.144 3
 91  5  2 21 29 45.0020000  0  5 19 16 11 06 02
  22689507.975     9496106.036 2   7399557.657 2
  25076922.905     2309729.199 2   1799779.176 1
  24775551.449     5115772.752 2   3986319.057 1
  22556506.848    -8278685.780 3  -6450912.397 2
  21485838.268   -11275588.567 4  -8786158.130 3
 91  5  2 21 30  0.0020000  0  5 19 16 11 06 02
  22695977.800     9530116.644 2   7426059.409 1
  25083643.961     2345090.146 2   1827333.163 1
  24784076.945     5160547.029 2   4021208.076 1
  22552570.288    -8299382.699 3  -6467039.868 1
  21485313.331   -11278355.464 4  -8788314.155 3
 91  5  2 21 30 15.0020000  0  5 19 16 11 06 02
  22702463.819     9564190.686 2   7452610.580 2
  25090385.992     2380517.507 2   1854938.884
  24792615.023     5205426.045 2   4056178.655 1
  22548637.602    -8320055.109 3  -6483148.238 1
  21484799.788   -11281049.088 4  -8790413.079 3
 91  5  2 21 30 30.0020000  0  5 19 16 11 06 02
  22708960.012     9598327.148 2   7479210.384 2
  25097148.702     2416009.822 2   1882595.091 1
  24801177.408     5250408.591 2   4091229.923 1
  22544706.121    -8340703.906 3  -6499238.210 2
  21484297.938   -11283670.609 4  -8792455.811 3
 91  5  2 21 30 45.0020000  0  5 19 16 11 06 02
  22715464.616     9632525.359 2   7505858.320 2
  25103912.319     2451565.768 2   1910300.930 1
  24809754.470     5295493.544 2   4126361.049 1
  22540781.235    -8361329.715 3  -6515310.272 2
  21483816.469   -11286220.960 4  -8794443.088 3
 91  5  2 21 31  0.0020000  0  5 19 16 11 06 02
  22721983.598     9666785.401 2   7532554.413 2
  25110684.940     2487185.419 2   1938056.473 1
  24818352.506     5340680.804 2   4161571.863 1
  22536858.758    -8381932.235 3  -6531364.171 2
  21483343.987   -11288699.948 4  -8796374.761 3
 91  5  2 21 31 15.0020000  0  5 19 16 11 06 02
  22728515.476     9701109.988 2   7559300.814 2
  25117477.629     2522871.141 2   1965863.433 1
  24826974.850     5385972.673 2   4196864.177 1
  22532947.361    -8402508.685 3  -6547397.735 2
  21482884.714   -11291104.942 4  -8798248.769 3
 91  5  2 21 31 30.0020000  0  5 19 16 11 06 02
  22735062.641     9735503.919 2   7586101.261 2
  25124284.715     2558627.115 2   1993725.182 1
  24835610.370     5431373.411 2   4232241.348 1
  22529035.371    -8423054.390 3  -6563407.360 1
  21482443.712   -11293431.528 4  -8800061.683 3
 91  5  2 21 31 45.0020000  0  5 19 16 11 06 02
  22741617.903     9769967.407 2   7612955.911 2
  25131100.508     2594452.956 2   2021641.422 1
  24844273.775     5476882.827 2   4267703.210 1
  22525133.276    -8443568.921 3  -6579392.724 2
  21482015.013   -11295679.503 4  -8801813.348 3
 91  5  2 21 32  0.0020000  0  5 19 16 11 06 02
  22748194.157     9804500.375 2   7639864.709 2
  25137930.070     2630348.387 2   2049611.786 1
  24852948.854     5522500.655 2   4303249.512 1
  22521237.480    -8464052.122 3  -6595353.659 2
  21481600.989   -11297848.793 4  -8803503.697 3
 91  5  2 21 32 15.0020000  0  5 19 16 11 06 02
  22754775.489     9839101.806 2   7666826.821 2
  25144775.232     2666312.167 2   2077635.378 1
  24861654.227     5568225.517 2   4338879.244 1
  22517341.370    -8484504.906 3  -6611290.882 2
  21481203.473   -11299940.504 4  -8805133.604 3
 91  5  2 21 32 30.0020000  0  5 19 16 11 06 02
  22761374.533     9873775.511 2   7693845.270 1
  25151638.385     2702348.061 2   2105715.264 1
  24870379.091     5614060.914 2   4374595.108 1
  22513457.265    -8504923.312 3  -6627201.304 2
  21480823.634   -11301951.031 4  -8806700.245 3
 91  5  2 21 32 45.0020000  0  5 19 16 11 06 02
  22767985.548     9908521.850 2   7720920.306 2
  25158500.631     2738455.635 2   2133851.039 1
  24879118.649     5660006.911 2   4410397.155 1
  22509578.239    -8525306.947 3  -6643084.642 2
  21480452.485   -11303880.265 4  -8808203.535 3
 91  5  2 21 33  0.0020000  0  4 19 11 06 02
  22774615.758     9943341.609 2   7748052.578 2
  24887883.073     5706063.862 2   4446285.654 1
  22505705.826    -8545654.813 3  -6658940.140 2
  21480101.439   -11305727.313 4  -8809642.783 3
 91  5  2 21 33 15.0020000  0  5 19 16 11 06 02
  22781250.174     9978234.102 2   7775241.483 1
  25172282.394      194201.34012    151315.284 1
  24896671.195     5752230.744 2   4482259.799 1
  22501840.900    -8565967.665 3  -6674768.330 2
  21479766.273   -11307492.899 4  -8811018.548 3
 91  5  2 21 33 30.0020000  0  4 19 11 06 02
  22787903.768       29923.48012     23310.925 2
  24905479.087      179732.45312    140053.265 1
  22497982.273      134471.00513    104794.396 2
  21479446.097   -11309177.925 4  -8812331.561 3
 91  5  2 21 33 45.0020000  0  4 19 11 06 02
  22794573.241       64960.363 2     50612.367 2
  24914300.190      226117.340 2    176197.280 1
  22494129.334      114227.896 3     89020.563 2
  21479140.892   -11310781.854 4  -8813581.368 3
 91  5  2 21 34  0.0020000  0  4 19 11 06 02
  22801250.218      100046.732 2     77952.364 2
  24923145.269      272587.956 2    212408.115 1
  22490280.305       93997.047 3     73256.269 2
  21478845.303   -11312327.928 4  -8814786.097 3
 91  5  2 21 34 15.0020000  0  4 19 11 06 02
  22807944.592      135206.408 2    105349.496 2
  24932008.636      319167.641 2    248703.931 1
  22486437.854       73802.280 3     57520.101 2
  21478568.298   -11313792.480 4  -8815927.303 3
 91  5  2 21 34 30.0020000  0  4 19 11 06 02
  22814644.656      170444.290 2    132807.575 1
  24940895.683      365860.951 2    285088.304 1
  22482603.221       53648.647 3     41815.993 2
  21478306.580   -11315170.590 4  -8817001.148 3
 91  5  2 21 34 45.0020000  0  4 19 11 06 02
  22821363.897      205760.442 2    160326.613 2
  24949800.407      412667.804 2    321561.094 1
  22478775.464       33536.522 3     26144.215 2
  21478060.445   -11316462.159 4  -8818007.569 3
 91  5  2 21 35  0.0020000  0  4 19 11 06 02
  22828099.943      241156.491 2    187907.937 2
  24958731.236      459589.407 2    358123.375 1
  22474955.506       13467.527 3     10506.043 2
  21477831.707   -11317665.731 4  -8818945.411 3
 91  5  2 21 35 15.0020000  0  4 19 11 06 02
  22834848.570      276630.663 2    215550.121 2
  24967677.928      506623.613 2    394773.352 1
  22471146.647       -6560.036 3     -5099.844 2
  21477618.256   -11318783.160 4  -8819816.126 3
 91  5  2 21 35 30.0020000  0  4 19 11 06 02
  22841625.066      312187.058 2    243256.365 2
  24976653.727      553774.273 2    431514.083 1
  22467341.680      -26541.891 3    -20670.100 2
  21477424.297   -11319810.280 4  -8820616.473 3
 91  5  2 21 35 45.0020000  0  4 19 11 06 02
  22848398.280      347824.938 2    271026.117 2
  24985649.890      601040.212 2    468344.631 1
  22463546.310      -46478.624 3    -36205.192 2
  21477245.013   -11320748.081 4  -8821347.223 3
 91  5  2 21 36  0.0020000  0  4 19 11 06 02
  22855195.472      383544.997 2    298859.906 1
  24994666.155      648421.735 2    505265.294 1
  22459763.835      -66369.377 3    -51704.479 2
  21477082.517   -11321595.873 4  -8822007.835 3
 91  5  2 21 36 15.0020000  0  5 19 16 11 06 02
  22862011.265      419346.743 2    326757.331 1
  25256095.668      165319.16312    128809.505
  25003706.398      695918.087 2    542275.393 1
  22455988.551      -86214.607 3    -67168.290 2
  21476939.216   -11322354.293 4  -8822598.809 3
 91  5  2 21 36 30.0020000  0  5 19 16 11 06 02
  22868841.437      455230.960 2    354719.023 2
  25263173.773      172771.014 2    134616.166 1
  25012758.035      743529.312 2    579375.052 1
  22452220.455     -106013.587 3    -82596.058 2
  21476812.108   -11323022.732 4  -8823119.664 3
 91  5  2 21 36 45.0020000  0  5 19 16 11 06 02
  22875680.003      491191.910 2    382740.493 2
  25270262.069      210029.065 2    163648.370 1
  25021844.137      791249.559 2    616559.588 1
  22448458.956     -125771.669 3    -97991.942 2
  21476701.788   -11323606.907 4  -8823574.863 3
 91  5  2 21 37  0.0020000  0  5 19 16 11 06 02
  22882538.654      527219.142 2    410813.630 2
  25277371.043      247346.053 2    192726.482 1
  25030941.947      839068.174 2    653820.800 1
  22444706.758     -145499.252 3   -113364.063 2
  21476603.753   -11324117.233 4  -8823972.517 3
 91  5  2 21 37 15.0020000  0  5 19 16 11 06 02
  22889402.697      563302.047 2    438930.171 1
  25284477.313      284710.931 2    221841.868 1
  25040059.232      886974.242 2    691150.216 1
  22440958.451     -165206.652 3   -128720.470 2
  21476517.723   -11324564.428 4  -8824320.980 3
 91  5  2 21 37 30.0020000  0  5 19 16 11 06 02
  22896284.138      599460.635 2    467105.629 1
  25291596.199      322143.692 2    251010.217 1
  25049194.509      934987.194 2    728562.864 1
  22437212.238     -184873.852 3   -144045.544 2
  21476449.371   -11324928.600 4  -8824604.745 3
 91  5  2 21 37 45.0020000  0  5 19 16 11 06 02
  22903181.459      635691.033 2    495337.083 2
  25298731.261      359640.115 2    280228.100 1
  25058356.170      983103.045 2    766055.652 1
  22433475.030     -204504.560 3   -159342.178 2
  21476394.804   -11325213.592 4  -8824826.810 3
 91  5  2 21 38  0.0020000  0  5 19 16 11 06 02
  22910089.878      671986.150 2    523618.956 2
  25305877.405      397192.625 2    309489.704 1
  25067526.207     1031314.282 2    803622.832 1
  22429748.012     -224105.681 3   -174615.770 2
  21476351.335   -11325426.484 4  -8824992.699 3
 91  5  2 21 38 15.0020000  0  5 19 16 11 06 02
  22917005.190      708344.002 2    551949.713 2
  25313038.555      434798.928 2    338793.251 1
  25076713.048     1079618.559 2    841262.500 1
  22426021.292     -243679.084 3   -189867.759 2
  21476327.952   -11325569.701 4  -8825104.296 3
 91  5  2 21 38 30.0020000  0  5 19 16 11 06 02
  22923937.289      744761.590 2    580327.008 2
  25320200.892      472455.752 2    368136.129 1
  25085927.182     1128012.628 2    878972.130 1
  22422304.465     -263227.567 3   -205100.331 2
  21476313.259   -11325646.113 4  -8825163.836 3
 91  5  2 21 38 45.0020000  0  5 19 16 11 06 02
  22930875.391      781234.273 2    608747.237 1
  25327376.718      510157.619 2    397514.161 1
  25095152.083     1176491.310 2    916747.688 1
  22418586.731     -282755.888 3   -220317.189 2
  21476308.163   -11325660.578 4  -8825175.119 3
 91  5  2 21 39  0.0020000  0  5 19 16 11 06 02
  22937825.778      817770.255 2    637216.791 2
  25334553.155      547912.887 2    426933.775 1
  25104394.381     1225062.613 2    954595.417 1
  22414874.703     -302255.411 3   -235511.632 2
  21476320.745   -11325604.822 4  -8825131.650 3
 91  5  2 21 39 15.0020000  0  5 19 16 11 06 02
  22944791.154      854378.405 2    665742.608 2
  25341755.366      585729.894 2    456401.484 1
  25113660.080     1273735.041 2    992521.934 1
  22411171.977     -321717.254 3   -250676.696 2
  21476346.833   -11325470.145 4  -8825026.710 3
 91  5  2 21 39 30.0020000  0  6 19 16 11 15 06 02
  22951775.412      891042.024 2    694311.623 1
  25348959.078      623591.204 2    485903.731 1
  25122934.155     1322491.468 2   1030513.911 1
  25471835.920           0.306 2         0.156 1
  22407471.326     -341158.058 3   -265825.355 2
  21476384.002   -11325273.313 4  -8824873.320 3
 91  5  2 21 39 45.0020000  0  6 19 16 11 15 06 02
  22958757.576      927758.917 2    722922.140 1
  25356177.186      661494.519 2    515438.749 1
  25132232.521     1371329.273 2   1068569.310 1
  25467205.627      -24360.427 2    -18982.146 1
  22403775.492     -360579.851 3   -280959.208 2
  21476431.083   -11325016.711 4  -8824673.378 3
 91  5  2 21 40  0.0020000  0  6 19 16 11 15 06 02
  22965758.341      964531.737 2    751576.262 2
  25363400.390      699442.112 2    545008.240 1
  25141543.469     1420250.933 2   1106690.022 1
  25462583.414      -48667.307 2    -37922.543 1
  22400083.550     -379979.798 3   -296076.045 2
  21476494.933   -11324697.655 4  -8824424.755 3
 91  5  2 21 40 15.0020000  0  6 19 16 11 15 06 02
  22972762.387     1001360.647 2    780274.068 1
  25370624.483      737433.877 2    574612.143 1
  25150867.016     1469256.222 2   1144875.930 1
  25457960.013      -72919.839 2    -56820.384 1
  22396396.406     -399357.540 3   -311175.587 2
  21476566.584   -11324315.887 4  -8824127.267 3
 91  5  2 21 40 30.0020000  0  6 19 16 11 15 06 02
  22979781.423     1038248.881 2    809018.114 2
  25377867.161      775472.689 2    604252.696 1
  25160209.147     1518348.058 2   1183129.252 1
  25453364.795      -97114.497 2    -75673.266 1
  22392713.450     -418709.607 3   -326255.106 2
  21476650.223   -11323868.248 4  -8823778.459 3
 91  5  2 21 40 45.0020000  0  6 19 16 11 15 06 02
  22986814.856     1075195.227 2    837807.434 2
  25385112.544      813556.837 2    633928.565 1
  25169567.175     1567524.862 2   1221448.807 1
  25448768.390     -121252.129 2    -94481.658 1
  22389037.387     -438037.156 3   -341315.514 2
  21476748.851   -11323356.018 4  -8823379.314 3
 91  5  2 21 41  0.0020000  0  6 19 16 11 15 06 02
  22993853.680     1112198.493 2    866641.101 2
  25392370.526      851685.201 2    663638.924 1
  25178941.083     1616785.136 2   1259833.375 1
  25444184.864     -145333.499 2   -113246.206 1
  22385367.031     -457341.165 3   -356357.599 2
  21476856.188   -11322780.469 4  -8822930.832 3
 91  5  2 21 41 15.0020000  0  6 19 16 11 15 06 02
  23000909.606     1149262.032 2    895521.763 2
  25399637.198      889860.552 2    693385.827 1
  25188327.276     1666131.957 2   1298285.387 1
  25439616.624     -169354.944 2   -131964.181 1
  22381696.377     -476618.033 3   -371378.514 2
  21476977.903   -11322138.288 4  -8822430.425 3
 91  5  2 21 41 30.0020000  0  6 19 16 11 15 06 02
  23007976.909     1186388.712 2    924451.590 2
  25406898.774      928085.283 2    723171.281 1
  25197735.962     1715567.657 2   1336806.631 1
  25435049.588     -193313.243 2   -150632.802 1
  22378032.914     -495864.975 3   -386376.122 2
  21477115.498   -11321426.939 4  -8821876.129 3
 91  5  2 21 41 45.0020000  0  6 19 16 11 15 06 02
  23015047.511     1223576.430 2    953429.015 2
  25414199.910      966356.719 2    752993.054 1
  25207166.234     1765089.872 2   1375395.335 1
  25430504.731     -217209.976 2   -169253.515 1
  22374378.140     -515083.936 3   -401351.936 2
  21477261.800   -11320648.562 4  -8821269.596 3
 91  5  2 21 42  0.0020000  0  6 19 16 11 15 06 02
  23022139.698     1260825.708 2    982454.376 2
  25421474.679     1004675.029 2    782851.444 1
  25216594.709     1814698.770 2   1414051.562 1
  25425970.658     -241044.447 2   -187825.770 1
  22370724.274     -534274.196 3   -416305.374 2
  21477423.093   -11319802.560 4  -8820610.372 3
 91  5  2 21 42 15.0020000  0  6 19 16 11 15 06 02
  23029232.496     1298137.420 2   1011528.403 2
  25428784.820     1043040.902 2    812746.826 1
  25226055.257     1864394.816 2   1452775.696 1
  25421452.203     -264815.320 2   -206348.430 1
  22367079.988     -553434.765 3   -431235.655 2
  21477598.171   -11318888.178 4  -8819897.867 3
 91  5  2 21 42 30.0020000  0  6 19 16 11 15 06 02
  23036350.475     1335512.181 2   1040651.541 2
  25436091.662     1081454.598 2    842679.351 1
  25235531.110     1914178.082 2   1491567.790 1
  25416937.623     -288521.544 2   -224820.699 1
  22363437.813     -572564.954 3   -446142.286 2
  21477784.940   -11317905.078 4  -8819131.806 3
 91  5  2 21 42 45.0020000  0  6 19 16 11 15 06 02
  23043475.329     1372949.775 2   1069823.669 1
  25443412.290     1119915.555 2    872649.062 1
  25245023.435     1964048.211 2   1530427.553 1
  25412446.129     -312162.917 2   -243242.375 1
  22359805.236     -591664.713 3   -461025.230 2
  21477983.995   -11316853.295 4  -8818312.231 3
 91  5  2 21 43  0.0020000  0  5 19 11 15 06 02
  23050611.892     1410449.960 2   1099044.536 1
  25254530.156     2014004.692 2   1569354.644 1
  25407946.852     -335739.408 2   -261613.616 1
  22356173.846     -610734.059 3   -475884.463 2
  21478200.448   -11315733.256 4  -8817439.468 3
 91  5  2 21 43 15.0020000  0  5 19 11 15 06 02
  23057759.554     1448011.769 2   1128313.468 1
  25264050.664     2064046.218 2   1608348.020 1
  25403473.035     -359251.643 2   -279934.766 1
  22352549.052     -629773.884 3   -490720.667 2
  21478425.294   -11314545.871 4  -8816514.228 3
 91  5  2 21 43 30.0020000  0  5 19 11 15 06 02
  23064917.389     1485635.646 2   1157630.720 1
  25273589.755     2114172.804 2   1647407.630 1
  25399006.739     -382698.821 2   -298205.149 1
  22348932.651     -648783.529 3   -505533.350 2
  21478665.426   -11313290.858 4  -8815536.294 3
 91  5  2 21 43 45.0020000  0  5 19 11 15 06 02
  23072088.119     1523321.590 2   1186996.352 2
  25283144.744     2164384.156 2   1686533.332 1
  25394570.108     -406080.513 2   -316424.518 1
  22345320.160     -667762.910 3   -520322.486 2
  21478915.749   -11311968.274 4  -8814505.703 3
 91  5  2 21 44  0.0020000  0  5 19 11 15 06 02
  23079276.248     1561066.826 2   1216408.167 1
  25292711.128     2214676.905 2   1725722.394 1
  25390132.570     -429399.201 2   -334594.855 1
  22341714.561     -686714.639 3   -535090.077 2
  21479176.875   -11310581.116 4  -8813424.795 3
 91  5  2 21 44 15.0020000  0  5 19 11 15 06 02
  23086466.767     1598871.080 2   1245865.986 1
  25302299.691     2265050.651 2   1764974.639 1
  25385702.239     -452654.678 2   -352715.892 1
  22338113.743     -705638.893 3   -549836.225 2
  21479453.286   -11309129.574 4  -8812293.716 3
 91  5  2 21 44 30.0020000  0  5 19 11 15 06 02
  23093671.683     1636730.707 2   1275366.970 1
  25311900.243     2315501.333 2   1804286.813 1
  25381287.508     -475850.410 2   -370790.361 1
  22334518.632     -724539.029 3   -564563.594 2
  21479741.982   -11307617.523 4  -8811115.494 3
 91  5  2 21 44 45.0020000  0  5 19 11 15 06 02
  23100884.992     1674646.357 2   1304911.584 1
  25321516.377     2366029.324 2   1843659.209 1
  25376884.155     -498985.007 2   -388817.208 1
  22330925.021     -743414.095 3   -579271.433 2
  21480044.482   -11306044.027 4  -8809889.396 3
 91  5  2 21 45  0.0020000  0  5 19 11 15 06 02
  23108116.293     1712616.852 2   1334498.937 2
  25331146.908     2416633.209 2   1883090.761 1
  25372498.479     -522059.345 2   -406797.092 1
  22327340.101     -762265.289 3   -593960.661 2
  21480354.764   -11304410.558 4  -8808616.563 3
 91  5  2 21 45 15.0020000  0  5 19 11 15 06 02
  23115347.872     1750639.964 2   1364127.294 1
  25340790.631     2467310.204 2   1922579.254 1
  25368119.120     -545075.478 2   -424731.737 1
  22323756.681     -781094.708 3   -608632.942 2
  21480673.440   -11302719.509 4  -8807298.856 3
 91  5  2 21 45 30.0020000  0  5 19 11 15 06 02
  23122595.052     1788719.665 2   1393799.751 1
  25350449.047     2518063.914 2   1962127.597 1
  25363745.136     -568029.044 2   -442617.460 1
  22320178.060     -799898.256 3   -623285.043 2
  21481009.200   -11300966.960 4  -8805933.229 3
 91  5  2 21 45 45.0020000  0  5 19 11 15 06 02
  23129849.143     1826853.132 2   1423514.101 1
  25360121.249     2568891.294 2   2001733.280 1
  25359394.849     -590922.322 2   -460456.331 1
  22316605.128     -818678.532 3   -637919.008 2
  21481354.260   -11299155.676 4  -8804521.839 3
 91  5  2 21 46  0.0020000  0  6 19 13 11 15 06 02
  23137117.612     1865039.800 2   1453269.882 2
  25366183.054           0.984 2         0.476 1
  25369805.143     2619791.466 2   2041395.670 1
  25355048.157     -613755.520 2   -478248.332 1
  22313034.011     -837435.751 3   -652535.012 2
  21481710.419   -11297286.279 4  -8803065.162 3
 91  5  2 21 46 15.0020000  0  6 19 13 11 15 06 02
  23144392.678     1903279.585 2   1483067.050 1
  25355767.071      -54731.519 2    -42648.371 1
  25379508.232     2670764.112 2   2081114.607 1
  25350715.565     -636528.422 2   -495993.382 1
  22309469.769     -856169.890 3   -667133.059 2
  21482075.862   -11295358.849 4  -8801563.265 3
 91  5  2 21 46 30.0020000  0  6 19 13 11 15 06 02
  23151680.028     1941566.950 2   1512901.347 1
  25345355.870     -109472.542 2    -85303.936 1
  25389215.509     2721803.214 2   2120885.287 1
  25346390.755     -659246.359 2   -513695.542 1
  22305908.546     -874886.367 3   -681717.330 2
  21482452.403   -11293379.155 4  -8800020.644 3
 91  5  2 21 46 45.0020000  0  6 19 13 11 15 06 02
  23158973.678     1979904.780 2   1542774.940 1
  25334938.683     -164218.775 2   -127963.455 1
  25398944.668     2772911.266 2   2160709.643 1
  25342084.233     -681906.035 2   -531352.350 1
  22302348.213     -893582.175 3   -696285.460 2
  21482839.745   -11291344.246 4  -8798435.004 3
 91  5  2 21 47  0.0020000  0  6 19 13 11 15 06 02
  23166279.613     2018288.451 2   1572684.259 1
  25324509.805     -218974.385 2   -170629.937 1
  25408679.831     2824083.193 2   2200583.828 1
  25337770.522     -704511.563 2   -548966.958 1
  22298793.569     -912261.865 3   -710841.057 2
  21483235.167   -11289258.969 4  -8796810.116 3
 91  5  2 21 47 15.0020000  0  6 19 13 11 15 06 02
  23173588.253     2056722.023 2   1602632.449 1
  25314091.414     -273734.881 2   -213300.592 1
  25418434.188     2875322.746 2   2240510.700 1
  25333488.587     -727058.473 2   -566535.873 1
  22295246.725     -930921.081 3   -725380.715 2
  21483643.188   -11287119.279 4  -8795142.818 3
 91  5  2 21 47 30.0020000  0  6 19 13 11 15 06 02
  23180916.978     2095204.507 2   1632618.762 1
  25303668.835     -328500.829 2   -255975.557 1
  25428194.828     2926628.729 2   2280489.371 1
  25329206.060     -749547.331 2   -584059.637 1
  22291695.972     -949560.640 3   -739905.051 2
  21484060.789   -11284926.176 4  -8793433.899 3
 91  5  2 21 47 45.0020000  0  6 19 13 11 15 06 02
  23188248.408     2133736.041 2   1662643.307 2
  25293251.649     -383271.664 2   -298654.373 1
  25437970.457     2978000.840 2   2320519.514 1
  25324931.018     -771977.919 1   -601537.900 1
  22288155.131     -968180.247 3   -754413.818 2
  21484485.597   -11282679.606 4  -8791683.328 3
 91  5  2 21 48  0.0020000  0  6 19 13 11 15 06 02
  23195589.435     2172316.722 2   1692706.107 1
  25282823.660     -438046.745 2   -341336.099 1
  25447757.778     3029438.839 2   2360601.015 1
  25320682.955     -794349.532 2   -618970.245 1
  22284614.586     -986779.551 3   -768906.761 2
  21484924.488   -11280379.583 4  -8789891.100 3
 91  5  2 21 48 15.0020000  0  6 19 13 11 15 06 02
  23202938.246     2210950.386 2   1722810.226 1
  25272399.877     -492822.044 1   -384018.206 1
  25457556.495     3080946.221 2   2400736.617 1
  25316429.796     -816657.774 2   -636353.180 1
  22281080.027    -1005354.581 3   -783380.818 2
  21485373.883   -11278022.304 4  -8788054.257 3
 91  5  2 21 48 30.0020000  0  6 19 13 11 15 06 02
  23210300.841     2249635.512 2   1752954.416 1
  25261978.503     -547598.616 1   -426701.496 1
  25467371.108     3132521.264 2   2440924.874 1
  25312195.535     -838903.695 2   -653687.643 1
  22277548.470    -1023906.641 3   -797836.952 2
  21485832.562   -11275609.353 4  -8786174.035 3
 91  5  2 21 48 45.0020000  0  6 19 13 11 15 06 02
  23217672.738     2288373.873 2   1783140.127 2
  25251554.109     -602374.487 1   -469383.771 1
  25477200.100     3184165.159 2   2481166.804 1
  25307974.153     -861085.477 2   -670971.967 1
  22274025.620    -1042433.870 3   -812273.752 2
  21486301.746   -11273139.023 4  -8784249.101 3
 91  5  2 21 49  0.0020000  0  5 19 11 15 06 02
  23225060.532     2327167.564 2   1813368.910 1
  25487040.784     3235879.885 2   2521463.965 1
  25303772.856     -883200.381 2   -688204.308 1
  22270507.551    -1060933.801 3   -826689.278 2
  21486784.105   -11270609.114 4  -8782277.745 3
 91  5  2 21 49 15.0020000  0  5 19 11 15 06 02
  23232452.514     2366016.074 2   1843640.460 1
  25496893.473     3287664.429 2   2561815.481 1
  25299578.469     -905248.958 2   -705384.817 1
  22266987.389    -1079407.064 3   -841083.996 2
  21487277.266   -11268020.491 4  -8780260.639 3
 91  5  2 21 49 30.0020000  0  5 19 11 15 06 02
  23239857.689     2404919.803 2   1873954.992 1
  25506768.028     3339518.956 2   2602221.544 1
  25295395.757     -927230.280 2   -722513.135 1
  22263479.808    -1097852.853 3   -855457.328 2
  21487782.711   -11265372.585 4  -8778197.337 3
 91  5  2 21 49 45.0020000  0  5 19 11 15 06 02
  23247265.254     2443879.890 2   1904313.462 2
  25516647.696     3391444.288 2   2642682.801 1
  25291223.549     -949142.553 2   -739587.434 1
  22259975.839    -1116269.799 3   -869808.198 2
  21488297.161   -11262664.274 4  -8776086.963 3
 91  5  2 21 50  0.0020000  0  5 19 11 15 06 02
  23254691.717     2482897.888 2   1934717.059 1
  25526542.946     3443441.415 2   2683200.003 1
  25287068.426     -970984.192 2   -756606.770 1
  22256473.371    -1134656.405 3   -884135.432 3
  21488826.897   -11259894.527 4  -8773928.715 3
 91  5  2 21 50 15.0020000  0  5 19 11 15 06 02
  23262120.572     2521974.764 2   1965166.519 1
  25536447.777     3495510.951 2   2723773.558 1
  25282929.199     -992753.951 2   -773570.252 1
  22252980.483    -1153011.542 3   -898438.102 2
  21489362.916   -11257062.220 4  -8771721.724 3
 91  5  2 21 50 30.0020000  0  5 19 11 15 06 02
  23269580.906     2561114.310 2   1995664.800 1
  25546380.511     3547656.430 2   2764406.348 1
  25278796.848    -1014447.537 2   -790474.523 1
  22249496.302    -1171331.124 3   -912713.086 2
  21489916.646   -11254163.523 4  -8769462.992 3
 91  5  2 21 50 45.0020000  0  6 19 13 11 15 06 02
  23277034.051     2600319.320 2   2026214.120 2
  25168200.422       76624.54612     59706.400 1
  25556309.336     3599880.470 2   2805100.333 1
  25274678.597    -1036061.546 2   -807316.679 1
  22246017.497    -1189612.024 3   -926957.962 2
  21490478.752   -11251195.585 4  -8767150.307 3
 91  5  2 21 51  0.0020000  0  6 19 13 11 15 06 02
  23284509.062     2639588.121 2   2056813.118 1
  25157795.520       65687.308 2     51183.764 1
  25566265.139     3652180.988 2   2845853.916 1
  25270578.336    -1057597.411 2   -824097.779
  22242545.008    -1207855.869 3   -941173.943 2
  21491054.348   -11248160.309 4  -8764785.163 3
 91  5  2 21 51 15.0020000  0  6 19 13 11 15 06 02
  23291996.095     2678921.885 2   2087462.759 1
  25147387.931       11004.686 2      8574.142 1
  25576233.837     3704558.749 2   2886667.733 1
  25266499.959    -1079053.841 2   -840816.927 1
  22239079.412    -1226061.378 3   -955360.034 2
  21491645.840   -11245056.562 4  -8762366.658 3
 91  5  2 21 51 30.0020000  0  6 19 13 11 15 06 02
  23299495.099     2718321.609 2   2118163.809 1
  25136980.324      -43659.917 2    -34021.832 1
  25586209.429     3757014.507 2   2927542.300 1
  25262435.384    -1100429.069 2   -857472.808 1
  22235623.693    -1244227.075 3   -969515.119 2
  21492252.026   -11241883.404 4  -8759894.065 3
 91  5  2 21 51 45.0020000  0  6 19 13 11 15 06 02
  23307000.996     2757787.125 2   2148916.119 1
  25126586.818      -98306.317 2    -76603.235
  25596202.418     3809547.589 2   2968477.100 1
  25258372.886    -1121723.011 2   -874065.389 1
  22232171.290    -1262353.187 3   -983639.368 2
  21492868.996   -11238641.067 4  -8757367.560 3
 91  5  2 21 52  0.0020000  0  6 19 13 11 15 06 02
  23314527.589     2797320.164 2   2179721.017 1
  25116189.123     -152932.498 2   -119168.886 1
  25606211.584     3862159.412 2   3009473.229 1
  25254345.481    -1142933.402 2   -890592.887 1
  22228732.062    -1280437.772 3   -997731.231 2
  21493500.066   -11235327.918 4  -8754785.889 3
 91  5  2 21 52 15.0020000  0  6 19 13 11 15 06 02
  23322059.278     2836918.113 2   2210576.537 1
  25105798.618     -207540.532 2   -161720.838 1
  25616244.744     3914847.184 2   3050528.608 1
  25250318.668    -1164062.639 2   -907057.136 1
  22225301.837    -1298483.094 3  -1011792.516 2
  21494141.623   -11231946.584 4  -8752151.078 3
 91  5  2 21 52 30.0020000  0  6 19 13 11 15 06 02
  23329605.642     2876579.449 2   2241481.413 1
  25095411.410     -262131.600 2   -204259.085 1
  25626284.796     3967609.135 2   3091641.738 1
  25246313.739    -1185111.907 2   -923459.041 1
  22221875.819    -1316490.440 3  -1025824.206 2
  21494798.152   -11228498.505 4  -8749464.259 3
 91  5  2 21 52 45.0020000  0  6 19 13 11 15 06 02
  23337163.418     2916305.832 2   2272437.000 1
  25085020.905     -316703.675 2   -246782.538 1
  25636336.837     4020446.211 2   3132813.390 1
  25242330.692    -1206079.442 2   -939797.211 1
  22218454.878    -1334458.286 3  -1039825.108 2
  21495468.799   -11224982.273 4  -8746724.329 3
 91  5  2 21 53  0.0020000  0  6 19 13 11 15 06 02
  23344740.669     2956095.804 2   2303442.113 1
  25074641.795     -371257.667 2   -289291.914 1
  25646408.667     4073356.706 2   3174042.289 1
  25238358.446    -1226966.120 2   -956072.513 1
  22215043.552    -1352387.660 3  -1053796.042 2
  21496148.433   -11221399.298 4  -8743932.401 3
 91  5  2 21 53 15.0020000  0  6 19 13 11 15 06 02
  23352321.533     2995949.973 2   2334497.259 2
  25064263.278     -425792.514 2   -331786.391 1
  25656489.186     4126341.019 2   3215328.706 1
  25234395.798    -1247770.729 2   -972283.819 1
  22211638.195    -1370277.787 3  -1067736.408 2
  21496842.742   -11217748.918 4  -8741087.951 3
 91  5  2 21 53 30.0020000  0  6 19 13 11 15 06 02
  23359921.259     3035870.950 2   2365604.457 1
  25053889.245     -480305.532 2   -374264.306 1
  25666587.994     4179401.336 2   3256674.355 1
  25230446.029    -1268490.312 2   -988428.822 1
  22208241.562    -1388125.829 3  -1081643.946 2
  21497550.261   -11214028.642 4  -8738189.034 3
 91  5  2 21 53 45.0020000  0  6 19 13 11 15 06 02
  23367525.192     3075856.879 2   2396762.280 1
  25043524.532     -534797.887 2   -416725.671 1
  25676699.383     4232535.433 2   3298077.481 1
  25226522.644    -1289126.762 2  -1004509.107 1
  22204851.805    -1405933.602 3  -1095520.116 2
  21498272.456   -11210240.607 4  -8735237.306 3
 91  5  2 21 54  0.0020000  0  6 19 13 11 15 06 02
  23375154.026     3115909.850 2   2427972.322 1
  25033156.799     -589267.002 2   -459169.306
  25686825.482     4285745.228 2   3339539.597 1
  25222614.842    -1309677.080 2  -1020522.164 1
  22201473.146    -1423698.590 3  -1109362.973 2
  21499007.843   -11206382.678 4  -8732231.127 3
 91  5  2 21 54 15.0020000  0  6 19 13 11 15 06 02
  23382783.139     3156029.869 2   2459234.638 1
  25022798.384     -643712.555 1   -501594.310 1
  25696969.259     4339030.285 2   3381060.299 1
  25218722.344    -1330141.150 2  -1036468.155 1
  22198100.473    -1441420.614 3  -1123172.346 2
  21499753.735   -11202454.808 4  -8729170.444 3
 91  5  2 21 54 30.0020000  0  6 19 13 11 15 06 02
  23390433.244     3196219.077 2   2490550.822 1
  25012445.345     -698132.007 2   -543999.185 1
  25707120.225     4392392.552 2   3422641.225 1
  25214843.336    -1350516.355 2  -1052344.816 1
  22194735.303    -1459097.424 3  -1136946.476 3
  21500515.804   -11198454.918 4  -8726053.642 3
 91  5  2 21 54 45.0020000  0  6 19 13 11 15 06 02
  23398094.727     3236475.356 2   2521919.280 2
  25002094.417     -752527.161 1   -586385.262 1
  25717292.184     4445829.350 2   3464280.275 1
  25210985.895    -1370804.597 2  -1068153.760 1
  22191380.935    -1476731.008 3  -1150686.914 2
  21501290.768   -11194385.327 4  -8722882.526 3
 91  5  2 21 55  0.0020000  0  6 19 13 11 15 06 02
  23405768.531     3276798.768 2   2553340.080 1
  24991750.067     -806897.429 1   -628751.528 1
  25727480.336     4499340.513 2   3505977.170 1
  25207139.553    -1391005.387 2  -1083894.524 1
  22188032.238    -1494320.968 3  -1164393.391 2
  21502078.313   -11190245.713 4  -8719656.858 3
 91  5  2 21 55 15.0020000  0  6 19 13 11 15 06 02
  23413450.099     3317190.835 2   2584814.365 1
  24981402.437     -861241.034 1   -671097.360 1
  25737679.867     4552927.292 2   3547733.109 1
  25203310.312    -1411116.718 2  -1099565.582 1
  22184692.860    -1511865.474 3  -1178064.436 2
  21502879.662   -11186034.715 4  -8716375.557 3
 91  5  2 21 55 30.0020000  0  6 19 13 11 15 06 02
  23421154.178     3357650.791 2   2616341.563 1
  24971061.386     -915558.098 1   -713422.173 1
  25747879.414     4606588.594 2   3589547.076 1
  25199506.845    -1431138.903 2  -1115167.180 1
  22181365.156    -1529365.233 3  -1191700.594 2
  21503694.204   -11181753.322 4  -8713039.404 3
 91  5  2 21 55 45.0020000  0  6 19 13 11 15 06 02
  23428860.631     3398177.917 2   2647921.075 1
  24960737.749     -969848.903 2   -755726.860 1
  25758102.345     4660323.131 2   3631418.025 1
  25195706.380    -1451072.415 2  -1130699.692 1
  22178045.566    -1546820.816 3  -1205302.340 2
  21504520.437   -11177402.308 4  -8709648.996 3
 91  5  2 21 56  0.0020000  0  6 19 13 11 15 06 02
  23436587.482     3438772.859 2   2679553.438 1
  24950405.685    -1024112.680 1   -798010.147 1
  25768351.050     4714131.373 2   3673346.454 1
  25191933.782    -1470916.259 2  -1146162.298 1
  22174730.461    -1564231.298 3  -1218868.949 2
  21505362.252   -11172980.970 4  -8706203.796 3
 91  5  2 21 56 15.0020000  0  6 19 13 11 15 06 02
  23444325.136     3479433.594 2   2711237.078 1
  24940085.644    -1078350.980 2   -840273.589 1
  25778597.347     4768010.927 2   3715330.475 1
  25188174.691    -1490672.128 2  -1161556.406 1
  22171425.250    -1581598.381 3  -1232401.729 2
  21506218.151   -11168491.354 4  -8702705.398 3
 91  5  2 21 56 30.0020000  0  6 19 13 11 15 06 02
  23452078.058     3520160.398 2   2742972.213 1
  24929772.774    -1132563.149 2   -882517.076 1
  25788865.840     4821961.865 2   3757370.142 1
  25184432.981    -1510339.080 2  -1176881.263 1
  22168128.118    -1598921.721 3  -1245900.424 2
  21507088.149   -11163933.268 4  -8699153.639 3
 91  5  2 21 56 45.0020000  0  6 19 13 11 15 06 02
  23459839.095     3560952.087 2   2774757.895 1
  24919461.720    -1186749.689 2   -924740.288 1
  25799147.526     4875982.672 2   3799464.230 1
  25180701.164    -1529918.251 2  -1192137.629 1
  22164839.101    -1616202.177 3  -1259365.693 2
  21507965.040   -11159307.902 4  -8695549.454 3
 91  5  2 21 57  0.0020000  0  6 19 13 11 15 06 02
  23467615.400     3601810.043 2   2806595.241 1
  24909155.150    -1240908.869 2   -966942.021 1
  25809438.792     4930074.318 2   3841613.531 1
  25176995.122    -1549407.895 2  -1207324.239 1
  22161559.665    -1633438.169 3  -1272796.326 2
  21508858.421   -11154613.786 4  -8691891.701 3
 91  5  2 21 57 15.0020000  0  6 19 13 11 15 06 02
  23475399.227     3642731.040 2   2838481.674 1
  24898852.175    -1295043.587 2  -1009125.102 1
  25819742.063     4984233.280 2   3883815.268 1
  25173301.679    -1568810.678 2  -1222443.232 1
  22158287.435    -1650632.760 3  -1286194.692 2
  21509765.291   -11149854.379 4  -8688183.077 3
 91  5  2 21 57 30.0020000  0  6 19 13 11 15 06 02
  23483190.226     3683711.511 2   2870414.470 1
  24888553.720    -1349157.074 2  -1051291.287 1
  25830063.012     5038455.635 2   3926066.392 1
  25169628.321    -1588129.794 2  -1237497.034 1
  22155023.598    -1667789.335 3  -1299563.456 2
  21510681.759   -11145033.395 4  -8684426.473 3
 91  5  2 21 57 45.0020000  0  6 19 13 11 15 06 02
  23491010.314     3724752.634 2   2902394.507 1
  24878254.043    -1403247.772 2  -1093439.708 1
  25840396.263     5092742.100 2   3968367.503 1
  25165964.264    -1607363.963 2  -1252484.560 1
  22151764.247    -1684906.586 3  -1312901.560 2
  21511611.123   -11140149.655 4  -8680620.960 3
 91  5  2 21 58  0.0020000  0  6 19 13 11 15 06 02
  23498828.605     3765852.550 2   2934420.384 1
  24867964.260    -1457317.088 2  -1135571.562 1
  25850740.613     5147090.424 2   4010716.761 1
  25162320.588    -1626514.678 2  -1267407.023 1
  22148514.510    -1701986.154 3  -1326210.297 2
  21512551.864   -11135205.178 4  -8676768.120 3
 91  5  2 21 58 15.0020000  0  6 19 13 11 15 06 02
  23506665.166     3807008.267 2   2966489.718 1
  24857686.780    -1511367.395 2  -1177688.659 1
  25861088.836     5201497.372 2   4053111.738 1
  25158690.105    -1645584.401 2  -1282266.493 1
  22145271.649    -1719030.690 3  -1339491.745 2
  21513504.908   -11130202.973 4  -8672870.294 3
 91  5  2 21 58 30.0020000  0  6 19 13 11 15 06 02
  23514504.449     3848220.794 2   2998603.322 1
  24847402.407    -1565397.262 2  -1219789.814 1
  25871452.660     5255963.629 2   4095552.942 1
  25155078.207    -1664571.605 2  -1297061.624 1
  22142035.994    -1736038.971 3  -1352744.960 2
  21514467.549   -11125141.869 4  -8668926.576 3
 91  5  2 21 58 45.0020000  0  6 19 13 11 15 06 02
  23522361.113     3889490.244 2   3030761.290 1
  24837119.814    -1619406.430 2  -1261874.633 1
  25881830.287     5310489.010 2   4138040.131 1
  25151481.595    -1683475.931 2  -1311792.178 1
  22138805.732    -1753010.697 3  -1365969.655 2
  21515441.271   -11120021.738 4  -8664936.862 3
 91  5  2 21 59  0.0020000  0  6 19 13 11 15 06 02
  23530220.168     3930816.506 2   3062963.512 1
  24826843.834    -1673394.655 2  -1303943.245 1
  25892218.384     5365073.032 2   4180573.097 1
  25147902.974    -1702297.095 2  -1326457.885 1
  22135579.658    -1769945.788 3  -1379165.829 2
  21516426.982   -11114842.816 4  -8660901.337 3
 91  5  2 21 59 15.0020000  0  6 19 13 11 15 06 02
  23538097.807     3972201.398 2   3095211.435 1
  24816574.451    -1727359.645 2  -1345993.702 1
  25902616.096     5419717.375 2   4223153.012 1
  25144330.949    -1721032.747 2  -1341057.127 1
  22132368.277    -1786842.053 3  -1392331.750 2
  21517423.197   -11109603.383 4  -8656818.659 3
 91  5  2 21 59 30.0020000  0  5 19 13 15 06 02
  23545983.857     4013644.130 2   3127504.392 1
  24806302.659    -1781301.410 2  -1388026.458 1
  25140781.697    -1739683.311 2  -1355589.832 1
  22129160.194    -1803699.969 3  -1405467.759 2
  21518431.698   -11104304.308 4  -8652689.514 3
 91  5  2 21 59 45.0020000  0  5 19 13 15 06 02
  23553882.489     4055143.576 2   3159841.603 1
  24796059.050    -1835220.763 2  -1430041.416 1
  25137254.048    -1758249.750 2  -1370057.124 1
  22125960.522    -1820520.599 3  -1418574.747 2
  21519452.186   -11098946.702 4  -8648514.755 3
 91  5  2 22  0  0.0020000  0  5 19 13 15 06 02
  23561794.313     4096703.093 2   3192225.580 1
  24785791.761    -1889113.793 2  -1472036.228 1
  25133735.369    -1776728.393 2  -1384455.940 1
  22122768.930    -1837300.350 3  -1431649.868 2
  21520481.680   -11093527.196 4  -8644291.762 3
 91  5  2 22  0 15.0020000  0  5 19 13 15 06 02
  23569712.436     4138319.604 2   3224653.962 1
  24775561.937    -1942983.169 2  -1514012.202 1
  25130240.405    -1795122.175 2  -1398788.725 1
  22119580.339    -1854042.135 3  -1444695.399 2
  21521526.459   -11088049.013 4  -8640023.045 3
 91  5  2 22  0 30.0020000  0  5 19 13 15 06 02
  23577639.233     4179990.331 2   3257124.625 1
  24765293.147    -1996831.473 2  -1555971.683 1
  25126753.502    -1813433.135 2  -1413056.912 1
  22116402.532    -1870748.538 3  -1457713.378 2
  21522577.835   -11082515.001 4  -8635710.830 3
 91  5  2 22  0 45.0020000  0  5 19 13 15 06 02
  23585582.240     4221716.123 2   3289638.184 1
  24755057.338    -2050657.407 2  -1597913.777 1
  25123280.420    -1831659.869 2  -1427259.487 1
  22113230.135    -1887418.337 3  -1470702.801 3
  21523643.886   -11076924.095 4  -8631354.282 3
 91  5  2 22  1  0.0020000  0  5 19 13 15 06 02
  23593529.436     4263493.923 2   3322192.254 1
  24744814.322    -2104463.698 2  -1639840.557 1
  25119824.405    -1849805.328 2  -1441398.769 1
  22110061.926    -1904054.571 3  -1483666.105 2
  21524714.753   -11071279.819 4  -8626956.141 3
 91  5  2 22  1 15.0020000  0  5 19 13 15 06 02
  23601486.526     4305319.845 2   3354783.817 1
  24734583.311    -2158253.731 2  -1681754.695 1
  25116387.287    -1867872.883 2  -1455477.275 1
  22106902.703    -1920660.836 3  -1496606.039 2
  21525802.391   -11065585.966 4  -8622519.366 3
 91  5  2 22  1 30.0020000  0  5 19 13 15 06 02
  23609455.307     4347195.524 2   3387414.160 1
  24724347.782    -2212025.687 2  -1723654.722 1
  25112963.363    -1885860.632 2  -1469493.579 1
  22103749.187    -1937235.238 3  -1509521.161 2
  21526892.750   -11059841.112 4  -8618042.859 3
 91  5  2 22  1 45.0020000  0  5 19 13 15 06 02
  23617440.282     4389121.849 2   3420083.993 1
  24714120.366    -2265777.970 2  -1765539.443 1
  25109562.211    -1903767.295 2  -1483446.795 1
  22100598.969    -1953776.570 3  -1522410.493 2
  21527995.377   -11054044.129 4  -8613525.728 3
 91  5  2 22  2  0.0020000  0  5 19 13 15 06 02
  23625432.447     4431099.762 2   3452793.991 1
  24703909.144    -2319509.424 2  -1807407.919 1
  25106170.953    -1921591.462 2  -1497335.602 1
  22097460.443    -1970283.780 3  -1535273.240 2
  21529108.212   -11048194.180 4  -8608967.317 3
 91  5  2 22  2 15.0020000  0  5 19 13 15 06 02
  23633422.221     4473129.871 2   3485544.674 1
  24693673.318    -2373218.618 2  -1849259.164 1
  25102787.495    -1939332.289 2  -1511159.582 1
  22094324.325    -1986755.776 3  -1548108.554 2
  21530232.722   -11042290.477 4  -8604367.028 3
 91  5  2 22  2 30.0020000  0  5 19 13 15 06 02
  23641428.172     4515211.934 2   3518335.827 1
  24683456.093    -2426905.482 2  -1891093.333 1
  25099431.033    -1956989.564 2  -1524918.398 1
  22091195.082    -2003192.772 3  -1560916.598 2
  21531366.253   -11036333.447 4  -8599725.187 3
 91  5  2 22  2 45.0020000  0  5 19 13 15 06 02
  23649449.130     4557349.129 2   3551169.979 1
  24673250.560    -2480566.581 2  -1932907.031 1
  25096088.043    -1974559.702 2  -1538609.348 1
  22088074.547    -2019591.294 3  -1573694.653 2
  21532512.348   -11030319.998 4  -8595039.379 3
 91  5  2 22  3  0.0020000  0  5 19 13 15 06 02
  23657481.465     4599544.182 2   3584049.190 1
  24663035.429    -2534198.676 2  -1974698.088 1
  25092759.152    -1992039.726 2  -1552230.063 1
  22084966.296    -2035948.390 3  -1586440.428 2
  21533666.855   -11024247.413 4  -8590307.493 3
 91  5  2 22  3 15.0030000  0  5 19 13 15 06 02
  23665519.806     4641801.510 2   3616976.927 1
  24652845.186    -2587803.331 2  -2016467.884 1
  25089453.630    -2009428.930 2  -1565779.917 1
  22081858.643    -2052263.428 3  -1599153.433 2
  21534835.150   -11018113.811 4  -8585528.058 3
 91  5  2 22  3 30.0030000  0  5 19 13 15 06 02
  23673577.619     4684113.784 2   3649947.489 1
  24642645.359    -2641374.372 2  -2058211.745 1
  25086159.517    -2026725.946 2  -1579258.104 1
  22078763.881    -2068535.408 3  -1611832.885 2
  21536011.521   -11011921.368 4  -8580702.783 3
 91  5  2 22  3 45.0030000  0  5 19 13 15 06 02
  23681635.745     4726483.269 2   3682962.607 1
  24632463.506    -2694915.803 2  -2099932.298 1
  25082884.583    -2043932.450 2  -1592665.676 1
  22075674.826    -2084765.869 3  -1624479.983 2
  21537200.213   -11005670.500 4  -8575831.975 3
 91  5  2 22  4  0.0030000  0  5 19 13 15 06 02
  23689712.160     4768913.516 2   3716025.075 1
  24622279.245    -2748423.650 2  -2141626.895 1
  25079633.939    -2061044.465 2  -1605999.647 1
  22072590.570    -2100951.071 3  -1637091.825 2
  21538402.376   -10999357.899 4  -8570913.057 3
 91  5  2 22  4 15.0030000  0  5 19 13 15 06 02
  23697799.062     4811405.056 2   3749135.334 1
  24612102.191    -2801896.820 2  -2183294.174 1
  25076383.888    -2078060.932 2  -1619259.190 1
  22069525.178    -2117090.232 3  -1649667.778 2
  21539614.730   -10992982.756 4  -8565945.405 3
 91  5  2 22  4 30.0030000  0  5 19 13 15 06 02
  23705897.341     4853953.472 2   3782289.839 1
  24601930.843    -2855339.400 2  -2224937.688 1
  25073178.196    -2094986.334 2  -1632447.801 1
  22066461.007    -2133187.504 3  -1662211.098 2
  21540838.182   -10986549.493 4  -8560932.473 3
 91  5  2 22  4 45.0030000  0  5 19 13 15 06 02
  23714002.845     4896555.978 2   3815486.572 1
  24591768.168    -2908753.657 2  -2266559.351
  25069966.518    -2111822.633 2  -1645566.831 1
  22063404.915    -2149245.493 3  -1674723.799 3
  21542076.938   -10980061.155 4  -8555876.631 3
 91  5  2 22  5  0.0030000  0  5 19 13 15 06 02
  23722117.319     4939217.218 2   3848729.034 1
  24581607.010    -2962134.662 2  -2308154.999 1
  25066786.617    -2128564.968 2  -1658612.755 1
  22060358.735    -2165259.196 3  -1687202.002 2
  21543319.865   -10973513.191 4  -8550774.310 3
 91  5  2 22  5 15.0030000  0  5 19 13 15 06 02
  23730248.597     4981941.105 2   3882020.327 1
  24571460.232    -3015477.933 2  -2349721.052 1
  25063613.923    -2145209.087 2  -1671582.219 1
  22057317.337    -2181224.518 3  -1699642.511 2
  21544578.095   -10966901.593 4  -8545622.417 3
 91  5  2 22  5 30.0030000  0  5 19 13 15 06 02
  23738384.063     5024721.831 2   3915355.900 1
  24561312.250    -3068789.053 2  -2391262.001 1
  25060453.218    -2161760.444 2  -1684479.213 1
  22054289.427    -2197146.952 3  -1712049.590 2
  21545846.517   -10960232.209 4  -8540425.494 3
 91  5  2 22  5 45.0030000  0  5 19 13 15 06 02
  23746541.411     5067561.082 2   3948737.073 1
  24551176.274    -3122065.739 2  -2432776.146 1
  25057328.477    -2178217.039 2  -1697302.487 1
  22051269.022    -2213024.567 3  -1724421.751 2
  21547126.926   -10953503.365 4  -8535182.241 3
 91  5  2 22  6  0.0030000  0  5 19 13 15 06 02
  23754699.667     5110455.532 2   3982161.298 1
  24541041.484    -3175310.883 2  -2474265.685 1
  25054215.428    -2194581.646 2  -1710054.101 1
  22048253.415    -2228860.704 3  -1736761.590 3
  21548420.842   -10946718.530 4  -8529895.355 3
 91  5  2 22  6 15.0030000  0  5 19 13 15 06 02
  23762877.101     5153408.134 2   4015630.804 1
  24530913.604    -3228521.260 2  -2515728.092 1
  25051119.463    -2210851.363 2  -1722731.755 1
  22045249.499    -2244652.201 3  -1749066.656 3
  21549720.447   -10939874.792 4  -8524562.568 3
 91  5  2 22  6 30.0030000  0  5 19 13 15 06 02
  23771063.836     5196418.561 2   4049145.362 1
  24520791.414    -3281696.853 2  -2557163.510 1
  25048050.196    -2227025.905 2  -1735335.169 1
  22042253.663    -2260398.969 3  -1761336.864 2
  21551034.135   -10932972.530 4  -8519184.181 3
 91  5  2 22  6 45.0030000  0  5 19 13 15 06 02
  23779258.354     5239484.584 2   4082703.237 1
  24510682.712    -3334839.182 2  -2598572.980 1
  25044982.727    -2243106.758 2  -1747865.642 1
  22039264.738    -2276102.733 3  -1773573.551 2
  21552358.920   -10926013.704 4  -8513761.729 3
 91  5  2 22  7  0.0030000  0  5 19 13 15 06 02
  23787460.078     5282602.135 2   4116301.257 1
  24500575.808    -3387951.860 2  -2639959.372 1
  25041939.235    -2259097.765 2  -1760326.177 1
  22036281.501    -2291767.539 3  -1785779.881 2
  21553693.583   -10919002.570 4  -8508298.506 3
 91  5  2 22  7 15.0030000  0  5 19 13 15 06 02
  23795680.998     5325771.766 2   4149939.891 1
  24490471.608    -3441033.818 2  -2681321.731 1
  25038927.816    -2274998.083 2  -1772715.922
  22033309.956    -2307392.610 3  -1797955.245 2
  21555036.360   -10911938.620 4  -8502794.126 3
 91  5  2 22  7 30.0030000  0  5 19 13 15 06 02
  23803904.605     5368994.028 2   4183619.513 1
  24480382.991    -3494084.060 2  -2722659.410 1
  25035912.505    -2290806.707 2  -1785034.352 1
  22030342.912    -2322976.984 3  -1810098.906 2
  21556391.421   -10904821.406 4  -8497248.239 3
 91  5  2 22  7 45.0030000  0  5 19 13 15 06 02
  23812136.902     5412266.454 2   4217338.226 1
  24470291.373    -3547104.889 2  -2763974.132 1
  25032925.674    -2306526.044 2  -1797283.088 1
  22027382.762    -2338523.013 3  -1822212.690 2
  21557753.673   -10897653.346 4  -8491662.739 3
 91  5  2 22  8  0.0030000  0  5 19 13 15 06 02
  23820378.500     5455590.229 2   4251096.947 1
  24460206.055    -3600094.576 2  -2805264.710 1
  25029948.126    -2322154.732 2  -1809461.163 1
  22024433.396    -2354029.157 3  -1834295.389 2
  21559129.430   -10890433.428 4  -8486036.828 3
 91  5  2 22  8 15.0030000  0  5 19 13 15 06 02
  23828635.071     5498964.444 2   4284895.026 1
  24450130.928    -3653053.581 2  -2846531.287 1
  25026987.382    -2337692.984 2  -1821568.927 1
  22021491.534    -2369496.215 3  -1846347.636 2
  21560512.674   -10883162.532 4  -8480371.189 3
 91  5  2 22  8 30.0030000  0  5 19 13 15 06 02
  23836896.754     5542391.024 2   4318733.854 1
  24440055.207    -3705979.558 2  -2887772.155 1
  25024059.305    -2353138.488 2  -1833604.374 2
  22018556.268    -2384921.845 3  -1858367.585 2
  21561907.296   -10875838.668 4  -8474664.271 3
 91  5  2 22  8 45.0030000  0  5 19 13 15 06 02
  23845175.225     5585872.976 2   4352615.799 1
  24429991.771    -3758868.922 2  -2928984.524 1
  25021120.130    -2368487.987 2  -1845564.850 1
  22015629.098    -2400302.837 3  -1870352.760 3
  21563309.438   -10868458.719 4  -8468913.671 3
 91  5  2 22  9  0.0030000  0  5 19 13 15 06 02
  23853458.791     5629413.072 2   4386543.089 1
  24419933.430    -3811718.727 2  -2970165.983 1
  25018222.941    -2383738.180 2  -1857448.021 1
  22012710.916    -2415636.110 3  -1882300.767 3
  21564727.443   -10861020.141 4  -8463117.374 3
 91  5  2 22  9 15.0030000  0  5 19 13 15 06 02
  23861748.360     5673009.540 2   4420514.308 1
  24409884.391    -3864529.968 2  -3011317.474 1
  25015336.535    -2398890.500 2  -1869254.932 1
  22009802.924    -2430923.133 3  -1894212.722 3
  21566155.063   -10853524.643 4  -8457276.721 3
 91  5  2 22  9 30.0030000  0  5 19 13 15 06 02
  23870059.497     5716665.445 2   4454531.854 1
  24399850.027    -3917299.169 2  -3052436.190 1
  25012470.825    -2413941.505 2  -1880982.988 1
  22006903.030    -2446160.600 3  -1906086.065 2
  21567590.168   -10845969.082 4  -8451389.270 3
 91  5  2 22  9 45.0030000  0  5 19 13 15 06 02
  23878379.342     5760381.388 2   4488596.145 1
  24389814.180    -3970025.709 2  -3093521.599 1
  25009623.107    -2428890.342 2  -1892631.360 1
  22004013.640    -2461347.770 3  -1917920.215 3
  21569039.060   -10838352.993 4  -8445454.654 3
 91  5  2 22 10  0.0030000  0  5 19 13 15 06 02
  23886708.174     5804158.330 2   4522708.015 1
  24379785.523    -4022708.202 2  -3134572.762 1
  25006806.851    -2443735.859 2  -1904199.208 1
  22001132.941    -2476483.473 3  -1929714.262 3
  21570500.847   -10830675.442 4  -8439472.143 3
 91  5  2 22 10 15.0030000  0  5 19 13 15 06 02
  23895056.794     5847999.618 2   4556870.029 1
  24369765.869    -4075342.628 2  -3175586.563 1
  25003996.598    -2458474.183 2  -1915683.626 1
  21998261.821    -2491564.058 3  -1941465.368 3
  21571975.827   -10822933.059 4  -8433439.118 3
 91  5  2 22 10 30.0030000  0  5 19 13 15 06 02
  23903412.604     5891906.349 2   4591083.006 1
  24359764.783    -4127927.254 2  -3216561.382 1
  25001213.917    -2473103.690 2  -1927083.192 1
  21995403.895    -2506587.986 3  -1953172.313 3
  21573462.202   -10815124.859 4  -8427354.801 3
 91  5  2 22 10 45.0030000  0  5 19 13 15 06 02
  23911780.717     5935881.536 2   4625349.309 1
  24349768.810    -4180458.708 2  -3257494.840 1
  24998454.636    -2487621.112 2  -1938395.390 1
  21992557.066    -2521552.155 3  -1964832.706 3
  21574959.064   -10807247.828 4  -8421216.856 3
 91  5  2 22 11  0.0030000  0  5 19 13 15 06 02
  23920155.722     5979921.743 2   4659666.278 1
  24339779.415    -4232939.946 2  -3298389.490 1
  24995716.330    -2502029.701 2  -1949622.839 1
  21989721.929    -2536459.690 3  -1976448.967 3
  21576470.322   -10799305.445 4  -8415027.985 3
 91  5  2 22 11 15.0030000  0  5 19 13 15 06 02
  23928551.109     6024028.733 2   4694035.336 1
  24329803.527    -4285368.892 2  -3339243.279 1
  24992993.608    -2516327.198 2  -1960763.615 1
  21986897.594    -2551308.560 3  -1988019.511 3
  21577993.569   -10791295.859 4  -8408786.751 3
 91  5  2 22 11 30.0030000  0  5 19 13 15 06 02
  23936953.092     6068202.797 2   4728456.589 1
  24319834.532    -4337744.779 2  -3380055.432 1
  24990293.378    -2530513.018 2  -1971817.395 1
  21984081.635    -2566098.170 3  -1999543.862 3
  21579531.509   -10783218.885 4  -8402493.004 3
 91  5  2 22 11 45.0030000  0  5 19 13 15 06 02
  23945375.457     6112442.850 2   4762929.298 1
  24309878.729    -4390068.074 2  -3420826.662 1
  24987615.032    -2544587.727 2  -1982784.801 1
  21981276.477    -2580829.280 3  -2011022.644 3
  21581080.827   -10775075.507 4  -8396147.514 3
 91  5  2 22 12  0.0030000  0  5 19 13 15 06 02
  23953803.825     6156746.502 2   4797451.563 1
  24299933.413    -4442340.701 2  -3461558.469 1
  24984961.569    -2558553.353 2  -1993666.906 1
  21978481.511    -2595504.025 3  -2022457.499 3
  21582645.745   -10766868.155 4  -8389752.183 3
 91  5  2 22 12 15.0030000  0  5 19 13 15 06 02
  23962252.871     6201115.481 2   4832024.710 1
  24289993.787    -4494560.856 2  -3502249.676 1
  24982322.206    -2572408.145 2  -2004462.779 1
  21975703.628    -2610120.519 3  -2033846.965 3
  21584218.760   -10758595.220 4  -8383305.733 3
 91  5  2 22 12 30.0030000  0  5 19 13 15 06 02
  23970709.125     6245550.827 2   4866649.578 1
  24280067.353    -4546726.938 2  -3542898.676 1
  24979712.212    -2586150.658 2  -2015171.179 1
  21972929.654    -2624677.310 3  -2045189.917 3
  21585804.653   -10750255.650 4  -8376807.366 3
 91  5  2 22 12 45.0030000  0  5 19 13 15 06 02
  23979170.474     6290050.140 2   4901324.333 1
  24270154.128    -4598840.892 2  -3583506.713 1
  24977110.611    -2599782.767 2  -2025793.567 1
  21970175.469    -2639176.673 3  -2056488.100 3
  21587403.460   -10741851.727 4  -8370258.860 3
 91  5  2 22 13  0.0030000  0  5 19 13 15 06 02
  23987657.596     6334613.570 2   4936048.989 1
  24260246.278    -4650902.075 2  -3624073.738 1
  24974536.582    -2613304.041 2  -2036329.554 1
  21967426.362    -2653618.154 3  -2067741.195 3
  21589016.034   -10733383.308 4  -8363660.092 3
 91  5  2 22 13 15.0030000  0  5 19 13 15 06 02
  23996145.906     6379241.120 2   4970823.661 1
  24250342.338    -4702909.906 2  -3664599.246 1
  24971993.457    -2626713.955 2  -2046778.751 1
  21964688.667    -2668001.370 3  -2078948.891 3
  21590640.318   -10724850.387 4  -8357011.064 3
 91  5  2 22 13 30.0030000  0  5 19 13 15 06 02
  24004646.221     6423935.550 2   5005650.404 1
  24240458.185    -4754861.209 2  -3705080.630 1
  24969456.004    -2640009.394 2  -2057138.822 1
  21961964.444    -2682323.291 3  -2090108.822 3
  21592277.183   -10716250.450 4  -8350309.810 3
 91  5  2 22 13 45.0030000  0  5 19 13 15 06 02
  24013178.016     6468697.928 2   5040530.123 1
  24230578.518    -4806754.683 2  -3745516.912
  24966956.033    -2653189.110 2  -2067408.697 1
  21959248.631    -2696582.667 3  -2101220.010 2
  21593923.646   -10707582.438 4  -8343555.523 3
 91  5  2 22 14  0.0030000  0  5 19 13 15 06 02
  24021710.422     6513528.407 2   5075462.918 2
  24220716.841    -4858589.651 2  -3785907.762 1
  24964459.361    -2666252.509 2  -2077587.873 1
  21956548.105    -2710778.976 3  -2112282.062 2
  21595588.083   -10698846.165 4  -8336748.039 3
 91  5  2 22 14 15.0030000  0  5 19 13 15 06 02
  24030251.205     6558423.701 2   5110446.199 1
  24210867.467    -4910368.876 2  -3826255.017 1
  24961991.778    -2679202.660 2  -2087678.853 1
  21953858.067    -2724915.252 3  -2123297.339 3
  21597262.135   -10690044.866 4  -8329889.881 3
 91  5  2 22 14 30.0030000  0  5 19 13 15 06 02
  24038801.881     6603383.389 2   5145479.638 1
  24201027.673    -4962092.374 2  -3866559.011 1
  24959558.066    -2692039.651 2  -2097681.655 1
  21951179.406    -2738991.754 3  -2134266.044 3
  21598949.065   -10681179.049 4  -8322981.454 3
 91  5  2 22 14 45.0030000  0  5 19 13 15 06 02
  24047372.957     6648409.684 2   5180564.998 1
  24191198.384    -5013757.634 2  -3906817.454 1
  24957136.639    -2704760.675 2  -2107594.125 1
  21948515.456    -2753006.048 3  -2145186.267 2
  21600650.077   -10672246.630 4  -8316021.130 3
 91  5  2 22 15  0.0030000  0  5 19 13 15 06 02
  24055948.517     6693501.184 2   5215701.150 1
  24181371.486    -5065365.532 2  -3947031.278 1
  24954737.391    -2717366.774 2  -2117416.953 1
  21945859.603    -2766959.053 3  -2156058.735 2
  21602360.094   -10663248.867 4  -8309009.888 3
 91  5  2 22 15 15.0030000  0  5 19 13 15 06 02
  24064548.351     6738657.868 2   5250888.110 1
  24171559.874    -5116915.583 2  -3987200.024 1
  24952362.730    -2729857.646 2  -2127150.086 1
  21943216.924    -2780850.611 3  -2166883.319 2
  21604087.194   -10654185.616 4  -8301947.611 3
 91  5  2 22 15 30.0030000  0  5 19 13 15 06 02
  24073147.609     6783878.327 2   5286124.773 1
  24161767.161    -5168408.455 2  -4027324.181 1
  24950008.469    -2742234.354 2  -2136794.259 1
  21940584.454    -2794681.602 3  -2177660.710 3
  21605822.409   -10645058.250 4  -8294835.378 3
 91  5  2 22 15 45.0030000  0  5 19 13 15 06 02
  24081759.449     6829164.785 2   5321412.833 1
  24151974.727    -5219841.419 2  -4067401.676 1
  24947673.089    -2754494.211 2  -2146347.362 1
  21937963.955    -2808449.539 3  -2188388.965 3
  21607572.596   -10635864.608 4  -8287671.509 3
 91  5  2 22 16  0.0030000  0  5 19 13 15 06 02
  24090394.375     6874516.336 2   5356751.626 1
  24142198.801    -5271215.255 2  -4107433.095 1
  24945362.889    -2766637.979 2  -2155809.964 1
  21935356.072    -2822155.107 3  -2199068.621 3
  21609336.569   -10626605.566 4  -8280456.668 3
 91  5  2 22 16 15.0030000  0  5 19 13 15 06 02
  24099036.490     6919934.223 2   5392142.156 1
  24132434.567    -5322528.458 2  -4147417.271 1
  24943071.274    -2778664.065 2  -2165180.925 1
  21932758.974    -2835796.982 3  -2209698.656 3
  21611109.546   -10617280.075 4  -8273190.055 3
 91  5  2 22 16 30.0030000  0  5 19 13 15 06 02
  24107689.094     6965414.795 2   5427581.493 1
  24122678.412    -5373784.124 2  -4187356.623 1
  24940803.636    -2790575.839 2  -2174462.760 1
  21930172.660    -2849378.488 3  -2220281.639 3
  21612896.902   -10607891.720 4  -8265874.449 3
 91  5  2 22 16 45.0030000  0  5 19 13 15 06 02
  24116357.891     7010954.333 2   5463066.763 1
  24112940.265    -5424985.510 2  -4227253.703 1
  24938560.899    -2802376.641 2  -2183658.102 1
  21927599.241    -2862903.090 3  -2230820.279 3
  21614693.262   -10598444.396 4  -8258512.902 3
 91  5  2 22 17  0.0030000  0  5 19 13 15 06 02
  24125035.692     7056552.680 2   5498597.859 1
  24103210.792    -5476132.337 2  -4267108.158 1
  24936334.042    -2814066.458 2  -2192767.002 1
  21925036.607    -2876370.723 3  -2241314.528 3
  21616503.111   -10588938.224 4  -8251105.491 3
 91  5  2 22 17 15.0030000  0  5 19 13 15 06 02
  24133720.979     7102212.331 2   5534176.737 1
  24093484.930    -5527221.309 2  -4306917.719 1
  24934131.161    -2825642.233 2  -2201787.104 1
  21922487.479    -2889778.380 3  -2251762.052 3
  21618325.246   -10579370.544 4  -8243650.157 3
 91  5  2 22 17 30.0030000  0  5 19 13 15 06 02
  24142422.443     7147931.806 2   5569802.214 1
  24083768.649    -5578253.634 2  -4346682.983 1
  24931945.975    -2837104.981 2  -2210719.133 1
  21919946.745    -2903127.237 3  -2262163.763 3
  21620155.773   -10569742.759 4  -8236147.984 3
 91  5  2 22 17 45.0030000  0  5 19 13 15 06 02
  24151140.118     7193707.873 2   5605471.847 1
  24074068.265    -5629232.336 2  -4386406.485 1
  24929791.973    -2848457.845 2  -2219565.466 1
  21917416.481    -2916420.533 3  -2272522.162 3
  21621998.604   -10560058.493 4  -8228601.804 3
 91  5  2 22 18  0.0030000  0  5 19 13 15 06 02
  24159854.478     7239538.016 2   5641183.514 1
  24064381.981    -5680159.280 2  -4426089.785 1
  24927648.144    -2859702.777 2  -2228327.667 1
  21914899.130    -2929660.190 3  -2282838.771 2
  21623852.218   -10550319.978 4  -8221013.354 3
 91  5  2 22 18 15.0030000  0  5 19 13 15 06 02
  24168587.143     7285423.241 2   5676938.162 1
  24054697.476    -5731033.080 2  -4465731.543 1
  24925534.015    -2870838.402 2  -2237004.755 1
  21912391.062    -2942844.915 3  -2293112.582 2
  21625714.226   -10540526.170 4  -8213381.816 3
 91  5  2 22 18 30.0030000  0  5 19 13 15 06 02
  24177331.185     7331362.756 2   5712735.135 1
  24045027.979    -5781854.141 2  -4505332.265 1
  24923429.170    -2881865.353 2  -2245597.175 1
  21909891.092    -2955975.324 3  -2303344.052 3
  21627588.537   -10530678.066 4  -8205707.973 3
 91  5  2 22 18 45.0030000  0  5 19 13 15 06 02
  24186081.527     7377355.140 2   5748573.289 1
  24035371.657    -5832623.132 2  -4544892.512 1
  24921356.398    -2892784.682 2  -2254105.691 1
  21907401.626    -2969052.735 3  -2313534.248 3
  21629473.631   -10520776.921 4  -8197992.795 3
 91  5  2 22 19  0.0030000  0  5 19 13 15 06 02
  24194847.748     7423400.338 2   5784452.572 1
  24025713.241    -5883339.961 2  -4584412.367 1
  24919295.039    -2903595.985 2  -2262530.071 1
  21904921.444    -2982076.545 3  -2323682.661 3
  21631370.418   -10510822.692 4  -8190236.255 3
 91  5  2 22 19 15.0030000  0  5 19 13 15 06 02
  24203617.286     7469498.574 2   5820373.193 1
  24016073.112    -5934003.701 2  -4623890.547 1
  24917258.249    -2914298.572 2  -2270869.705 1
  21902453.251    -2995046.166 3  -2333788.853 2
  21633274.097   -10500815.178 4  -8182438.198 3
 91  5  2 22 19 30.0030000  0  5 19 13 15 06 02
  24212397.014     7515645.790 2   5856331.995 1
  24006447.380    -5984618.073 2  -4663330.117 1
  24915239.730    -2924896.332 2  -2279127.659 1
  21899994.951    -3007965.472 3  -2343855.850 2
  21635187.670   -10490758.382 4  -8174601.738 3
 91  5  2 22 19 45.0030000  0  5 19 13 15 06 02
  24221189.917     7561840.967 2   5892328.184 1
  23996821.648    -6035183.895 2  -4702731.992 1
  24913249.411    -2935390.208 2  -2287304.571 1
  21897547.139    -3020835.602 3  -2353884.514 2
  21637108.136   -10480653.495 4  -8166727.797 3
 91  5  2 22 20  0.0030000  0  5 19 13 15 06 02
  24229985.838     7608080.658 2   5928359.024 1
  23987204.309    -6085703.914 2  -4742098.136 1
  24911271.394    -2945783.220 2  -2295403.136 1
  21895105.941    -3033659.348 3  -2363877.043 3
  21639041.202   -10470504.110 4  -8158819.187 3
 91  5  2 22 20 15.0030000  0  5 19 13 15 06 02
  24238797.937     7654365.225 2   5964424.845 1
  23977599.256    -6136177.155 2  -4781427.840 1
  24909307.441    -2956074.496 2  -2303422.238 1
  21892675.510    -3046435.914 3  -2373832.799 2
  21640982.957   -10460309.701 4  -8150875.497 3
 91  5  2 22 20 30.0030000  0  5 19 13 15 06 02
  24247615.130     7700695.004 2   6000525.921 1
  23968005.004    -6186602.947 2  -4820720.534 1
  24907370.188    -2966263.251 2  -2311361.476 1
  21890252.896    -3059164.852 3  -2383751.449 3
  21642930.419   -10450069.762 4  -8142896.319 3
 91  5  2 22 20 45.0030000  0  5 19 13 15 06 02
  24256438.920     7747064.882 2   6036658.174 1
  23958416.127    -6236986.145 2  -4859980.081 1
  24905450.018    -2976354.606 2  -2319224.909 1
  21887838.065    -3071851.159 3  -2393636.874 3
  21644884.460   -10439789.750 4  -8134885.922 3
 91  5  2 22 21  0.0030000  0  5 19 13 15 06 02
  24265266.898     7793478.495 2   6072824.554 1
  23948836.568    -6287322.382 2  -4899203.047 1
  24903551.731    -2986344.313 2  -2327009.018 1
  21885433.425    -3084490.448 3  -2403485.664 3
  21646849.005   -10429465.651 4  -8126841.175 3
 91  5  2 22 21 15.0030000  0  5 19 13 15 06 02
  24274112.274     7839936.164 2   6109025.268 1
  23939268.684    -6337610.926 2  -4938388.842 1
  24901666.340    -2996231.566 2  -2334713.342 1
  21883038.679    -3097082.358 3  -2413297.536 3
  21648821.037   -10419097.219 4  -8118761.877 3
 91  5  2 22 21 30.0030000  0  5 19 13 15 06 02
  24282957.964     7886440.167 2   6145262.070 1
  23929711.007    -6387849.220 2  -4977535.401 1
  24899806.723    -3006014.195 2  -2342336.113 1
  21880652.345    -3109624.375 3  -2423070.528 2
  21650803.556   -10408682.267 4  -8110646.334 3
 91  5  2 22 21 45.0030000  0  5 19 13 15 06 02
  24291820.127     7932990.774 2   6181535.178 1
  23920155.722    -6438036.457 2  -5016642.253 1
  24897964.207    -3015691.418 2  -2349876.790 1
  21878272.292    -3122115.843 3  -2432804.147 3
  21652793.875   -10398220.553 4  -8102494.351 3
 91  5  2 22 22  0.0030000  0  5 19 13 15 06 02
  24300676.287     7979586.333 2   6217843.360 1
  23910617.520    -6488173.611 2  -5055710.032 1
  24896143.852    -3025264.328 2  -2357336.197 1
  21875902.727    -3134558.149 3  -2442499.444 3
  21654792.903   -10387713.546 4  -8094307.081 3
 91  5  2 22 22 15.0030000  0  5 19 13 15 06 02
  24309563.944     8026228.090 2   6254187.511 1
  23901086.229    -6538259.283 2  -5094737.750 1
  24894340.006    -3034731.555 2  -2364713.190 1
  21873548.762    -3146949.656 3  -2452155.157 3
  21656804.808   -10377160.197 4  -8086083.695 3
 91  5  2 22 22 30.0030000  0  5 19 13 15 06 02
  24318442.598     8072916.272 2   6290567.848 1
  23891569.316    -6588292.651 2  -5133724.691 1
  24892557.449    -3044092.420 2  -2372007.336 1
  21871198.393    -3159289.925 3  -2461770.949 3
  21658820.308   -10366560.240 4  -8077823.994 3
 91  5  2 22 22 45.0030000  0  5 19 13 15 06 02
  24327341.039     8119652.361 2   6326985.464 1
  23882056.592    -6638271.841 2  -5172669.399 1
  24890796.163    -3053345.210 2  -2379217.279 1
  21868860.901    -3171577.036 3  -2471345.307 3
  21660845.406   -10355912.081 4  -8069526.728 3
 91  5  2 22 23  0.0030000  0  5 19 13 15 06 02
  24336241.279     8166435.548 2   6363439.840 1
  23872553.168    -6688197.346 2  -5211572.304 1
  24889061.263    -3062490.522 2  -2386343.467 1
  21866533.007    -3183811.777 3  -2480878.874 3
  21662880.991   -10345216.706 4  -8061192.669 3
 91  5  2 22 23 15.0030000  0  5 19 13 15 06 02
  24345155.897     8213267.622 2   6399932.259 1
  23863063.251    -6738066.802 2  -5250431.451 1
  24887335.960    -3071526.229 2  -2393384.250 1
  21864216.211    -3195991.850 3  -2490369.829 3
  21664924.988   -10334472.313 4  -8052820.424 3
 91  5  2 22 23 30.0030000  0  5 19 13 15 06 02
  24354071.719     8260149.167 2   6436463.251 1
  23853588.603    -6787879.048 2  -5289246.109 1
  24885645.435    -3080451.101 2  -2400338.667 1
  21861908.420    -3208116.212 3  -2499817.379 3
  21666980.658   -10323678.055 4  -8044409.317 3
 91  5  2 22 23 45.0030000  0  5 19 13 15 06 02
  24363006.737     8307084.463 2   6473036.133 1
  23844115.770    -6837629.430 2  -5328012.562 1
  24883963.286    -3089260.671 2  -2407203.224 1
  21859613.804    -3220180.438 3  -2509218.072 3
  21669042.332   -10312829.463 4  -8035955.868 3
 91  5  2 22 24  0.0030000  0  5 19 13 15 06 02
  24371940.254     8354071.106 2   6509649.029 1
  23834661.504    -6887319.825 2  -5366732.310 1
  24882309.634    -3097956.892 2  -2413979.449 1
  21857326.080    -3232186.606 3  -2518573.514 3
  21671117.494   -10301928.992 4  -8027461.999 3
 91  5  2 22 24 15.0030000  0  5 19 13 15 06 02
  24380903.750     8401109.995 2   6546302.625 1
  23825212.054    -6936948.655 2  -5405403.977 1
  24880677.271    -3106538.613 2  -2420666.472 1
  21855054.568    -3244133.234 3  -2527882.577 3
  21673203.458   -10290975.831 4  -8018927.074 3
 91  5  2 22 24 30.0030000  0  5 19 13 15 06 02
  24389859.760     8448200.952 2   6582996.820 1
  23815783.579    -6986515.740 2  -5444027.653 1
  24879060.787    -3115005.628 2  -2427264.104 1
  21852789.634    -3256020.414 3  -2537145.302 3
  21675298.706   -10279970.155 4  -8010351.225 3
 91  5  2 22 24 45.0030000  0  5 19 13 15 06 02
  24398835.838     8495348.663 2   6619735.199 1
  23806363.201    -7036016.406 2  -5482599.436 1
  24877476.377    -3123352.976 2  -2433768.547 1
  21850542.081    -3267843.321 3  -2546357.952 3
  21677402.940   -10268907.558 4  -8001731.019 3
 91  5  2 22 25  0.0030000  0  5 19 13 15 06 02
  24407800.835     8542552.152 2   6656517.042 1
  23796960.814    -7085450.942 2  -5521119.786 1
  24875906.974    -3131581.524 2  -2440180.302 1
  21848303.236    -3279602.558 3  -2555520.990 3
  21679519.181   -10257789.002 4  -7993067.212 3
 91  5  2 22 25 15.0030000  0  5 19 13 15 06 02
  24416806.596     8589810.304 2   6693341.480 1
  23787561.411    -7134819.811 2  -5559588.934 1
  24874361.531    -3139692.029 2  -2446500.184 1
  21846081.177    -3291298.801 3  -2564634.940 2
  21681643.814   -10246615.348 4  -7984360.466 3
 91  5  2 22 25 30.0030000  0  5 19 13 15 06 02
  24425814.468     8637122.624 2   6730208.130 1
  23778180.314    -7184123.184 2  -5598006.992 1
  24872840.988    -3147684.482 2  -2452727.998 1
  21843864.214    -3302932.209 3  -2573699.929 3
  21683782.530   -10235386.981 4  -7975611.094 3
 91  5  2 22 25 45.0030000  0  5 19 13 15 06 02
  24434835.812     8684488.426 2   6767116.467 1
  23768812.095    -7233361.387 2  -5636374.374 1
  24871343.533    -3155559.294 2  -2458864.196 1
  21841665.225    -3314503.340 3  -2582716.395 3
  21685927.249   -10224104.699 4  -7966819.715 3
 91  5  2 22 26  0.0030000  0  5 19 13 15 06 02
  24443840.682     8731906.094 2   6804065.167 1
  23759452.566    -7282535.310 2  -5674691.639 1
  24869873.038    -3163317.997 2  -2464909.899 1
  21839472.850    -3326013.335 3  -2591685.222 3
  21688086.051   -10212770.254 4  -7957987.678 3
 91  5  2 22 26 15.0030000  0  5 19 13 15 06 02
  24452886.614     8779374.924 2   6841053.853 1
  23750106.840    -7331645.071 2  -5712958.902 1
  24868415.753    -3170960.713 2  -2470865.208 1
  21837291.852    -3337462.708 3  -2600606.801 3
  21690251.745   -10201384.055 4  -7949115.321 3
 91  5  2 22 26 30.0030000  0  5 19 13 15 06 02
  24461918.166     8826894.094 2   6878081.677 1
  23740778.494    -7380691.328 2  -5751176.675 1
  24866983.945    -3178487.765 2  -2476730.483 1
  21835126.157    -3348851.942 3  -2609481.523 3
  21692427.351   -10189946.995 4  -7940203.330 3
 91  5  2 22 26 45.0030000  0  5 19 13 15 06 02
  24470975.492     8874464.910 2   6915149.751 1
  23731457.949    -7429672.172 2  -5789343.477 1
  24865578.522    -3185897.728 2  -2482504.395 1
  21832971.544    -3360179.202 3  -2618307.948 3
  21694613.427   -10178457.754 4  -7931250.680 3
 91  5  2 22 27  0.0030000  0  5 19 13 15 06 02
  24480046.621     8922086.719 2   6952257.554 1
  23722147.002    -7478587.875 2  -5827459.428 1
  24864187.775    -3193190.910 2  -2488187.384 1
  21830829.530    -3371444.975 3  -2627086.467 3
  21696809.118   -10166916.940 4  -7922257.845 3
 91  5  2 22 27 15.0030000  0  5 19 13 15 06 02
  24489113.545     8969761.961 2   6989407.023 1
  23712855.529    -7527435.659 2  -5865522.610 1
  24862826.117    -3200364.556 2  -2493777.167 1
  21828693.519    -3382646.655 3  -2635815.049 3
  21699017.984   -10155322.088 4  -7913222.898 3
 91  5  2 22 27 30.0030000  0  5 19 13 15 06 02
  24498193.661     9017487.938 2   7026596.001 1
  23703571.559    -7576217.750 2  -5903534.541 1
  24861474.964    -3207421.017 2  -2499275.681 1
  21826574.277    -3393786.482 3  -2644495.436 3
  21701235.540   -10143675.800 4  -7904147.871 3
 91  5  2 22 27 45.0030000  0  5 19 13 15 06 02
  24507284.561     9065264.290 2   7063824.236 1
  23694299.281    -7624933.899 2  -5941495.071 1
  24860152.272    -3214360.381 2  -2504682.980 1
  21824467.041    -3404864.386 3  -2653127.567 3
  21703460.914   -10131978.509 4  -7895033.105 3
 91  5  2 22 28  0.0030000  0  5 19 13 15 06 02
  24516379.964     9113091.501 2   7101092.112 1
  23685038.992    -7673583.135 2  -5979403.511 1
  24858861.061    -3221181.946 2  -2509998.462 1
  21822375.388    -3415879.545 3  -2661710.802 3
  21705693.460   -10120229.767 4  -7885878.243 3
 91  5  2 22 28 15.0030000  0  5 19 13 15 06 02
  24525492.747     9160970.088 2   7138399.992 1
  23675798.787    -7722164.567 2  -6017259.051 1
  24857579.761    -3227884.687 2  -2515221.339 1
  21820287.330    -3426831.131 3  -2670244.495 3
  21707938.605   -10108428.702 4  -7876682.610 3
 91  5  2 22 28 30.0030000  0  5 19 13 15 06 02
  24534616.645     9208899.493 2   7175747.485 1
  23666563.085    -7770678.288 2  -6055061.872 1
  24856330.517    -3234468.966 2  -2520351.899 1
  21818216.356    -3437719.656 3  -2678729.062 3
  21710196.349   -10096576.113 4  -7867446.827 3
 91  5  2 22 28 45.0030000  0  5 19 13 15 06 02
  24543740.823     9256879.470 2   7213134.391 1
  23657346.264    -7819124.214 2  -6092811.864 1
  24855099.876    -3240934.712 2  -2525390.125 1
  21816153.495    -3448545.040 3  -2687164.415 3
  21712461.579   -10084672.290 4  -7858171.129 3
 91  5  2 22 29  0.0030000  0  5 19 13 15 06 02
  24552882.085     9304907.943 2   7250559.107 1
  23648137.243    -7867503.701 2  -6130510.051 1
  24853891.413    -3247283.532 2  -2530337.225 1
  21814108.016    -3459308.550 3  -2695551.569 3
  21714734.907   -10072719.215 4  -7848857.056 3
 91  5  2 22 29 15.0030000  0  5 19 13 15 06 02
  24562037.760     9352986.410 2   7288022.752 1
  23638940.507    -7915814.936 2  -6168155.120 1
  24852712.633    -3253513.808 2  -2535192.053 1
  21812070.022    -3470008.571 3  -2703889.238 3
  21717020.815   -10060715.369 4  -7839503.411 3
 91  5  2 22 29 30.0030000  0  5 19 13 15 06 02
  24571196.717     9401112.763 2   7325523.723 1
  23629764.450    -7964059.606 2  -6205748.294 1
  24851544.638    -3259627.413 2  -2539955.822 1
  21810046.111    -3480646.955 3  -2712178.886 3
  21719313.931   -10048662.867 4  -7830111.854 3
 91  5  2 22 29 45.0030000  0  5 19 13 15 06 02
  24580360.768     9449289.168 2   7363063.669 1
  23620595.896    -8012234.767 2  -6243287.346 1
  24850399.433    -3265621.620 2  -2544626.546 1
  21808032.112    -3491221.337 3  -2720418.657 3
  21721618.145   -10036559.373 4  -7820680.563 3
 91  5  2 22 30  0.0030000  0  5 19 13 15 06 02
  24589531.713     9497515.984 2   7400642.923 1
  23611437.847    -8060339.710 2  -6280771.549 1
  24849280.909    -3271495.891 2  -2549203.939 1
  21806033.102    -3501730.975 3  -2728607.983 3
  21723930.142   -10024404.335 4  -7811209.119 3
 91  5  2 22 30 15.0030000  0  5 19 13 15 06 02
  24598722.463     9545796.222 2   7438263.794 1
  23602304.368    -8108371.336 2  -6318198.725 1
  24848191.160    -3277246.938 2  -2553685.236 1
  21804046.081    -3512172.530 3  -2736744.255 3
  21726253.534   -10012194.923 4  -7801695.290 3
 91  5  2 22 30 30.0030000  0  5 19 13 15 06 02
  24607917.995     9594131.438 2   7475927.509 1
  23593177.486    -8156327.674 2  -6355567.189 1
  24847115.494    -3282872.862 2  -2558069.023 1
  21802073.142    -3522543.992 3  -2744825.911 3
  21728588.303    -9999929.602 4  -7792137.905 3
 91  5  2 22 30 45.0030000  0  5 19 13 15 06 02
  24617137.207     9642521.256 2   7513633.778 1
  23584068.297    -8204208.332 2  -6392876.697 1
  24846075.827    -3288373.581 2  -2562355.289 1
  21800112.191    -3532845.474 3  -2752853.034 3
  21730932.094    -9987608.774 4  -7782537.267 3
 91  5  2 22 31  0.0030000  0  5 19 13 15 06 02
  24626357.919     9690967.262 2   7551383.838 1
  23574969.597    -8252011.360 2  -6430125.731 1
  24845046.037    -3293747.369 2  -2566542.617 1
  21798168.045    -3543075.226 3  -2760824.272 3
  21733288.449    -9975230.850 4  -7772892.138 3
 91  5  2 22 31 15.0030000  0  5 19 13 15 06 02
  24635587.339     9739469.553 2   7589177.752 1
  23565887.073    -8299736.146 2  -6467313.826 1
  24844050.119    -3298993.946 2  -2570630.824 1
  21796232.275    -3553232.722 3  -2768739.198 3
  21735656.217    -9962795.456 4  -7763202.225 3
 91  5  2 22 31 30.0030000  0  5 19 13 15 06 02
  24644821.541     9788027.297 2   7627014.854 1
  23556813.849    -8347382.796 2  -6504440.995 1
  24843077.897    -3304113.706 2  -2574620.240 1
  21794314.513    -3563318.357 3  -2776598.143 3
  21738031.471    -9950303.397 4  -7753468.155 3
 91  5  2 22 31 45.0030000  0  5 19 13 15 06 02
  24654072.844     9836643.950 2   7664897.849 1
  23547768.511    -8394947.609 2  -6541504.377 1
  24842121.852    -3309102.793 2  -2578507.784 1
  21792412.021    -3573328.129 3  -2784397.964 3
  21740418.713    -9937751.166 4  -7743687.201 3
 91  5  2 22 32  0.0030000  0  5 19 13 15 06 02
  24663336.135     9885318.826 2   7702826.237 1
  23538734.865    -8442430.877 2  -6578504.282 1
  24841202.993    -3313961.438 2  -2582293.734 1
  21790521.237    -3583262.530 3  -2792139.053 3
  21742821.556    -9925139.464 4  -7733859.910 3
 91  5  2 22 32 15.0030000  0  5 19 13 15 06 02
  24672609.303     9934051.127 2   7740799.378 1
  23529711.724    -8489833.035 2  -6615440.933 1
  24840305.110    -3318690.337 2  -2585978.560 1
  21788641.535    -3593122.211 3  -2799821.922 2
  21745232.792    -9912469.154 4  -7723986.944 3
 91  5  2 22 32 30.0030000  0  5 19 13 15 06 02
  24681896.570     9982841.378 2   7778817.601 1
  23520708.651    -8537152.683 2  -6652313.276 1
  24839432.424    -3323288.540 2  -2589561.567 1
  21786779.527    -3602906.360 3  -2807445.928 3
  21747653.015    -9899739.630 4  -7714067.844 3
 91  5  2 22 32 45.0030000  0  5 19 13 15 06 02
  24691195.233    10031690.534 2   7816881.810 1
  23511716.676    -8584388.784 2  -6689120.561 1
  24838577.713    -3327754.868 2  -2593041.791 1
  21784934.306    -3612613.455 3  -2815009.895 3
  21750089.432    -9886949.862 4  -7704101.789 3
 91  5  2 22 33  0.0030000  0  5 19 13 15 06 02
  24700491.505    10080600.292 2   7854993.155 1
  23502742.099    -8631539.127 2  -6725861.021 1
  24837749.386    -3332087.208 2  -2596417.602 1
  21783104.074    -3622241.498 3  -2822512.262 3
  21752533.038    -9874098.099 4  -7694087.430 3
 91  5  2 22 33 15.0030000  0  5 19 13 15 06 02
  24709814.755    10129572.937 2   7893153.550 1
  23493786.996    -8678600.836 2  -6762532.430 1
  24836956.431    -3336283.243 2  -2599687.203 1
  21781282.237    -3631788.114 3  -2829951.181 2
  21754991.931    -9861182.103 4  -7684023.028 3
 91  5  2 22 33 30.0030000  0  5 19 13 15 06 02
  24719141.896    10178609.736 2   7931363.959 1
  23484843.288    -8725572.338 2  -6799133.508 1
  24836185.672    -3340341.419 2  -2602849.421 1
  21779485.580    -3641251.636 3  -2837325.352 3
  21757462.218    -9848200.664 4  -7673907.628 3
 91  5  2 22 33 45.0030000  0  5 19 13 15 06 02
  24728502.315    10227711.782 2   7969625.212 1
  23475937.639    -8772451.673 2  -6835662.806 1
  24835443.689    -3344260.132 2  -2605902.936 1
  21777699.707    -3650630.438 3  -2844633.503 3
  21759944.512    -9835152.467 4  -7663740.206 3
 91  5  2 22 34  0.0030000  0  5 19 13 15 06 02
  24737845.650    10276877.987 2   8007936.416 1
  23467029.914    -8819239.795 2  -6872120.970 1
  24834716.381    -3348040.109 2  -2608848.344 1
  21775933.030    -3659925.220 3  -2851876.184 3
  21762439.073    -9822038.456 4  -7653521.497 3
 91  5  2 22 34 15.0030000  0  5 19 13 15 06 02
  24747220.152    10326110.928 2   8046299.637 1
  23458141.960    -8865933.716 2  -6908505.757 1
  24834032.263    -3351678.731 2  -2611683.617 1
  21774177.747    -3669133.315 3  -2859051.310 3
  21764950.735    -9808856.303 4  -7643249.694 3
 91  5  2 22 34 30.0030000  0  5 19 13 15 06 02
  24756592.262    10375409.338 2   8084713.884 1
  23449277.406    -8912534.277 2  -6944817.838 1
  24833363.727    -3355176.902 2  -2614409.428 1
  21772444.347    -3678255.545 3  -2866159.539 3
  21767471.087    -9795607.077 4  -7632925.631 3
 91  5  2 22 34 45.0030000  0  5 19 13 15 06 02
  24765995.853    10424772.399 2   8123178.496 1
  23440427.528    -8959041.720 2  -6981057.267 1
  24832718.872    -3358535.179 2  -2617026.272 1
  21770723.250    -3687292.331 3  -2873201.187 3
  21770004.039    -9782291.525 4  -7622549.872 3
 91  5  2 22 35  0.0030000  0  5 19 13 15 06 02
  24775391.050    10474199.048 2   8161692.700 1
  23431589.953    -9005456.660 2  -7017224.745 1
  24832112.686    -3361753.895 2  -2619534.307 1
  21769018.625    -3696244.434 3  -2880176.852 2
  21772548.979    -9768910.622 4  -7612123.197 3
 91  5  2 22 35 15.0030000  0  5 19 13 15 06 02
  24784811.131    10523686.891 2   8200254.507 1
  23422778.448    -9051780.715 2  -7053321.357 1
  24831526.289    -3364835.263 2  -2621935.386 1
  21767332.585    -3705113.841 3  -2887088.076 3
  21775107.407    -9755466.404 4  -7601647.190 3
 91  5  2 22 35 30.0030000  0  5 19 13 15 06 02
  24794238.402    10573228.023 2   8238857.900 1
  23413981.339    -9098021.699 2  -7089353.178 1
  24830962.682    -3367787.383 2  -2624235.694 1
  21765659.755    -3713908.242 3  -2893940.850 3
  21777677.824    -9741967.141 4  -7591128.294 3
 91  5  2 22 35 45.0030000  0  5 19 13 15 06 02
  24803684.868    10622821.591 2   8277502.129 1
  23405194.718    -9144179.800 2  -7125320.480 1
  24830428.147    -3370610.588 2  -2626435.590 1
  21763998.302    -3722628.076 3  -2900735.525 3
  21780255.152    -9728413.418 4  -7580566.949 3
 91  5  2 22 36  0.0030000  0  5 19 13 15 06 02
  24813126.239    10672465.507 2   8316185.569 1
  23396423.401    -9190256.801 2  -7161224.574 1
  24829907.712    -3373306.806 2  -2628536.546 1
  21762356.027    -3731275.030 3  -2907473.406 3
  21782845.951    -9714807.530 4  -7569964.960 3
 91  5  2 22 36 15.0030000  0  5 19 13 15 06 02
  24822578.987    10722156.043 2   8354905.381 1
  23387671.855    -9236256.104 2  -7197068.083 1
  24829428.651    -3375879.324 2  -2630541.054 1
  21760717.975    -3739852.523 3  -2914157.165 3
  21785443.346    -9701153.246 4  -7559325.259 3
 91  5  2 22 36 30.0030000  0  5 19 13 15 06 02
  24832043.130    10771894.130 2   8393662.244 1
  23378935.596    -9282176.194 2  -7232849.936 1
  24828959.170    -3378326.932 2  -2632448.264 1
  21759102.678    -3748359.351 3  -2920785.852 2
  21788051.246    -9687449.321 4  -7548646.881 3
 91  5  2 22 36 45.0030000  0  5 19 13 15 06 02
  24841520.779    10821676.391 2   8432453.488 1
  23370208.637    -9328019.766 2  -7268572.160 1
  24828516.982    -3380652.704 2  -2634260.525 1
  21757496.107    -3756798.499 3  -2927361.803 3
  21790668.726    -9673699.157 4  -7537932.469 3
 91  5  2 22 37  0.0030000  0  5 19 13 15 06 02
  24851001.116    10871500.766 2   8471277.557 1
  23361496.965    -9373788.627 2  -7304236.092 1
  24828093.360    -3382858.451 2  -2635979.265 1
  21755906.305    -3765171.819 3  -2933886.468 3
  21793292.210    -9659904.813 4  -7527183.634 3
 91  5  2 22 37 15.0030000  0  5 19 13 15 06 02
  24860500.334    10921367.572 2   8510134.694 1
  23352805.395    -9419482.001 2  -7339841.268 1
  24827702.737    -3384943.623 2  -2637604.060 1
  21754323.099    -3773478.504 3  -2940359.201 2
  21795925.290    -9646065.955 4  -7516400.114 3
 91  5  2 22 37 30.0030000  0  5 19 13 15 06 02
  24869993.270    10971279.221 2   8549026.750 1
  23344123.999    -9465096.948 2  -7375385.320 1
  24827326.493    -3386905.587 2  -2639132.824 1
  21752755.476    -3781715.867 3  -2946777.923 3
  21798569.173    -9632180.019 4  -7505579.913 3
 91  5  2 22 37 45.0030000  0  5 19 13 15 06 02
  24879499.381    11021235.094 2   8587953.309
  23335458.204    -9510633.801 2  -7410868.517 1
  24826974.836    -3388744.311 2  -2640565.558 1
  21751201.063    -3789884.262 3  -2953142.909 3
  21801218.727    -9618247.526 4  -7494723.426 3
 91  5  2 22 38  0.0030000  0  5 19 13 15 06 02
  24889015.700    11071239.311 2   8626917.502 1
  23326813.977    -9556087.817 2  -7446287.147 1
  24826650.472    -3390455.572 2  -2641898.983 1
  21749661.029    -3797979.075 3  -2959450.543 2
  21803881.194    -9604264.263 4  -7483827.379 3
 91  5  2 22 38 15.0030000  0  5 19 13 15 06 02
  24898536.801    11121292.342 2   8665919.706 1
  23318177.567    -9601457.883 2  -7481640.395 1
  24826343.173    -3392038.611 2  -2643132.524 1
  21748131.779    -3805999.430 3  -2965700.176 3
  21806553.834    -9590229.724 4  -7472891.378 3
 91  5  2 22 38 30.0030000  0  5 19 13 15 06 02
  24908072.298    11171393.953 2   8704959.847 1
  23309556.130    -9646743.791 2  -7516928.058 1
  24826070.374    -3393493.337 2  -2644266.023 1
  21746622.632    -3813945.342 3  -2971891.791 3
  21809231.884    -9576144.166 4  -7461915.624 3
 91  5  2 22 38 45.0030000  0  5 19 13 15 06 02
  24917613.501    11221545.723 2   8744039.060 1
  23300957.186    -9691943.628 2  -7552148.639 1
  24825815.548    -3394817.903 2  -2645298.170 1
  21745123.972    -3821814.586 3  -2978023.666 3
  21811922.219    -9562005.889 4  -7450898.798 3
 91  5  2 22 39  0.0030000  0  5 19 13 15 06 02
  24927161.283    11271745.162 2   8783155.348 1
  23292371.731    -9737059.349 2  -7587303.694 1
  24825589.202    -3396014.439 2  -2646230.525 1
  21743642.082    -3829609.616 3  -2984097.713 3
  21814623.059    -9547817.206 4  -7439842.683 3
 91  5  2 22 39 15.0030000  0  5 19 13 15 06 02
  24936724.072    11321993.199 2   8822309.584 1
  23283801.266    -9782089.791 2  -7622392.272 1
  24825387.739    -3397081.929 2  -2647062.296 1
  21742171.308    -3837329.175 3  -2990112.955 3
  21817331.682    -9533577.309 4  -7428746.661 3
 91  5  2 22 39 30.0030000  0  5 19 13 15 06 02
  24946301.240    11372288.764 2   8861500.833 1
  23275251.480    -9827035.358 2  -7657414.694 1
  24825204.564    -3398021.035 2  -2647794.044 1
  21740720.305    -3844973.804 3  -2996069.794 3
  21820051.089    -9519287.217 4  -7417611.531 3
 91  5  2 22 39 45.0030000  0  5 19 13 15 06 02
  24955884.708    11422635.245 2   8900731.706 1
  23266711.884    -9871892.220 2  -7692368.043 1
  24825057.668    -3398827.943 2  -2648422.773 1
  21739278.603    -3852539.920 3  -3001965.467 3
  21822780.111    -9504943.391 4  -7406434.532 3
 91  5  2 22 40  0.0030000  0  5 19 13 15 06 02
  24965469.658    11473031.688 2   8940001.586 1
  23258194.485    -9916661.298 2  -7727252.963 1
  24824927.559    -3399503.837 2  -2648949.296 1
  21737853.095    -3860028.063 3  -3007800.391 3
  21825521.401    -9490546.803 4  -7395216.418 3
 91  5  2 22 40 15.0030000  0  5 19 13 15 06 02
  24975065.114    11523478.678 2   8979310.738
  23249694.467    -9961341.474 2  -7762068.633 1
  24824827.726    -3400047.637 2  -2649373.153 1
  21736442.279    -3867437.383 3  -3013573.888 3
  21828271.694    -9476096.863 4  -7383956.727 3
 91  5  2 22 40 30.0030000  0  5 19 13 15 06 02
  24984691.161    11573973.284 2   9018657.128 1
  23241206.454   -10005934.951 2  -7796816.738 1
  24824745.885    -3400461.906 2  -2649695.923 1
  21735048.234    -3874770.375 3  -3019287.904 3
  21831030.993    -9461596.502 4  -7372657.746 3
 91  5  2 22 40 45.0030000  0  5 19 13 15 06 02
  24994292.916    11624513.934 1   9058039.343 1
  23232734.914   -10050442.630 2  -7831498.015 1
  24824690.428    -3400747.723 2  -2649918.669 1
  21733667.991    -3882028.189 3  -3024943.349 3
  21833799.278    -9447047.100 4  -7361320.560 3
 91  5  2 22 41  0.0030000  0  5 19 13 15 06 02
  25003927.042    11675099.852 1   9097456.765 1
  23224284.664   -10094865.089 2  -7866112.864 1
  24824663.450    -3400905.971 2  -2650041.949 1
  21732300.034    -3889211.371 3  -3030540.625 3
  21836576.253    -9432449.424 4  -7349945.754 3
 91  5  2 22 41 15.0030000  0  5 19 13 15 06 02
  25013553.978    11725731.258 2   9136909.749 1
  23215846.402   -10139201.736 2  -7900660.846 1
  24824656.854    -3400936.073 2  -2650065.353 1
  21730946.473    -3896319.420 3  -3036079.360 3
  21839364.920    -9417803.220 4  -7338533.127 3
 91  5  2 22 41 30.0030000  0  5 19 13 15 06 02
  25023201.906    11776405.706 2   9176396.157 1
  23207427.631   -10183454.316 2  -7935143.314 1
  24824672.734    -3400840.155 2  -2649990.613 1
  21729609.996    -3903354.432 3  -3041561.187 3
  21842158.386    -9403110.860 4  -7327084.537 3
 91  5  2 22 41 45.0030000  0  5 19 13 15 06 02
  25032851.022    11827123.425 2   9215916.329 1
  23199019.052   -10227621.998 2  -7969559.633 1
  24824712.904    -3400617.610 2  -2649817.184 1
  21728283.727    -3910315.534 3  -3046985.428 3
  21844965.951    -9388371.903 4  -7315599.641 3
 91  5  2 22 42  0.0030000  0  5 19 13 15 06 02
  25042518.128    11877880.713 2   9255467.391 1
  23190632.652   -10271708.195 2  -8003912.459 1
  24824779.756    -3400271.976 2  -2649547.795 1
  21726970.633    -3917206.302 3  -3052354.851 3
  21847778.892    -9373590.045 4  -7304081.317 3
 91  5  2 22 42 15.0030000  0  5 19 13 15 06 02
  25052174.433    11928678.761 2   9295050.158 1
  23182257.961   -10315711.513 2  -8038200.686 1
  24824869.101    -3399801.844 2  -2649181.478 1
  21725671.324    -3924025.195 3  -3057668.269 3
  21850599.946    -9358764.055 4  -7292528.602 3
 91  5  2 22 42 30.0030000  0  5 19 13 15 06 02
  25061846.042    11979516.956 2   9334664.228 1
  23173897.352   -10359632.080 2  -8072424.453 1
  24824981.515    -3399207.590 2  -2648718.384 1
  21724388.821    -3930772.376 3  -3062925.810 3
  21853429.987    -9343894.398 4  -7280941.859 3
 91  5  2 22 42 45.0030000  0  5 19 13 15 06 02
  25071536.532    12030393.484 2   9374308.156 1
  23165556.514   -10403470.879 2  -8106584.473 1
  24825120.035    -3398490.653 2  -2648159.693 1
  21723120.399    -3937449.242 3  -3068128.549 3
  21856265.421    -9328982.794 4  -7269322.427 3
 91  5  2 22 43  0.0030000  0  5 19 13 15 06 02
  25081224.037    12081310.326 2   9413983.530 1
  23157231.888   -10447225.524 2  -8140678.971 1
  24825278.623    -3397648.708 2  -2647503.613 1
  21721864.263    -3944053.404 3  -3073274.654 3
  21859110.156    -9314027.323 4  -7257668.820 3
 91  5  2 22 43 15.0030000  0  5 19 13 15 06 02
  25090917.511    12132265.876 2   9453688.980 1
  23148917.139   -10490897.362 2  -8174708.910 1
  24825459.686    -3396683.181 2  -2646751.233 1
  21720618.335    -3950586.295 3  -3078365.211 3
  21861965.081    -9299029.536 4  -7245982.229 3
 91  5  2 22 43 30.0030000  0  5 19 13 15 06 02
  25100618.803    12183259.595 2   9493424.185 1
  23140624.272   -10534486.514 2  -8208674.419 1
  24825672.247    -3395594.243 2  -2645902.737 1
  21719390.380    -3957048.145 3  -3083400.414 3
  21864827.493    -9283990.028 4  -7234263.136 3
 91  5  2 22 43 45.0030000  0  5 19 13 15 06 02
  25110339.865    12234291.545 2   9533189.210 1
  23132343.114   -10577992.185 2  -8242574.877 1
  24825898.891    -3394381.538 2  -2644957.770 1
  21718174.118    -3963438.317 3  -3088379.765 3
  21867698.315    -9268908.233 4  -7222511.084 3
 91  5  2 22 44  0.0030000  0  5 19 13 15 06 02
  25120057.647    12285366.563 1   9572987.777 1
  23124084.432   -10621409.171 2  -8276406.233 1
  24826154.013    -3393040.263 2  -2643912.620 1
  21716971.955    -3969751.821 3  -3093299.364 3
  21870576.013    -9253779.404 4  -7210722.391 3
 91  5  2 22 44 15.0030000  0  4 13 15 06 02
  23115838.035   -10664738.868 2  -8310169.572 1
  24826433.426    -3391571.993 2  -2642768.499 1
  21715785.671    -3975990.095 3  -3098160.360 3
  21873462.122    -9238605.450 4  -7198898.529 3
 91  5  2 22 44 30.0030000  0  4 13 15 06 02
  23107608.739   -10707976.864 2  -8343861.457 1
  24826741.597    -3389972.304 2  -2641522.023 1
  21714616.193    -3982148.839 3  -3102959.373 3
  21876361.109    -9223382.444 4  -7187036.454 3
 91  5  2 22 44 45.0030000  0  4 13 15 06 02
  23099401.622   -10751123.987 2  -8377482.545 1
  24827074.372    -3388242.147 2  -2640173.804 1
  21713459.592    -3988228.648 3  -3107696.886 3
  21879267.007    -9208111.230 4  -7175136.808 3
 91  5  2 22 45  0.0030000  0  4 13 15 06 02
  23091209.181   -10794179.272 2  -8411032.070 1
  24827423.324    -3386380.809 2  -2638723.305 1
  21712318.575    -3994228.776 3  -3112372.303 3
  21882180.984    -9192791.308 4  -7163199.214 3
 91  5  2 22 45 15.0030000  0  4 13 15 06 02
  23083031.451   -10837138.495 3  -8444506.735 1
  24827799.865    -3384384.130 2  -2637167.489 1
  21711188.656    -4000145.002 3  -3116982.341 3
  21885108.153    -9177418.643 4  -7151220.516 3
 91  5  2 22 45 30.0030000  0  4 13 15 06 02
  23074874.399   -10880000.019 3  -8477905.260 1
  24828208.793    -3382251.012 2  -2635505.282 1
  21710078.229    -4005976.228 3  -3121526.153 3
  21888042.826    -9161992.350 4  -7139200.023 3
 91  5  2 22 45 45.0030000  0  4 13 15 06 02
  23066740.119   -10922764.278 3  -8511228.023 1
  24828643.496    -3379981.914 2  -2633737.171 1
  21708989.684    -4011722.787 3  -3126003.990 3
  21890990.377    -9146513.081 4  -7127138.258 3
 91  5  2 22 46  0.0030000  0  4 13 15 06 02
  23058619.050   -10965429.086 2  -8544473.276 1
  24829095.579    -3377574.999 2  -2631861.647 1
  21707912.517    -4017382.720 3  -3130414.321 3
  21893944.245    -9130979.203 4  -7115033.951 3
 91  5  2 22 46 15.0030000  0  4 13 15 06 02
  23050521.660   -11007993.623 2  -8577640.350 1
  24829587.535    -3375029.367 2  -2629877.970 1
  21706852.451    -4022955.030 3  -3134756.381 3
  21896908.880    -9115390.146 4  -7102886.637 3
 91  5  2 22 46 30.0030000  0  4 13 15 06 02
  23042438.650   -11050457.680 2  -8610729.213 1
  24830097.780    -3372344.951 2  -2627786.290 1
  21705803.484    -4028439.558 3  -3139030.030 3
  21899888.226    -9099746.075 4  -7090696.451 3
 91  5  2 22 46 45.0030000  0  4 13 15 06 02
  23034378.726   -11092818.791 2  -8643737.811 1
  24830632.018    -3369519.609 2  -2625584.676 1
  21704779.697    -4033834.112 3  -3143233.586 3
  21902872.649    -9084044.837 4  -7078461.724 3
 91  5  2 22 47  0.0030000  0  4 13 15 06 02
  23026341.888   -11135070.464 2  -8676661.097 1
  24831200.721    -3366547.085 2  -2623268.420 1
  21703771.493    -4039132.112 3  -3147361.892 3
  21905873.284    -9068280.362 4  -7066177.718 3
 91  5  2 22 47 15.0030000  0  4 13 15 06 02
  23018321.245   -11177213.922 2  -8709500.106 1
  24831795.511    -3363428.904 2  -2620838.661 1
  21702779.187    -4044335.063 3  -3151416.146 3
  21908886.797    -9052454.234 4  -7053845.675 3
 91  5  2 22 47 30.0030000  0  4 13 15 06 02
  23010320.390   -11219247.716 2  -8742253.674 1
  24832411.870    -3360163.792 2  -2618294.357 1
  21701810.856    -4049441.593 3  -3155395.256 3
  21911909.593    -9036565.459 4  -7041464.813 3
 91  5  2 22 47 45.0030000  0  4 13 15 06 02
  23002342.918   -11261170.040 3  -8774920.352 1
  24833063.025    -3356750.163 2  -2615634.395 1
  21700855.719    -4054450.007 3  -3159297.910 3
  21914946.193    -9020612.641 4  -7029034.053 3
 91  5  2 22 48  0.0030000  0  4 13 15 06 02
  22994390.016   -11302980.646 3  -8807500.002 1
  24833736.656    -3353187.929 2  -2612858.581 1
  21699919.462    -4059359.951 3  -3163123.837 3
  21917994.188    -9004595.702 4  -7016553.324 3
 91  5  2 22 48 15.0030000  0  4 13 15 06 02
  22986454.809   -11344679.974 3  -8839992.934 1
  24834448.974    -3349477.641 2  -2609967.420 1
  21699009.887    -4064172.123 3  -3166873.580 3
  21921054.171    -8988515.464 4  -7004023.275 3
 91  5  2 22 48 30.0030000  0  4 13 15 06 02
  22978539.983   -11386264.439 3  -8872396.366 1
  24835182.267    -3345616.100 2  -2606958.391 1
  21698109.316    -4068883.008 3  -3170544.402 3
  21924125.252    -8972368.945 4  -6991441.573 3
 91  5  2 22 48 45.0030000  0  4 13 15 06 02
  22970644.946   -11427738.221 3  -8904713.541 1
  24835943.428    -3341607.920 2  -2603835.183 1
  21697230.925    -4073497.113 3  -3174139.804 3
  21927209.211    -8956160.822 4  -6978811.876 3
 91  5  2 22 49  0.0030000  0  4 13 15 06 02
  22962773.903   -11469099.846 2  -8936943.332 1
  24836735.493    -3337451.548 2  -2600596.440 1
  21696370.821    -4078012.720 3  -3177658.453 3
  21930307.567    -8939889.737 4  -6966133.117 3
 91  5  2 22 49 15.0030000  0  4 13 15 06 02
  22954924.429   -11510353.271 2  -8969088.785 1
  24837553.019    -3333151.270 2  -2597245.528 1
  21695534.100    -4082433.945 3  -3181103.560 3
  21933413.410    -8923559.958 4  -6953408.621 3
 91  5  2 22 49 30.0030000  0  4 13 15 06 02
  22947093.260   -11551500.496 2  -9001151.481 1
  24838397.539    -3328708.939 2  -2593784.023 1
  21694705.459    -4086762.715 3  -3184476.630 3
  21936533.055    -8907173.674 4  -6940640.094 3
 91  5  2 22 49 45.0030000  0  4 13 15 06 02
  22939283.956   -11592541.476 2  -9033131.464 1
  24839269.038    -3324124.895 2  -2590211.963 1
  21693903.517    -4090999.168 3  -3187777.764 3
  21939663.781    -8890731.390 4  -6927827.925 3
 91  5  2 22 50  0.0030000  0  4 13 15 06 02
  22931495.959   -11633476.777 2  -9065029.001 1
  24840163.920    -3319399.957 2  -2586530.182 1
  21693112.063    -4095144.049 3  -3191007.539 3
  21942802.011    -8874234.063 4  -6914972.875 3
 91  5  2 22 50 15.0030000  0  4 13 15 06 02
  22923723.544   -11674309.252 3  -9096846.488 1
  24841093.266    -3314537.422 2  -2582741.176 1
  21692341.601    -4099200.417 3  -3194168.332 3
  21945950.431    -8857684.969 4  -6902077.487 3
 91  5  2 22 50 30.0030000  0  4 13 15 06 02
  22915972.105   -11715035.509 3  -9128581.176 1
  24842043.605    -3309534.036 2  -2578842.431 1
  21691584.924    -4103164.792 3  -3197257.465 3
  21949109.950    -8841080.963 4  -6889139.295 3
 91  5  2 22 50 45.0030000  0  4 13 15 06 02
  22908244.660   -11755655.704 3  -9160233.217 1
  24843027.222    -3304390.131 2  -2574834.224 1
  21690849.537    -4107037.523 3  -3200275.166 3
  21952280.847    -8824422.706 4  -6876158.840 3
 91  5  2 22 51  0.0030000  0  4 13 15 06 02
  22900535.189   -11796173.778 3  -9191805.712 1
  24844029.143    -3299110.053 2  -2570719.815 1
  21690124.638    -4110822.744 3  -3203224.704 3
  21955459.543    -8807714.597 4  -6863139.544 3
 91  5  2 22 51 15.0030000  0  4 13 15 06 02
  22892844.006   -11836588.062 3  -9223297.286 1
  24845060.416    -3293692.187 2  -2566498.092
  21689425.530    -4114518.711 3  -3206104.675 3
  21958649.042    -8790955.061 4  -6850080.172 3
 91  5  2 22 51 30.0030000  0  4 13 15 06 02
  22885170.831   -11876899.638 3  -9254708.863 1
  24846123.484    -3288137.802 2  -2562169.995 1
  21688737.799    -4118126.544 3  -3208915.965 3
  21961846.934    -8774145.469 4  -6836981.799 3
 91  5  2 22 51 45.0030000  0  4 13 15 06 02
  22877520.725   -11917108.955 3  -9286040.762 1
  24847199.150    -3282447.514 2  -2557735.955 1
  21688068.060    -4121646.814 3  -3211659.024 3
  21965055.907    -8757286.900 4  -6823845.254 3
 91  5  2 22 52  0.0030000  0  4 13 15 06 02
  22869891.298   -11957217.781 3  -9317294.333 2
  24848310.170    -3276623.533 2  -2553197.800 1
  21687416.015    -4125081.491 3  -3214335.389 3
  21968272.087    -8740381.528 4  -6810672.237 3
 91  5  2 22 52 15.0030000  0  4 13 15 06 02
  22862275.971   -11997224.841 3  -9348468.640 1
  24849442.794    -3270664.694 2  -2548554.587 1
  21686778.349    -4128429.378 3  -3216944.132 3
  21971497.550    -8723428.287 4  -6797461.928 3
 91  5  2 22 52 30.0030000  0  4 13 15 06 02
  22854677.744   -12037131.230 3  -9379564.461 1
  24850603.583    -3264571.953 2  -2543806.980 1
  21686160.786    -4131691.339 3  -3219485.917 3
  21974731.407    -8706428.487 4  -6784215.348 3
 91  5  2 22 52 45.0030000  0  4 13 15 06 02
  22847104.071   -12076937.407 3  -9410582.226 1
  24851793.164    -3258346.216 2  -2538955.776 1
  21685553.396    -4134868.123 3  -3221961.337 3
  21977976.362    -8689383.036 4  -6770933.173 3
 91  5  2 22 53  0.0030000  0  4 13 15 06 02
  22839548.109   -12116641.188 3  -9441520.166 1
  24852997.124    -3251985.556 2  -2533999.351 1
  21684966.702    -4137957.478 3  -3224368.616 3
  21981228.507    -8672289.894 4  -6757613.842 3
 91  5  2 22 53 15.0030000  0  4 13 15 06 02
  22832012.232   -12156243.250 3  -9472378.905 1
  24854231.972    -3245490.881 2  -2528938.610 1
  21684392.904    -4140960.342 3  -3226708.505 3
  21984491.157    -8655150.191 4  -6744258.236 3
 91  5  2 22 53 30.0030000  0  4 13 15 06 02
  22824498.535   -12195744.323 3  -9503158.913 1
  24855495.001    -3238863.072 2  -2523774.014 1
  21683839.191    -4143877.433 3  -3228981.558 3
  21987761.589    -8637965.071 4  -6730867.240 3
 91  5  2 22 53 45.0030000  0  4 13 15 06 02
  22817001.311   -12235143.011 3  -9533859.111 1
  24856777.505    -3232101.019 2  -2518504.896 1
  21683300.765    -4146707.448 3  -3231186.764 3
  21991039.229    -8620733.458 4  -6717440.016 3
 91  5  2 22 54  0.0030000  0  4 13 15 06 02
  22809523.299   -12274439.850 3  -9564480.000 1
  24858098.102    -3225205.323 2  -2513131.616 1
  21682776.717    -4149450.802 3  -3233324.445 3
  21994327.042    -8603456.166 4  -6703977.192 3
 91  5  2 22 54 15.0030000  0  4 13 15 06 02
  22802067.449   -12313630.853 3  -9595018.370 1
  24859429.170    -3218172.710 2  -2507651.661 1
  21682273.366    -4152103.940 3  -3235391.824 3
  21997625.953    -8586129.756 4  -6690476.100 3
 91  5  2 22 54 30.0030000  0  4 13 15 06 02
  22794627.200   -12352715.593 3  -9625473.987 1
  24860796.831    -3211002.748 2  -2502064.650 1
  21681782.910    -4154666.473 3  -3237388.593 3
  22000932.665    -8568754.188 4  -6676936.705 3
 91  5  2 22 54 45.0030000  0  4 13 15 06 02
  22787209.444   -12391691.307 3  -9655844.626 1
  24862189.672    -3203692.592 2  -2496368.385 1
  21681315.541    -4157135.325 3  -3239312.370 3
  22004246.880    -8551326.706 4  -6663356.857 3
 91  5  2 22 55  0.0030000  0  4 13 15 06 02
  22779812.070   -12430558.657 3  -9686130.812 1
  24863607.084    -3196243.297 2  -2490563.681 1
  21680864.051    -4159511.371 3  -3241163.826 3
  22007574.880    -8533848.270 4  -6649737.293 3
 91  5  2 22 55 15.0030000  0  4 13 15 06 02
  22772437.172   -12469315.266 3  -9716330.707 1
  24865052.380    -3188652.850 2  -2484649.105 1
  21680431.443    -4161792.525 3  -3242941.353 3
  22010910.664    -8516317.318 4  -6636076.828 3
 91  5  2 22 55 30.0030000  0  4 13 15 06 02
  22765081.469   -12507962.828 3  -9746445.650 1
  24866525.266    -3180923.082 2  -2478625.926 1
  21680015.046    -4163980.516 3  -3244646.282 3
  22014254.545    -8498735.644 4  -6622376.814 3
 91  5  2 22 55 45.0030000  0  4 13 15 06 02
  22757752.133   -12546500.449 3  -9776474.913 1
  24868016.125    -3173053.335 2  -2472493.637 1
  21679612.714    -4166074.538 3  -3246277.980 3
  22017613.415    -8481102.715 4  -6608636.872 3
 91  5  2 22 56  0.0030000  0  4 13 15 06 02
  22750436.007   -12584930.497 3  -9806420.373 1
  24869545.672    -3165046.145 2  -2466254.287 1
  21679234.376    -4168076.841 3  -3247838.211 3
  22020977.398    -8463420.964 4  -6594858.880 3
 91  5  2 22 56 15.0030000  0  4 13 15 06 02
  22743143.543   -12623251.866 3  -9836281.131 1
  24871096.490    -3156900.635 2  -2459907.134 1
  21678872.528    -4169986.434 3  -3249326.198 3
  22024349.757    -8445689.846 4  -6581042.436 3
 91  5  2 22 56 30.0030000  0  4 13 15 06 02
  22735874.777   -12661464.635 3  -9866057.272 1
  24872670.116    -3148617.377 2  -2453452.610 1
  21678523.872    -4171803.493 3  -3250742.090 3
  22027733.826    -8427909.854 4  -6567187.894 3
 91  5  2 22 56 45.0030000  0  4 13 15 06 02
  22728621.594   -12699570.813 3  -9895750.371 1
  24874269.795    -3140198.342 2  -2446892.363 1
  21678195.599    -4173530.220 3  -3252087.584 3
  22031126.270    -8410083.318 4  -6553297.094 3
 91  5  2 22 57  0.0030000  0  4 13 15 06 02
  22721390.311   -12737568.585 3  -9925358.953 1
  24875900.971    -3131641.857 2  -2440224.914 1
  21677887.114    -4175164.632 3  -3253361.152 3
  22034526.812    -8392208.419 4  -6539368.607 3
 91  5  2 22 57 15.0030000  0  4 13 15 06 02
  22714183.302   -12775458.767 3  -9954883.728 1
  24877551.622    -3122949.215 2  -2433451.436 1
  21677592.415    -4176707.894 3  -3254563.690 3
  22037939.655    -8374286.646 4  -6525403.600 3
 91  5  2 22 57 30.0030000  0  4 13 15 06 02
  22706989.781   -12813240.593 3  -9984324.046 1
  24879228.972    -3114119.718 2  -2426571.326 1
  21677317.207    -4178159.045 3  -3255694.446 3
  22041359.078    -8356317.293 4  -6511401.507 3
 91  5  2 22 57 45.0030000  0  4 13 15 06 02
  22699823.535   -12850910.942 3 -10013677.530 1
  24880942.584    -3105150.824 2  -2419582.546 1
  21677059.991    -4179515.308 3  -3256751.275 3
  22044786.318    -8338297.920 4  -6497360.436 3
 91  5  2 22 58  0.0030000  0  4 13 15 06 02
  22692674.687   -12888471.739 3 -10042945.647 1
  24882678.078    -3096044.749 2  -2412486.894 1
  21676814.746    -4180778.754 3  -3257735.776 3
  22048224.936    -8320230.767 4  -6483282.141 3
 91  5  2 22 58 15.0030000  0  4 13 15 06 02
  22685548.925   -12925924.660 3 -10072129.694 1
  24884432.470    -3086803.132 2  -2405285.636
  21676592.901    -4181950.825 3  -3258649.080 3
  22051671.947    -8302117.563 4  -6469167.963 3
 91  5  2 22 58 30.0030000  0  4 13 15 06 02
  22678443.249   -12963265.533 3 -10101226.421 1
  24886213.527    -3077421.942 2  -2397975.561 1
  21676390.252    -4183027.398 3  -3259487.956 3
  22055127.352    -8283954.568 4  -6455014.987 3
 91  5  2 22 58 45.0030000  0  4 13 15 06 02
  22671358.548   -13000495.240 3 -10130236.528 1
  24888032.380    -3067902.252 2  -2390557.631 1
  21676202.575    -4184009.437 3  -3260253.183 3
  22058592.651    -8265742.928 4  -6440824.105 3
 91  5  2 22 59  0.0030000  0  4 13 15 06 02
  22664294.229   -13037612.898 3 -10159159.359 1
  24889868.597    -3058243.559 2  -2383031.299 1
  21676032.889    -4184896.329 3  -3260944.272 3
  22062070.253    -8247482.187 4  -6426594.962 3
 91  5  2 22 59 15.0030000  0  4 13 15 06 02
  22657249.419   -13074620.316 3 -10187996.275 1
  24891730.012    -3048447.893 2  -2375398.376 1
  21675883.602    -4185689.806 3  -3261562.567 3
  22065553.229    -8229174.469 4  -6412329.209 3
 91  5  2 22 59 30.0030000  0  4 13 15 06 02
  22650230.068   -13111516.959 3 -10216746.843 1
  24893618.998    -3038515.008 2  -2367658.443 1
  21675750.195    -4186389.201 3  -3262107.547 3
  22069046.414    -8210819.464 4  -6398026.617 3
 91  5  2 22 59 45.0030000  0  4 13 15 06 02
  22643230.210   -13148302.994 3 -10245411.256 2
  24895541.575    -3028445.247 2  -2359811.893 1
  21675632.668    -4186994.976 3  -3262579.577 3
  22072546.491    -8192417.722 4  -6383687.613 3
 91  5  2 23  0  0.0030000  0  4 13 15 06 02
  22636250.455   -13184983.516 3 -10273993.455 1
  24897474.344    -3018244.187 2  -2351863.018 1
  21675537.337    -4187512.405 3  -3262982.763 3
  22076054.962    -8173974.728 4  -6369316.444 3
 91  5  2 23  0 15.0030000  0  4 13 15 06 02
  22629291.971   -13221556.662 3 -10302491.963 1
  24899445.172    -3007910.107 2  -2343810.496 1
  21675452.198    -4187939.579 3  -3263315.633 3
  22079574.828    -8155488.889 4  -6354911.906 3
 91  5  2 23  0 30.0030000  0  4 13 15 06 02
  22622352.979   -13258019.509 3 -10330904.535 1
  24901439.993    -2997440.456 2  -2335652.297 1
  21675388.644    -4188273.739 3  -3263576.011 3
  22083101.290    -8136957.755 4  -6340472.063 3
 91  5  2 23  0 45.0030000  0  4 13 15 06 02
  22615435.852   -13294374.847 3 -10359233.339 1
  24903453.696    -2986837.985 2  -2327390.638 1
  21675343.675    -4188517.478 3  -3263765.940 3
  22086634.348    -8118383.998 4  -6325999.012 3
 91  5  2 23  1  0.0030000  0  4 13 15 06 02
  22608538.828   -13330621.701 3 -10387477.595 1
  24905499.176    -2976101.738 2  -2319024.743 1
  21675317.290    -4188669.906 3  -3263884.718 3
  22090177.894    -8099767.110 4  -6311492.360 3
 91  5  2 23  1 15.0030000  0  4 13 15 06 02
  22601660.389   -13366756.883 3 -10415634.831 1
  24907562.053    -2965228.939 2  -2310552.363 1
  21675305.302    -4188728.028 3  -3263930.016 3
  22093728.926    -8081104.390 4  -6296949.994 3
 91  5  2 23  1 30.0030000  0  4 13 15 06 02
  22594806.537   -13402777.611 3 -10443702.903 1
  24909661.803    -2954217.136 2  -2301971.771 1
  21675313.696    -4188689.275 3  -3263899.804 3
  22097290.760    -8062393.336 4  -6282369.955 3
 91  5  2 23  1 45.0030000  0  4 13 15 06 02
  22587970.972   -13438683.911 3 -10471681.797 1
  24911779.230    -2943066.528 2  -2293282.963 1
  21675334.077    -4188553.455 3  -3263793.974 3
  22100860.394    -8043634.215 4  -6267752.467 3
 91  5  2 23  2  0.0030000  0  4 13 15 06 02
  22581160.885   -13474476.674 3 -10499572.195 1
  24913932.936    -2931778.558 2  -2284487.197 1
  21675380.547    -4188321.532 3  -3263613.250 3
  22104437.218    -8024828.155 4  -6253098.402 3
 91  5  2 23  2 15.0030000  0  4 13 15 06 02
  22574372.384   -13510152.374 3 -10527371.402 1
  24916102.539    -2920349.832 2  -2275581.673 1
  21675444.398    -4187990.066 3  -3263354.976 3
  22108026.029    -8005971.984 4  -6238405.287 3
 91  5  2 23  2 30.0030000  0  4 13 15 06 02
  22567606.376   -13545712.363 3 -10555080.462 1
  24918306.623    -2908781.746 2  -2266567.592 1
  21675523.848    -4187560.488 3  -3263020.235 3
  22111623.845    -7987067.317 4  -6223674.379 3
 91  5  2 23  2 45.0030000  0  4 13 15 06 02
  22560859.843   -13581156.285 3 -10582699.060 1
  24920534.981    -2897074.127 2  -2257444.760 1
  21675626.072    -4187032.241 3  -3262608.615 3
  22115229.741    -7968113.964 4  -6208905.535 3
 91  5  2 23  3  0.0030000  0  4 13 15 06 02
  22554139.101   -13616484.114 3 -10610227.210 1
  24922784.018    -2885227.519 2  -2248213.607 1
  21675746.601    -4186405.685 3  -3262120.395 3
  22118846.438    -7949112.401 4  -6194099.139 3
 91  5  2 23  3 15.0030000  0  4 13 15 06 02
  22547437.833   -13651698.369 3 -10637666.841 2
  24925069.926    -2873244.145 2  -2238875.938 1
  21675882.695    -4185683.275 3  -3261557.479 3
  22122471.232    -7930065.321 4  -6179257.273 3
 91  5  2 23  3 30.0030000  0  4 13 15 06 02
  22540756.965   -13686798.097 3 -10665017.237 1
  24927375.641    -2861123.604 2  -2229431.332 1
  21676041.282    -4184864.209 3  -3260919.241 3
  22126103.216    -7910972.124 4  -6164379.454 3
 91  5  2 23  3 45.0030000  0  4 13 15 06 02
  22534101.574   -13721782.498 3 -10692277.770 1
  24929709.817    -2848865.482 2  -2219879.526 1
  21676213.970    -4183947.674 3  -3260205.053 3
  22129746.298    -7891832.387 4  -6149465.373 3
 91  5  2 23  4  0.0030000  0  4 13 15 06 02
  22527462.360   -13756652.875 3 -10719449.455 1
  24932066.783    -2836471.632 2  -2210222.005 1
  21676407.039    -4182935.187 3  -3259416.099 3
  22133398.663    -7872647.917 4  -6134516.440 3
 91  5  2 23  4 15.0030000  0  4 13 15 06 02
  22520851.345   -13791406.831 3 -10746530.415 1
  24934451.931    -2823939.246 2  -2200456.516 1
  21676617.192    -4181824.094 3  -3258550.317 3
  22137057.642    -7853416.211 4  -6119530.703 3
 91  5  2 23  4 30.0030000  0  4 13 15 06 02
  22514261.305   -13826045.236 3 -10773521.356 2
  24936864.668    -2811269.658 2  -2190584.077 1
  21676849.227    -4180615.500 3  -3257608.558 3
  22140724.387    -7834138.590 4  -6104509.173 3
 91  5  2 23  4 45.0030000  0  4 13 15 06 02
  22507691.054   -13860565.391 3 -10800420.131 1
  24939297.176    -2798460.662 2  -2180603.060 1
  21677098.050    -4179306.715 3  -3256588.725 3
  22144401.043    -7814812.470 4  -6089449.882 3
 91  5  2 23  5  0.0030000  0  4 13 15 06 02
  22501145.390   -13894966.870 3 -10827226.438 1
  24941765.073    -2785512.064 2  -2170513.220 1
  21677363.381    -4177897.367 3  -3255490.536 3
  22148090.002    -7795437.998 4  -6074352.871 3
 91  5  2 23  5 15.0030000  0  4 13 15 06 02
  22494620.701   -13929248.465 3 -10853939.337 1
  24944256.057    -2772422.958 2  -2160313.924 1
  21677654.468    -4176386.489 3  -3254313.227 3
  22151784.335    -7776014.370 4  -6059217.583 2
 91  5  2 23  5 30.0030000  0  4 13 15 06 02
  22488120.896   -13963409.531 3 -10880558.319 2
  24946774.315    -2759192.829 2  -2150004.758 1
  21677957.857    -4174773.477 3  -3253056.328 3
  22155491.878    -7756541.262 4  -6044043.731 2
 91  5  2 23  5 45.0030000  0  4 13 15 06 02
  22481642.084   -13997454.193 3 -10907086.610 1
  24949313.549    -2745825.854 2  -2139588.867 1
  21678283.129    -4173062.011 3  -3251722.721 3
  22159206.296    -7737022.614 4  -6028834.406 3
 91  5  2 23  6  0.0030000  0  4 13 15 06 02
  22475187.859   -14031379.988 3 -10933522.217 2
  24951889.672    -2732319.884 2  -2129064.775 1
  21678631.488    -4171250.007 3  -3250310.772 3
  22162928.829    -7717456.484 4  -6013588.074 3
 91  5  2 23  6 15.0030000  0  4 13 15 06 02
  22468753.109   -14065187.110 3 -10959865.408 2
  24954485.270    -2718675.350 2  -2118432.631 1
  21678995.447    -4169337.769 3  -3248820.722 3
  22166660.035    -7697843.336 4  -5998305.116 3
 91  5  2 23  6 30.0030000  0  4 13 15 06 02
  22462342.353   -14098875.018 3 -10986115.694 1
  24957106.362    -2704892.260 2  -2107692.583 1
  21679375.583    -4167324.804 3  -3247252.183 3
  22170400.855    -7678182.799 4  -5982985.220 3
 91  5  2 23  6 45.0040000  0  4 13 15 06 02
  22455952.261   -14132448.688 3 -11012276.960 1
  24959759.514    -2690972.423 2  -2096845.914 1
  21679776.400    -4165213.420 3  -3245606.944 3
  22174149.148    -7658476.391 4  -5967629.576 3
 91  5  2 23  7  0.0040000  0  4 13 15 06 02
  22449588.882   -14165902.368 3 -11038344.730 2
  24962432.469    -2676916.390 2  -2085893.181 1
  21680197.910    -4163002.791 3  -3243884.369 3
  22177910.944    -7638725.924 4  -5952239.606 3
 91  5  2 23  7 15.0040000  0  4 13 15 06 02
  22443242.272   -14199240.447 3 -11064322.422 1
  24965130.307    -2662726.155 2  -2074835.813 1
  21680638.004    -4160695.062 3  -3242086.144 3
  22181675.148    -7618932.599 4  -5936816.253 3
 91  5  2 23  7 30.0040000  0  4 13 15 06 02
  22436919.936   -14232460.735 3 -11090208.300 1
  24967858.405    -2648399.540 2  -2063672.223 1
  21681097.294    -4158288.052 3  -3240210.560 3
  22185453.434    -7599094.421 4  -5921357.940 3
 91  5  2 23  7 45.0040000  0  4 13 15 06 02
  22430621.908   -14265564.370 3 -11116003.313 1
  24970602.713    -2633938.016 2  -2052403.502 1
  21681570.666    -4155782.942 3  -3238258.527 3
  22189236.816    -7579212.862 4  -5905865.821 3
 91  5  2 23  8  0.0040000  0  4 13 15 06 02
  22424344.245   -14298550.481 3 -11141706.744 2
  24973382.079    -2619341.184 2  -2041029.362 1
  21682069.812    -4153178.995 3  -3236229.467 3
  22193028.294    -7559287.404 4  -5890339.500 3
 91  5  2 23  8 15.0040000  0  4 13 15 06 02
  22418087.574   -14331417.208 3 -11167317.162 2
  24976188.737    -2604607.314 2  -2029548.433 1
  21682583.355    -4150474.535 3  -3234122.093 3
  22196827.852    -7539316.438 4  -5874777.716 3
 91  5  2 23  8 30.0040000  0  4 13 15 06 02
  22411856.101   -14364166.205 3 -11192835.815 1
  24979021.187    -2589738.257 2  -2017962.134 1
  21683116.686    -4147671.213 3  -3231937.689 3
  22200637.322    -7519301.907 4  -5859181.985 2
 91  5  2 23  8 45.0040000  0  4 13 15 06 02
  22405649.792   -14396794.190 3 -11218260.161 1
  24981870.406    -2574730.829 2  -2006268.046 1
  21683669.805    -4144765.450 3  -3229673.456 3
  22204452.481    -7499240.732 4  -5843549.906 3
 91  5  2 23  9  0.0040000  0  4 13 15 06 02
  22399463.881   -14429298.320 3 -11243588.019 2
  24984761.314    -2559582.579 2  -1994464.211 1
  21684241.509    -4141754.735 3  -3227327.442 3
  22208280.535    -7479130.475 4  -5827879.584 3
 91  5  2 23  9 15.0040000  0  4 13 15 06 02
  22393301.040   -14461678.216 3 -11268819.080 1
  24987671.696    -2544293.330 2  -1982550.542 1
  21684835.707    -4138638.537 3  -3224899.232 3
  22212115.465    -7458970.936 4  -5812170.867 2
 91  5  2 23  9 30.0040000  0  4 13 15 06 02
  22387163.694   -14493932.606 3 -11293952.323 2
  24990599.162    -2528862.140 2  -1970526.219 1
  21685447.878    -4135415.760 3  -3222387.976 3
  22215962.714    -7438760.949 4  -5796422.826 3
 91  5  2 23  9 45.0040000  0  4 13 15 06 02
  22381049.417   -14526064.188 3 -11318989.891 2
  24993572.208    -2513291.756 2  -1958393.427 1
  21686080.431    -4132088.866 3  -3219795.583 3
  22219818.043    -7418503.359 4  -5780637.701 2
 91  5  2 23 10  0.0040000  0  4 13 15 06 02
  22374957.337   -14558070.309 3 -11343929.688 2
  24996557.539    -2497580.062 2  -1946150.535 1
  21686731.586    -4128655.460 3  -3217120.191 3
  22223682.673    -7398196.069 4  -5764813.837 3
 91  5  2 23 10 15.0040000  0  4 13 15 06 02
  22368892.531   -14589951.081 3 -11368771.800 1
  24999572.256    -2481727.325 2  -1933797.757 1
  21687404.920    -4125115.718 3  -3214361.951 3
  22227557.790    -7377839.346 4  -5748951.464 2
 91  5  2 23 10 30.0040000  0  4 13 15 06 02
  22362850.515   -14621704.725 3 -11393514.862 1
  25002622.641    -2465731.950 2  -1921333.871 1
  21688101.934    -4121467.942 3  -3211519.523 3
  22231441.301    -7357431.574 4  -5733049.320 3
 91  5  2 23 10 45.0040000  0  4 13 15 06 02
  22356832.179   -14653330.517 3 -11418158.303 2
  25005685.922    -2449593.661 2  -1908758.559 1
  21688818.440    -4117711.312 3  -3208592.285 3
  22235332.892    -7336972.405 4  -5717107.128 3
 91  5  2 23 11  0.0040000  0  4 13 15 06 02
  22350839.932   -14684830.162 3 -11442703.453 2
  25008784.871    -2433314.484 2  -1896073.440 1
  21689554.734    -4113847.759 3  -3205581.718 3
  22239234.394    -7316463.947 4  -5701126.512 2
 91  5  2 23 11 15.0040000  0  4 13 15 06 02
  22344867.176   -14716202.275 3 -11467149.226 2
  25011910.223    -2416892.982 2  -1883277.425 1
  21690309.316    -4109875.546 3  -3202486.486 3
  22243149.385    -7295904.673 4  -5685106.314 3
 91  5  2 23 11 30.0040000  0  4 13 15 06 02
  22338922.881   -14747445.457 3 -11491494.530 2
  25015057.736    -2400327.977 2  -1870369.715 1
  21691085.467    -4105793.484 3  -3199305.652 3
  22247068.268    -7275293.647 4  -5669045.786 3
 91  5  2 23 11 45.0040000  0  4 13 15 06 02
  22333002.284   -14778559.260 3 -11515739.026 2
  25018239.434    -2383619.540 2  -1857350.149 1
  21691885.019    -4101601.266 3  -3196038.990 3
  22251001.844    -7254630.741 4  -5652944.827 2
 91  5  2 23 12  0.0040000  0  4 13 15 06 02
  22327106.274   -14809541.506 3 -11539880.993 2
  25021456.801    -2366765.808 2  -1844217.343 1
  21692703.451    -4097296.667 3  -3192684.749 3
  22254944.127    -7233913.948 4  -5636801.874 3
 91  5  2 23 12 15.0040000  0  4 13 15 06 02
  22321235.725   -14840390.369 3 -11563919.044 1
  25024684.969    -2349765.156 2  -1830970.066 1
  21693542.877    -4092877.971 3  -3189241.614 3
  22258898.678    -7213141.693 4  -5620615.715 2
 91  5  2 23 12 30.0040000  0  4 13 15 06 02
  22315391.280   -14871103.116 3 -11587851.019 2
  25027951.807    -2332615.027 2  -1817606.341 1
  21694408.669    -4088342.358 3  -3185707.370 3
  22262860.750    -7192311.441 4  -5604384.368 2
 91  5  2 23 12 45.0040000  0  4 13 15 06 02
  22309572.906   -14901682.053 3 -11611678.720 2
  25031236.042    -2315318.170 2  -1804128.250 1
  21695290.359    -4083692.454 3  -3182084.079 3
  22266834.496    -7171426.138 4  -5588110.109 2
 91  5  2 23 13  0.0040000  0  4 13 15 06 02
  22303778.823   -14932126.650 3 -11635401.752 2
  25034564.340    -2297873.976 2  -1790535.383 1
  21696199.341    -4078927.391 3  -3178371.038 3
  22270818.433    -7150484.928 4  -5571792.287 2
 91  5  2 23 13 15.0040000  0  4 13 15 06 02
  22298008.717   -14962438.504 3 -11659021.331 2
  25037904.922    -2280284.446 2  -1776829.240 1
  21697125.686    -4074049.002 3  -3174569.692 3
  22274815.563    -7129489.993 4  -5555432.605 2
 91  5  2 23 13 30.0040000  0  4 13 15 06 02
  22292270.091   -14992613.075 3 -11682533.960 1
  25041284.471    -2262545.323 2  -1763006.555 1
  21698078.433    -4069052.575 3  -3170676.374 3
  22278821.696    -7108436.900 4  -5539027.604 3
 91  5  2 23 13 45.0040000  0  4 13 15 06 02
  22286551.846   -15022649.573 3 -11705938.976 2
  25044687.420    -2244656.196 2  -1749066.978 1
  21699053.655    -4063937.608 3  -3166690.694 3
  22282839.818    -7087325.263 4  -5522576.996 3
 91  5  2 23 14  0.0040000  0  4 13 15 06 02
  22280863.878   -15052547.724 3 -11729236.214 2
  25048118.255    -2226616.904 2  -1735010.399 1
  21700046.870    -4058703.684 3  -3162612.318 3
  22286868.428    -7066154.888 4  -5506080.602 3
 91  5  2 23 14 15.0040000  0  4 13 15 06 02
  22275199.904   -15082307.687 3 -11752425.759 1
  25051576.958    -2208427.847 2  -1720837.069 1
  21701065.858    -4053351.054 3  -3158441.436 3
  22290904.227    -7044926.076 4  -5489538.683 3
 91  5  2 23 14 30.0040000  0  4 13 15 06 02
  22269562.297   -15111930.736 3 -11775508.627 2
  25055070.143    -2190090.971 2  -1706548.598 1
  21702107.950    -4047881.164 3  -3154179.186 3
  22294957.424    -7023640.644 4  -5472952.637 3
 91  5  2 23 14 45.0040000  0  4 13 15 06 02
  22263950.185   -15141419.785 3 -11798487.076 1
  25058583.395    -2171609.146 2  -1692147.177 1
  21703170.110    -4042296.765 3  -3149827.711 3
  22299019.311    -7002301.522 4  -5456324.751 3
 91  5  2 23 15  0.0040000  0  4 13 15 06 02
  22258367.755   -15170770.437 3 -11821357.673 2
  25062134.445    -2152978.217 2  -1677629.554 1
  21704252.651    -4036593.409 3  -3145383.541 3
  22303091.389    -6980904.502 4  -5439651.750 3
 91  5  2 23 15 15.0040000  0  4 13 15 06 02
  22252804.207   -15199995.313 3 -11844130.272 2
  25065701.671    -2134210.984 2  -1663005.752 1
  21705361.298    -4030783.627 3  -3140856.444 3
  22307170.675    -6959462.341 4  -5422943.581 2
 91  5  2 23 15 30.0040000  0  4 13 15 06 02
  22247267.934   -15229101.940 3 -11866810.727 2
  25069301.877    -2115315.560 2  -1648282.042 1
  21706485.511    -4024875.385 3  -3136252.611 3
  22311257.742    -6937982.903 4  -5406206.352 3
 91  5  2 23 15 45.0040000  0  4 13 15 06 02
  22241752.356   -15258070.351 3 -11889383.495 2
  25072922.169    -2096272.288 2  -1633443.084 1
  21707631.624    -4018848.716 3  -3131556.508 3
  22315356.205    -6916446.772 4  -5389424.957 3
 91  5  2 23 16  0.0040000  0  4 13 15 06 02
  22236270.056   -15286895.634 3 -11911844.706 2
  25076576.943    -2077075.966 2  -1618484.948 1
  21708802.604    -4012698.461 3  -3126764.100 3
  22319466.063    -6894849.067 4  -5372595.594 3
 91  5  2 23 16 30.0040000  0  4 13 15 06 02
  22225381.295   -15344110.692 3 -11956427.784 2
  25083971.630    -2038219.716 2  -1588207.360 1
  21711215.044    -4000021.095 3  -3116885.641 3
  22327723.244    -6851462.771 4  -5338788.096 3
 91  5  2 23 16 45.0040000  0  4 13 15 06 02
  22219979.335   -15372492.873 3 -11978543.749 1
  25087707.338    -2018552.930 2  -1572882.633 1
  21712457.674    -3993486.602 3  -3111793.836 3
  22331869.067    -6829667.225 4  -5321804.564 3
 91  5  2 23 17  0.0040000  0  4 13 15 06 02
  22214607.949   -15400727.681 3 -12000544.872 2
  25091483.826    -1998730.257 2  -1557436.369 1
  21713725.502    -3986824.471 3  -3106602.562 3
  22336029.897    -6807806.734 4  -5304770.421 3
 91  5  2 23 17 15.0040000  0  4 13 15 06 02
  22209261.743   -15428819.336 3 -12022434.438 2
  25095284.292    -1978756.149 2  -1541872.083 1
  21715014.009    -3980038.848 3  -3101315.068 3
  22340201.494    -6785885.613 4  -5287689.031 3
 91  5  2 23 17 30.0040000  0  4 13 15 06 02
  22203940.736   -15456771.986 3 -12044215.683 2
  25099114.144    -1958635.031 2  -1526193.308 1
  21716329.790    -3973133.975 3  -3095934.641 3
  22344383.910    -6763908.322 4  -5270563.872 3
 91  5  2 23 17 45.0040000  0  4 13 15 06 02
  22198649.987   -15484587.478 3 -12065890.079 2
  25102972.474    -1938369.147 2  -1510401.685 1
  21717667.471    -3966111.779 3  -3090462.809 3
  22348576.202    -6741876.855 4  -5253396.497 3
 91  5  2 23 18  0.0040000  0  4 13 15 06 02
  22193380.841   -15512269.868 3 -12087460.725 2
  25106856.892    -1917962.567 2  -1494500.436 1
  21719024.034    -3958976.121 3  -3084902.560 3
  22352775.702    -6719795.398 4  -5236190.178 3
 91  5  2 23 18 15.0040000  0  4 13 15 06 02
  22188138.970   -15539822.016 3 -12108929.898 2
  25110767.381    -1897418.502 2  -1478492.102 1
  21720403.683    -3951729.903 3  -3079256.165 3
  22356989.284    -6697666.984 4  -5218947.264 3
 91  5  2 23 18 30.0040000  0  4 13 15 06 02
  22182920.186   -15567247.238 3 -12130300.179 2
  25114699.457    -1876740.745 2  -1462379.558 1
  21721803.103    -3944376.742 3  -3073526.432 3
  22361209.758    -6675495.424 4  -5201670.718 3
 91  5  2 23 18 45.0040000  0  4 13 15 06 02
  22177728.676   -15594524.470 3 -12151555.134 2
  25118663.605    -1855908.279 2  -1446146.447 1
  21723225.017    -3936895.360 3  -3067696.781 3
  22365441.332    -6653259.674 4  -5184344.176 3
 91  5  2 23 19  0.0040000  0  4 13 15 06 02
  22172562.347   -15621673.650 3 -12172710.306 1
  25122652.952    -1834941.482 2  -1429808.692 1
  21724670.331    -3929305.802 3  -3061782.840 3
  22369677.686    -6630979.986 4  -5166983.392 3
 91  5  2 23 19 15.0040000  0  4 13 15 06 02
  22167418.512   -15648702.861 3 -12193771.986 2
  25126667.776    -1813848.465 2  -1413372.579 1
  21726136.917    -3921615.891 3  -3055790.699 3
  22373923.359    -6608664.348 4  -5149594.584 3
 91  5  2 23 19 30.0040000  0  4 13 15 06 02
  22162298.967   -15675611.345 3 -12214739.626 2
  25130700.870    -1792628.870 2  -1396837.814 1
  21727616.992    -3913825.067 3  -3049719.939 3
  22378178.612    -6586312.451 4  -5132177.523 2
 91  5  2 23 19 45.0040000  0  4 13 15 06 02
  22157199.490   -15702397.549 3 -12235611.960 2
  25134773.559    -1771281.283 2  -1380203.375 1
  21729119.246    -3905931.924 3  -3043569.442 3
  22382440.461    -6563922.910 4  -5114731.135 3
 91  5  2 23 20  0.0040000  0  4 13 15 06 02
  22152127.008   -15729062.382 3 -12256389.712 2
  25138857.329    -1749807.079 2  -1363470.216 1
  21730641.289    -3897937.196 3  -3037339.787 3
  22386705.608    -6541496.905 4  -5097256.334 3
 91  5  2 23 20 15.0040000  0  4 13 15 06 02
  22147074.891   -15755604.878 3 -12277072.167 2
  25142961.498    -1728205.574 2  -1346637.884 1
  21732180.119    -3889840.132 3  -3031030.390 3
  22390981.854    -6519033.609 4  -5079752.473 2
 91  5  2 23 20 30.0040000  0  4 13 15 06 02
  22142046.488   -15782029.578 3 -12297662.806 2
  25147103.115    -1706481.648 2  -1329710.143 1
  21733739.349    -3881645.414 3  -3024644.896 3
  22395262.881    -6496537.713 4  -5062223.212 2
 91  5  2 23 20 45.0040000  0  4 13 15 06 02
  22137042.639   -15808331.702 3 -12318157.933 2
  25151257.052    -1684630.835 2  -1312683.537 1
  21735319.553    -3873348.001 3  -3018179.393 3
  22399549.318    -6474004.822 4  -5044665.105 3
 91  5  2 23 21  0.0040000  0  4 13 15 06 02
  22132058.298   -15834515.336 3 -12338560.738 2
  25155437.950    -1662657.140 2  -1295561.150 1
  21736914.747    -3864952.054 3  -3011637.086 3
  22403844.445    -6451439.075 4  -5027081.420 2
 91  5  2 23 21 15.0040000  0  4 13 15 06 02
  22127100.935   -15860577.297 3 -12358868.731 2
  25159645.843    -1640557.843 2  -1278340.923 1
  21738534.825    -3856454.373 3  -3005015.520 3
  22408145.260    -6428837.632 4  -5009469.916 2
 91  5  2 23 21 30.0040000  0  4 13 15 06 02
  22122164.548   -15886517.846 3 -12379082.109 2
  25163871.413    -1618333.450 2  -1261023.209 1
  21740168.986    -3847855.219 3  -2998314.877 3
  22412452.986    -6406200.834 4  -4991830.852 2
 91  5  2 23 21 45.0040000  0  4 13 15 06 02
  22117252.137   -15912335.447 3 -12399199.705 2
  25168133.559    -1595982.582 2  -1243606.988 1
  21741823.546    -3839153.041 3  -2991533.970 3
  22416769.088    -6383527.240 4  -4974163.126 2
